GFSWCAN_925_thetae_000.txt.gz
Theta_e
296 297 297 297 298 297 298 298 298 298 298 298 299 299 299 299 299 299 303 305 305 309 311 312 314 316 318 322 329 329 330 327 327 324 324 324 327 329 337 337 341 338 341 337 338 339 339 339 338 337 353 348 351 352
298 298 297 297 297 297 297 298 299 299 298 298 299 299 299 299 299 298 304 304 303 304 309 307 308 309 310 315 319 325 325 329 329 330 328 331 334 334 342 337 336 342 342 343 347 350 348 350 352 349 347 348 351 350
297 298 296 297 297 297 297 297 297 297 297 298 298 299 299 298 298 298 300 301 303 307 311 312 313 314 313 312 313 316 322 327 329 327 326 329 336 333 342 339 342 341 341 346 342 342 348 346 346 345 344 344 345 343
296 296 296 297 296 296 297 296 297 297 297 297 298 298 298 298 298 298 300 301 303 306 311 314 313 314 313 314 315 315 316 318 323 324 324 325 327 328 331 334 332 335 337 337 340 344 339 344 342 344 343 342 340 339
296 295 297 296 296 297 296 297 297 297 297 297 298 298 298 298 298 299 301 302 303 305 311 312 311 312 313 314 314 315 316 320 321 321 323 324 325 327 327 328 330 329 332 339 337 345 344 343 344 341 341 340 338 336
295 296 295 296 296 297 297 297 297 297 297 298 298 298 298 298 299 302 307 306 305 305 308 314 315 316 315 314 314 316 317 319 320 321 323 322 325 325 325 326 328 332 332 338 339 340 341 338 337 335 336 334 333 334
296 296 296 296 297 297 297 298 298 298 298 296 296 296 297 298 300 305 307 306 305 306 308 313 317 316 314 315 315 316 317 318 319 320 322 322 323 323 322 323 324 328 328 329 332 330 335 330 336 336 335 333 332 332
296 295 294 296 297 297 297 297 297 295 295 296 297 299 302 301 299 304 305 303 305 306 308 313 317 318 317 318 317 316 317 318 318 319 320 322 322 323 323 322 322 324 325 326 324 328 331 326 336 335 334 332 331 331
296 295 294 296 296 297 297 297 296 294 296 298 299 303 305 306 308 309 306 304 306 308 313 315 316 321 317 318 320 320 319 318 317 318 318 319 321 325 323 323 323 323 325 325 326 324 329 323 332 335 334 333 331 330
295 296 295 296 296 296 297 297 294 295 300 300 302 307 312 309 306 306 307 310 310 310 310 314 314 316 316 317 320 323 319 318 319 318 317 321 321 322 322 322 323 324 323 324 326 326 329 335 335 334 334 331 330 328
295 296 296 296 296 296 296 297 294 298 302 304 307 309 308 306 307 310 313 313 314 315 313 314 315 317 316 318 320 320 322 320 322 320 318 318 319 322 323 324 326 323 323 325 324 326 328 332 334 333 332 330 328 327
295 296 296 296 296 295 296 297 295 298 299 300 300 303 306 308 311 314 315 315 315 317 316 316 318 318 316 317 321 321 323 321 321 319 319 319 322 323 319 321 323 323 323 325 324 324 325 330 332 331 330 328 327 326
296 295 296 296 295 295 295 295 295 294 298 303 305 307 309 310 312 314 315 316 318 317 317 318 320 317 320 318 321 323 323 322 320 323 322 320 327 321 320 319 322 322 321 322 323 322 324 330 331 329 328 325 325 324
296 295 295 295 295 295 295 295 294 297 300 307 307 306 310 312 311 314 316 317 317 316 316 315 317 320 322 322 321 322 322 324 326 325 323 331 329 328 329 321 323 322 323 321 323 325 330 330 329 328 327 324 322 321
296 295 294 295 295 296 296 295 294 299 303 305 307 308 310 311 311 311 311 312 314 314 314 315 317 320 321 322 322 321 323 325 325 329 329 328 328 327 330 330 330 325 324 329 330 330 329 328 326 324 320 319 318 316
297 295 295 296 296 296 295 297 299 301 303 304 306 308 310 311 311 311 312 313 312 313 314 317 318 318 318 321 323 324 324 326 323 327 327 326 325 327 330 330 329 330 331 332 329 327 325 323 320 317 316 315 316 317
295 298 298 296 296 295 296 299 303 303 303 305 308 307 307 308 311 310 310 311 312 313 318 315 316 317 316 322 324 324 326 323 323 326 325 326 326 328 327 328 328 328 328 326 324 322 319 317 315 315 315 314 314 314
298 298 297 296 297 300 302 300 303 302 304 304 306 308 309 309 310 311 312 313 313 315 315 316 315 318 320 322 322 321 320 319 320 321 325 325 327 326 326 325 323 322 322 320 318 316 314 314 313 312 311 311 311 311
298 299 296 295 299 299 302 301 302 304 305 306 306 306 308 310 312 312 313 313 313 311 310 314 317 319 321 320 318 317 317 318 319 320 322 324 325 323 321 321 320 318 316 315 313 313 312 312 311 311 311 311 312 312
298 297 296 295 297 302 300 302 301 303 305 307 307 309 310 312 311 310 309 310 311 313 313 315 318 318 317 316 315 316 316 316 318 321 322 321 320 318 317 316 315 315 314 314 313 313 313 314 313 313 313 314 315 315
297 297 295 297 300 300 301 303 304 304 306 307 310 310 309 307 309 310 314 313 315 316 316 316 315 314 313 313 313 313 316 319 320 320 320 320 318 316 315 314 314 313 313 312 313 314 314 316 316 315 315 315 316 316
298 297 299 299 301 301 302 302 303 305 306 308 310 305 306 308 311 312 311 313 314 313 314 313 313 313 312 312 313 315 316 317 317 316 316 315 315 315 314 314 315 315 315 315 315 316 314 315 316 315 317 317 317 316
298 299 300 300 301 300 301 303 306 306 307 307 305 306 309 311 310 311 312 310 312 310 309 312 311 310 311 311 312 312 314 315 316 316 316 316 315 315 314 313 314 314 314 315 314 312 311 311 312 315 316 316 316 315
298 300 302 303 303 303 304 306 306 306 305 305 306 310 309 310 310 309 308 306 307 308 309 308 310 311 312 312 313 313 313 313 313 313 313 313 313 313 312 311 311 312 313 314 314 312 311 312 312 313 313 313 313 312
299 300 301 299 303 304 305 307 306 306 307 307 310 312 312 310 310 307 305 305 308 308 309 309 308 309 311 312 313 313 313 313 313 313 313 312 313 312 312 311 311 311 312 313 313 313 313 313 313 313 314 313 312 311
302 302 306 304 304 305 306 308 306 307 308 312 313 313 312 310 310 307 305 305 307 308 308 309 309 311 311 311 313 313 313 313 313 313 313 313 313 313 313 313 313 312 313 313 313 312 313 313 313 311 310 307 306 305
305 305 305 303 303 303 304 304 303 305 314 316 315 312 311 311 309 307 306 306 307 307 307 307 310 311 312 312 313 313 313 313 313 314 313 313 314 314 314 314 314 314 314 314 313 313 312 312 310 309 307 306 306 305
303 301 304 304 303 302 306 308 313 315 315 313 312 312 312 311 310 309 308 306 307 308 308 308 307 307 308 309 310 310 309 309 309 310 309 309 309 310 311 311 310 311 310 310 310 310 309 309 308 307 307 307 306 306
302 302 301 306 309 309 313 313 313 311 311 311 312 312 313 311 310 309 308 309 309 308 309 308 307 307 307 307 307 307 308 308 308 309 308 308 307 306 306 307 307 307 308 308 307 306 306 306 305 306 306 306 306 306
312 308 312 313 313 313 312 312 312 311 311 311 311 312 312 311 310 310 309 309 309 309 308 308 308 307 307 307 307 307 307 307 307 308 308 308 307 307 307 307 307 306 306 306 305 305 304 305 305 305 306 307 307 306
312 312 313 313 313 312 312 311 311 311 311 311 311 311 312 312 310 310 309 309 309 309 309 309 309 310 310 309 309 308 308 307 307 307 307 307 307 307 307 307 307 307 307 307 307 307 307 307 307 307 306 306 306 306
312 312 313 314 314 312 312 312 312 312 312 312 311 312 311 312 312 311 310 309 310 310 310 310 310 310 310 310 309 308 308 308 308 308 308 308 308 308 308 308 308 308 307 307 307 307 307 307 308 308 308 307 307 307
313 313 313 314 314 313 313 312 313 313 313 313 312 312 312 313 313 312 310 310 310 310 310 311 311 311 310 311 310 309 308 307 305 305 305 305 305 305 306 306 306 306 306 307 307 307 307 308 308 308 308 308 308 306

GFSWCAN_925_thetae_003.txt.gz
Theta_e
298 298 298 298 298 298 298 298 299 299 299 298 298 299 299 299 299 298 300 303 303 304 306 308 309 313 314 318 325 324 329 327 328 326 324 325 325 326 329 332 335 333 331 331 337 338 337 353 347 350 354 351 349 350
296 297 299 297 298 298 298 297 298 298 298 298 298 299 299 298 298 298 301 300 300 301 304 304 304 306 308 310 311 323 325 325 331 332 329 330 330 336 341 342 342 345 345 348 344 348 347 345 351 349 349 348 347 345
297 296 296 296 297 296 297 297 298 297 298 298 298 298 298 298 298 298 298 299 301 304 307 307 310 311 310 309 309 312 324 324 327 325 328 328 336 330 340 340 341 337 340 345 344 343 344 342 341 342 345 345 343 341
297 297 296 297 296 296 297 297 297 297 297 297 298 298 298 298 298 298 298 300 301 303 308 313 312 313 312 313 312 312 316 316 319 324 325 323 327 328 331 336 334 334 338 338 340 340 339 337 341 340 339 340 338 337
297 297 296 296 297 297 297 297 298 298 298 298 298 298 298 298 298 298 299 301 301 303 307 308 307 312 312 313 313 314 315 318 318 322 320 325 327 327 327 326 331 331 336 338 339 341 336 341 337 337 336 337 335 335
298 296 297 295 297 297 298 298 298 298 298 298 298 298 298 298 299 300 307 304 303 303 305 310 310 314 314 314 313 315 316 318 319 320 321 322 326 326 326 326 333 334 336 336 336 336 339 337 335 335 335 333 334 333
297 297 296 295 296 297 296 297 297 297 298 297 296 297 298 299 300 304 307 306 304 305 306 309 315 317 315 315 314 315 315 317 318 318 320 322 323 324 324 324 324 326 330 333 331 330 334 334 335 335 333 333 332 332
296 296 296 295 296 297 297 297 296 296 295 295 297 299 302 302 298 303 306 304 303 306 307 311 316 319 316 317 319 316 316 317 319 319 320 320 321 324 324 323 322 326 326 327 328 329 331 328 330 335 332 331 330 329
296 296 296 295 296 296 296 296 295 294 294 297 299 303 304 305 308 309 307 304 304 307 311 315 316 319 317 318 320 321 321 319 318 319 318 319 321 325 324 323 324 324 323 326 325 330 330 327 330 332 331 330 329 328
296 296 296 296 296 297 296 295 294 293 300 301 303 306 310 310 309 307 307 309 310 309 309 311 313 315 316 317 321 323 322 321 320 319 317 317 317 318 321 322 324 324 323 324 326 329 327 325 326 327 330 330 327 327
296 296 296 296 296 297 296 295 294 297 303 303 306 308 307 306 307 310 313 313 315 314 313 313 314 317 317 319 320 320 322 323 322 321 320 321 319 319 318 321 321 324 324 323 324 325 329 324 323 323 328 329 327 327
296 296 296 297 296 296 295 295 294 298 299 298 299 302 305 309 312 313 316 316 315 318 316 316 319 319 318 319 321 322 322 322 322 322 322 321 322 321 323 321 321 324 323 323 323 322 328 326 326 327 329 327 326 327
296 296 296 297 296 295 295 295 295 295 298 303 304 307 309 313 309 314 316 317 319 319 319 319 321 320 321 320 319 323 324 323 322 324 323 327 326 326 326 328 324 321 323 323 320 320 321 331 331 329 328 325 326 324
297 296 295 296 295 295 295 296 296 297 300 307 308 304 309 311 310 313 316 316 316 316 317 316 317 321 321 323 322 320 322 324 327 327 327 327 326 326 325 326 329 326 321 320 320 320 323 329 329 328 327 325 322 319
297 296 295 295 294 296 296 296 295 299 303 308 307 308 309 310 312 311 312 313 315 314 314 315 317 321 322 322 323 322 322 324 326 326 325 325 325 322 323 324 325 323 328 326 320 328 329 329 328 327 325 323 320 315
297 297 296 295 296 297 296 297 299 301 305 305 306 307 310 312 311 312 313 313 313 313 314 319 317 316 317 319 322 323 324 326 322 323 322 323 323 324 324 325 323 316 318 328 328 327 325 322 321 319 318 318 317 316
297 298 299 298 296 296 296 298 304 305 304 305 307 309 308 310 312 311 311 312 313 313 318 316 315 316 315 320 323 325 324 321 320 320 321 322 322 323 323 325 325 324 324 323 323 321 319 318 317 317 316 316 316 316
298 298 298 296 296 300 302 301 304 303 304 305 305 308 309 311 313 315 314 315 315 317 317 316 314 317 319 321 322 320 317 317 317 317 317 319 321 323 324 323 322 321 320 319 317 318 317 316 314 314 313 313 313 313
299 299 298 296 299 300 304 302 302 304 305 306 307 308 310 313 313 311 311 312 313 312 313 314 316 318 319 318 316 315 315 315 316 315 316 318 322 322 320 318 317 317 316 315 314 313 313 312 312 313 313 313 313 313
299 298 296 296 298 303 302 304 302 303 305 308 310 312 312 311 310 309 309 310 311 312 312 313 316 315 313 313 314 314 314 313 314 316 318 317 316 316 315 314 314 313 313 312 312 312 312 312 313 313 312 313 313 314
298 298 296 297 301 302 302 304 305 306 307 307 310 308 308 306 308 310 312 312 314 314 314 314 312 311 312 312 311 312 313 316 320 319 317 316 314 313 313 313 313 313 313 313 313 313 313 313 313 313 313 313 313 312
299 297 300 301 302 302 302 303 305 306 306 308 307 305 306 308 310 311 310 311 312 309 310 310 312 311 311 311 312 314 317 316 315 314 314 314 314 314 313 313 313 314 314 314 314 313 314 314 312 312 312 313 314 315
299 300 302 301 302 299 300 304 306 307 307 307 305 307 309 310 309 309 308 305 306 307 309 310 310 310 311 312 313 314 315 316 315 315 315 314 314 314 314 315 314 314 312 311 311 312 313 314 315 316 316 315 315 315
299 301 302 304 303 303 304 307 306 305 304 305 306 309 309 310 307 305 304 304 304 308 310 309 309 312 313 313 313 313 314 314 314 314 313 313 312 311 312 313 314 314 312 312 312 312 313 313 313 312 312 312 312 311
299 298 302 299 303 304 306 306 305 305 306 307 310 311 310 308 306 305 304 303 306 308 309 309 311 312 314 314 313 313 313 313 313 313 312 312 312 312 312 312 313 314 314 313 312 313 313 312 312 310 309 308 308 308
301 303 304 304 305 305 306 307 305 307 308 313 313 312 310 308 308 306 304 304 306 308 310 311 311 313 312 312 313 313 313 313 313 313 313 313 313 313 313 313 312 312 313 313 313 313 313 312 310 309 308 306 304 305
306 306 305 302 303 303 303 303 304 305 312 315 313 311 309 309 308 307 306 306 307 308 309 311 312 313 313 312 313 313 314 314 313 313 313 314 314 315 315 315 315 314 314 314 313 313 312 311 309 308 306 306 306 305
303 301 303 303 303 302 305 309 313 315 315 312 311 312 311 309 310 308 309 308 308 308 309 309 307 310 311 311 313 314 314 313 313 313 312 312 312 312 311 312 310 310 312 313 312 312 310 309 308 307 306 306 306 305
301 301 301 306 309 309 313 314 312 311 311 310 311 310 311 309 308 309 309 309 310 311 310 308 308 308 308 309 308 308 308 308 308 309 309 308 308 308 308 308 308 309 307 308 308 308 308 305 304 305 306 306 306 306
311 306 311 313 313 313 313 312 311 311 311 312 312 313 312 311 311 310 310 311 311 311 310 309 308 308 308 308 308 308 308 308 308 308 309 309 308 307 307 306 306 305 305 305 305 305 304 305 305 305 306 306 306 306
314 313 313 313 313 312 312 312 311 311 312 312 312 312 312 312 311 310 311 311 311 310 310 310 310 310 310 310 309 309 309 309 308 308 308 308 308 308 307 307 307 307 307 307 307 307 307 308 308 308 308 308 308 308
313 314 314 314 313 312 312 312 312 312 312 313 312 312 313 313 312 312 311 311 311 311 310 311 311 311 310 309 307 307 306 307 307 307 307 307 307 306 307 307 307 307 307 307 308 308 308 308 308 309 308 307 306 304
313 313 314 313 313 313 313 314 314 313 313 313 313 313 314 314 313 312 311 311 311 312 312 312 311 311 311 310 309 308 307 307 306 306 307 306 307 306 306 306 306 307 307 308 308 308 309 308 307 306 304 303 301 300

GFSWCAN_925_thetae_006.txt.gz
Theta_e
298 298 298 298 298 298 298 298 297 298 298 298 298 298 299 298 298 298 301 302 301 298 299 302 305 309 309 311 317 315 321 321 325 326 319 319 321 320 323 330 339 326 325 329 333 336 337 344 350 349 344 346 345 342
296 298 296 296 297 297 297 297 298 298 298 298 298 298 298 298 298 298 298 299 299 299 298 301 302 303 305 307 307 311 319 319 326 323 325 324 331 328 332 337 333 337 334 337 333 333 341 339 344 344 344 343 342 340
298 297 297 296 296 297 297 298 298 298 297 297 298 298 298 298 298 298 298 298 299 297 299 300 303 307 307 305 305 306 321 321 321 318 320 322 328 325 331 334 334 333 334 337 337 337 339 340 337 341 340 341 340 339
298 297 297 295 297 296 297 297 298 298 298 298 298 298 298 298 298 298 297 298 299 299 301 304 307 306 310 310 307 307 313 316 316 319 320 320 322 321 325 328 328 328 332 333 336 336 337 337 338 331 336 338 338 335
296 297 297 296 296 297 297 298 298 298 299 299 298 299 299 299 298 298 298 300 300 300 301 302 304 309 311 311 310 309 310 311 315 319 321 319 321 322 320 321 328 326 329 333 335 335 334 337 335 335 336 335 334 333
297 297 298 297 296 297 298 297 297 298 298 298 298 298 297 298 299 299 300 304 302 302 304 303 304 305 310 312 312 311 310 311 313 316 321 320 319 321 320 323 329 332 331 329 332 335 335 335 334 334 334 333 333 331
296 297 297 296 296 296 297 297 297 298 297 297 295 296 298 300 299 301 305 306 304 304 305 305 305 308 315 312 309 309 311 310 312 314 316 317 320 318 318 320 321 326 330 328 327 329 332 332 334 333 332 330 329 327
296 296 296 296 295 295 297 297 297 296 295 294 296 298 302 302 299 301 305 305 303 305 306 307 308 313 315 317 316 308 310 311 312 315 315 316 316 317 320 317 317 322 327 329 328 327 327 326 330 331 329 328 327 326
297 296 295 296 295 295 297 297 297 295 293 296 299 302 304 304 304 308 306 304 303 305 310 311 312 316 313 315 315 316 313 314 312 313 314 314 314 318 318 317 318 320 320 322 322 325 328 327 329 329 327 327 326 325
297 296 295 295 296 295 296 296 296 293 299 302 303 305 309 309 310 308 305 307 308 306 307 306 305 310 311 311 313 315 315 317 316 314 311 313 314 312 315 314 314 315 317 319 324 328 326 326 328 328 327 325 326 325
297 296 296 296 296 296 296 295 295 294 301 302 302 307 304 307 307 307 309 309 307 313 307 307 306 310 311 314 314 312 315 316 319 316 315 315 313 312 312 314 314 315 317 316 318 320 322 321 326 326 326 326 325 325
297 297 296 295 296 297 295 295 295 295 296 296 298 299 303 305 308 310 311 310 311 315 313 313 315 312 313 312 315 314 318 316 318 315 318 317 321 319 321 322 323 316 317 318 318 320 322 321 321 323 324 324 325 325
297 297 296 295 296 296 295 295 296 296 299 303 302 303 305 305 303 312 314 316 318 317 316 316 317 314 313 313 316 316 320 320 316 320 321 323 319 321 320 321 322 321 319 318 318 320 326 323 323 326 326 325 325 325
297 297 296 295 295 295 295 295 296 297 300 302 303 297 301 302 306 312 315 313 314 315 314 313 314 314 314 316 317 319 316 319 322 325 327 323 321 320 317 319 321 320 318 318 317 316 325 325 327 328 325 325 324 322
297 297 296 295 295 294 296 297 296 296 300 304 307 301 306 307 308 308 307 309 312 310 310 310 311 313 315 318 317 319 321 325 323 319 319 320 320 319 319 320 320 319 316 321 315 315 325 326 325 324 323 322 320 319
297 297 297 295 294 296 297 296 296 300 302 304 304 304 305 308 308 308 307 308 307 309 309 310 311 313 316 317 320 321 323 325 322 321 318 316 316 317 318 319 319 318 321 321 322 323 324 325 323 319 317 315 316 317
297 298 298 298 295 296 296 297 301 302 304 304 303 302 304 304 309 306 308 309 309 309 312 310 312 313 314 318 319 322 321 319 317 315 311 312 313 315 317 320 322 321 318 318 317 317 316 316 317 317 316 317 318 317
298 298 298 297 296 299 300 300 301 303 302 301 302 301 304 309 310 308 308 310 312 313 314 314 312 316 317 318 319 317 314 313 314 314 314 314 313 315 321 321 319 318 317 316 315 314 314 314 314 314 314 315 316 316
299 299 298 296 298 300 302 303 302 302 302 300 301 305 307 307 305 306 305 307 309 308 309 312 314 317 317 316 314 313 313 314 314 314 314 314 317 318 317 316 315 314 314 313 313 313 313 313 313 313 314 314 314 315
299 299 298 296 298 301 303 297 302 300 301 302 305 305 306 305 303 308 309 311 311 311 312 313 315 313 312 312 312 313 312 312 313 314 316 314 315 314 314 313 313 312 312 312 312 313 313 313 313 313 313 313 314 314
298 297 296 297 300 300 301 297 300 302 302 304 303 302 303 306 308 310 310 309 313 310 311 311 310 309 311 311 310 311 312 316 316 316 314 314 313 313 313 313 313 313 313 313 313 312 313 312 312 313 313 314 314 314
298 297 299 300 301 302 298 301 301 302 302 304 304 305 306 308 309 309 308 306 308 307 308 309 309 311 311 311 311 313 314 314 314 313 313 313 313 313 314 314 314 314 313 313 313 313 313 313 313 313 313 313 313 313
299 300 301 302 301 294 294 301 304 305 305 306 304 307 308 309 306 305 305 304 304 305 305 308 309 310 311 312 315 315 315 314 314 313 313 314 314 314 313 313 313 312 312 312 313 313 314 314 315 315 316 315 315 315
299 300 300 303 299 297 302 306 304 305 303 305 306 308 308 307 304 303 304 304 304 306 310 311 312 313 313 313 313 313 313 313 313 312 312 313 313 313 313 312 311 311 312 312 312 313 313 313 313 313 312 312 311 311
292 291 298 293 302 304 305 305 304 305 305 307 309 309 307 306 305 304 303 304 305 307 310 312 312 312 314 314 313 313 313 313 312 312 312 312 312 313 313 313 313 313 313 313 312 311 311 310 308 306 307 307 307 305
297 301 303 303 303 304 304 305 305 307 308 311 311 309 307 307 306 305 305 305 305 306 308 311 312 313 313 313 313 313 313 313 313 313 313 313 313 312 312 312 311 313 313 313 313 311 310 309 307 305 305 305 305 305
304 304 304 302 303 302 303 303 303 305 310 312 311 309 308 308 308 307 306 305 305 307 309 310 312 313 313 313 313 313 313 313 313 313 313 313 313 314 313 313 313 314 313 312 312 311 309 308 307 306 306 305 305 305
302 301 303 303 302 302 305 308 311 312 313 310 309 310 309 309 309 307 306 307 308 308 309 310 312 313 313 313 313 313 313 313 313 312 312 312 312 311 310 311 312 313 313 312 311 311 309 307 307 306 306 305 305 305
301 301 301 306 308 307 311 312 312 311 308 308 310 310 308 306 307 307 308 309 310 310 309 307 308 310 312 313 313 311 310 310 308 306 306 305 307 309 309 309 309 310 309 308 308 308 305 305 304 305 305 306 306 306
310 304 309 312 312 312 311 310 310 310 310 310 310 310 309 309 309 309 309 310 308 307 307 307 307 307 306 306 307 308 308 307 307 306 304 303 306 307 307 306 305 305 306 306 305 305 304 305 305 305 305 306 306 306
312 311 311 311 311 310 310 310 311 311 310 310 309 309 309 309 311 311 310 310 310 309 309 308 308 308 308 309 308 307 306 308 308 308 307 307 307 307 307 307 307 307 306 306 307 306 309 308 308 308 306 304 303 302
312 313 312 312 311 310 309 310 310 310 310 309 309 308 308 308 309 310 311 310 311 310 309 309 308 307 307 306 307 308 308 307 307 307 306 306 306 306 306 307 307 308 308 308 308 308 308 308 306 304 302 300 299 299
312 312 311 311 312 313 312 312 312 311 310 311 311 310 310 310 311 311 311 312 311 311 311 311 310 308 307 307 307 306 306 306 306 306 307 307 307 307 307 307 307 307 308 308 307 306 304 302 301 299 298 298 297 295

GFSWCAN_925_thetae_009.txt.gz
Theta_e
298 297 296 296 297 297 297 298 298 298 298 298 298 298 298 298 298 298 299 299 299 297 297 300 303 306 306 309 314 311 318 318 324 325 321 317 319 318 323 336 338 324 324 326 330 335 337 341 343 341 339 342 339 340
297 297 297 296 296 296 297 297 298 297 297 297 298 298 298 298 298 297 298 298 298 297 296 300 301 301 304 306 305 304 315 317 322 319 320 321 328 326 328 334 330 335 331 331 328 332 339 339 344 342 340 341 340 338
299 299 299 297 296 297 297 297 298 298 298 298 298 298 298 298 298 297 297 297 298 295 297 298 303 306 305 303 304 303 312 316 318 315 318 319 321 322 329 330 332 329 331 336 333 337 338 338 336 337 339 339 338 336
297 297 296 297 296 297 297 297 298 298 298 298 298 298 299 299 298 298 297 297 297 296 301 301 304 304 306 307 304 303 308 313 314 315 319 318 318 317 322 324 326 325 330 331 333 335 335 337 334 332 338 337 336 332
297 297 297 297 297 296 297 297 298 298 298 298 298 299 299 299 299 299 299 299 299 298 300 300 301 307 308 308 306 304 305 309 312 315 319 321 315 318 318 318 324 323 326 331 333 331 331 333 334 334 335 335 331 330
298 298 297 297 297 296 297 297 298 298 298 298 298 298 297 299 300 300 299 303 301 300 302 302 301 302 307 310 306 304 304 307 311 313 317 317 318 320 322 319 323 326 327 325 332 332 331 332 332 333 333 333 330 328
296 297 296 297 297 296 295 297 297 297 297 297 295 295 297 300 300 300 303 304 303 301 304 304 303 304 310 311 307 306 308 308 310 312 314 316 321 322 321 322 319 325 328 329 330 330 334 333 331 332 331 328 327 326
297 297 297 296 296 296 295 296 297 297 296 294 294 297 300 302 301 301 305 305 303 303 305 306 306 311 312 312 313 305 308 307 308 312 312 313 314 318 321 319 317 315 322 327 327 326 326 326 328 331 327 327 325 323
297 297 297 296 296 296 295 296 297 296 293 296 299 300 303 303 303 306 304 304 303 304 308 309 311 315 309 311 312 316 310 311 308 312 312 312 313 319 319 317 317 318 326 324 323 324 327 327 330 327 326 327 325 323
297 297 297 296 295 296 296 297 296 293 299 302 304 305 307 306 309 305 305 306 307 306 305 304 302 310 308 310 311 312 312 315 316 313 309 312 312 311 318 316 313 314 319 316 322 326 326 326 326 326 325 324 324 323
297 297 297 296 295 296 297 296 295 294 299 300 299 303 301 307 307 306 309 309 308 313 306 304 304 307 307 313 312 310 313 314 319 317 313 313 317 321 319 319 318 317 313 313 317 318 321 321 323 324 323 323 323 323
297 297 297 296 295 296 297 295 295 295 295 298 298 299 302 302 307 309 311 310 310 314 312 312 313 307 310 309 313 312 317 314 318 314 320 320 323 317 317 318 318 317 318 317 315 317 320 320 320 323 322 322 323 324
297 297 297 296 295 296 296 295 296 296 299 301 300 301 303 303 302 311 314 316 317 317 316 315 316 311 310 311 313 314 318 318 316 319 322 324 321 317 316 316 318 318 319 317 316 317 320 321 322 324 323 324 324 324
297 297 297 296 295 295 295 295 296 297 300 300 301 295 300 300 304 308 312 311 312 315 314 312 312 312 311 313 315 320 317 317 320 324 322 319 316 315 315 316 317 318 318 316 318 318 322 320 321 325 324 324 323 322
297 297 296 296 295 294 295 296 296 297 299 302 304 300 304 305 306 307 306 306 309 307 308 309 309 310 312 316 315 318 320 323 322 320 319 319 316 315 314 315 316 317 318 318 317 315 321 322 321 320 322 323 324 322
297 297 297 295 295 294 296 296 296 298 300 301 302 303 303 305 307 308 306 307 305 305 306 306 308 311 314 316 318 319 321 324 322 319 317 315 312 311 312 313 315 318 317 317 316 322 322 322 320 316 320 319 317 317
297 297 298 298 296 295 296 297 299 299 301 303 303 300 300 301 303 305 305 308 307 307 310 307 308 313 314 316 317 320 321 318 315 314 314 311 313 314 312 314 320 317 315 316 318 318 318 319 319 318 316 316 315 315
297 298 297 296 296 299 299 298 300 302 302 300 301 300 301 305 306 306 304 304 307 310 312 312 311 314 314 317 317 315 311 311 312 313 313 313 313 314 314 319 317 315 313 315 315 316 317 317 316 317 317 316 316 315
298 298 297 296 298 300 300 302 301 300 300 298 299 302 304 304 302 303 304 308 307 305 306 309 312 315 316 314 313 313 312 312 313 313 313 313 315 315 315 314 313 313 313 314 314 314 314 314 315 316 316 316 315 315
299 298 297 296 298 300 301 296 300 298 300 299 301 301 302 303 305 307 309 310 310 311 312 313 314 312 311 311 311 311 311 311 312 313 315 314 314 313 313 313 313 313 313 313 313 313 313 313 314 314 315 315 315 314
298 296 296 297 300 299 299 295 297 299 299 301 300 303 303 306 308 309 309 306 311 309 310 309 309 308 308 309 310 310 311 313 314 314 313 314 313 313 313 313 313 313 313 313 313 313 313 313 313 314 314 314 314 314
297 297 299 299 300 298 295 298 299 299 300 301 304 305 307 308 308 306 305 306 307 307 307 308 307 307 309 310 311 313 314 313 313 313 314 314 314 314 313 313 313 313 313 313 313 312 312 313 313 313 313 313 313 314
299 300 300 300 299 291 294 300 302 302 303 305 305 307 308 307 305 303 306 305 304 304 305 305 306 308 310 313 313 313 313 313 313 314 314 313 313 312 312 312 312 312 312 312 312 313 313 313 313 313 314 315 315 315
299 299 299 300 299 296 300 305 304 304 304 305 307 307 306 306 304 304 305 305 305 306 310 312 313 313 313 313 313 313 312 312 313 313 313 313 312 312 312 312 312 312 313 313 314 314 315 314 314 314 313 312 311 311
290 292 296 292 301 303 304 305 304 304 305 307 308 307 306 305 305 304 303 306 306 307 310 313 313 313 313 313 313 313 312 312 312 312 312 312 312 312 312 313 312 312 312 310 309 307 307 308 307 307 305 304 304 306
295 301 303 302 301 303 304 305 304 307 308 311 309 307 306 307 307 306 306 306 306 306 308 310 313 313 313 313 313 313 313 313 313 312 312 313 313 312 311 312 312 312 311 310 308 305 304 304 304 304 304 304 304 304
304 304 304 301 303 303 303 303 303 305 311 311 309 308 307 308 307 307 306 305 305 306 308 311 312 313 313 313 313 313 313 313 313 313 313 313 313 313 313 312 313 313 311 309 308 307 306 306 305 305 304 304 305 305
302 301 303 303 302 302 305 307 309 311 312 308 310 309 308 307 307 306 305 306 307 308 310 313 313 313 313 313 313 313 313 313 312 311 312 312 313 313 312 311 311 310 310 309 309 308 306 306 305 306 305 304 304 304
301 302 301 305 306 306 310 311 310 308 306 307 309 308 307 305 305 306 307 308 308 308 311 311 312 313 313 312 312 310 309 310 309 305 305 304 306 308 310 311 310 309 309 308 306 305 304 304 304 304 305 306 305 305
310 303 309 309 310 310 310 309 309 308 308 307 307 307 306 307 309 309 308 307 306 305 306 308 308 310 308 309 307 309 309 307 307 307 303 303 307 307 306 304 305 304 304 304 304 304 304 304 305 306 306 305 304 302
310 310 311 311 311 311 310 309 310 309 308 308 307 306 307 306 308 308 307 306 306 306 306 306 306 306 306 306 306 305 305 306 307 307 306 306 306 306 306 306 306 306 306 307 306 308 307 307 305 303 302 300 299 298
310 311 311 311 311 309 308 308 308 308 308 308 308 307 307 308 309 309 308 308 308 308 308 308 307 306 307 307 307 307 307 306 306 307 307 307 306 307 307 307 308 308 307 308 308 307 307 305 302 300 298 297 296 295
309 309 309 310 311 311 310 310 310 310 309 309 308 307 307 308 310 309 310 309 309 309 308 307 307 307 306 307 307 306 305 306 306 306 306 306 307 307 307 307 308 308 308 307 306 304 302 301 299 298 296 295 294 294

GFSWCAN_925_thetae_012.txt.gz
Theta_e
298 298 297 298 297 297 297 297 297 297 297 298 298 298 298 298 298 297 298 297 298 295 295 299 302 304 304 306 311 309 314 315 318 324 321 317 317 318 325 333 335 321 322 324 327 332 333 339 341 338 333 342 338 340
298 297 297 298 297 297 297 297 297 297 297 298 298 298 298 298 298 297 297 297 297 296 296 298 300 301 302 304 303 302 312 314 319 318 318 319 325 323 326 332 328 333 327 323 324 327 333 339 342 339 338 339 338 338
297 299 299 299 297 296 297 297 297 298 298 298 298 298 298 298 298 298 297 297 298 293 295 296 301 304 304 302 302 303 304 313 315 311 315 318 319 319 327 328 331 328 329 334 332 333 337 338 335 333 336 338 337 334
298 297 296 296 297 297 297 297 297 298 297 298 298 298 298 299 298 298 298 297 297 294 299 300 302 303 304 304 303 302 305 310 311 312 315 316 317 314 320 321 323 324 329 330 331 332 333 333 332 333 336 334 332 331
297 297 298 298 297 297 297 297 297 298 298 298 298 298 299 299 299 299 299 299 298 298 299 298 300 305 306 306 303 302 302 302 306 309 315 319 315 315 316 314 320 322 326 330 333 329 330 330 332 333 333 333 330 328
296 297 298 298 297 297 297 297 297 297 298 298 298 298 298 298 300 300 299 302 300 299 299 301 300 301 305 306 303 301 300 302 306 310 311 313 313 319 325 320 318 323 324 321 329 328 328 329 332 332 332 331 329 326
297 296 296 296 297 297 296 296 296 297 297 297 296 295 296 299 300 300 302 303 301 300 300 303 302 303 306 309 303 302 303 304 308 310 312 313 316 318 319 319 319 318 319 328 328 328 331 333 331 331 329 328 326 324
298 298 297 296 296 296 296 296 296 297 297 294 294 295 299 301 302 302 305 302 302 302 304 304 305 307 310 310 312 304 305 305 306 309 309 311 313 317 319 316 316 316 319 322 328 327 325 325 328 328 326 325 324 323
297 298 297 297 296 296 296 296 296 297 294 296 300 300 302 303 303 306 303 304 303 303 306 308 311 311 306 308 308 311 307 309 306 310 310 311 312 316 317 319 317 316 318 320 326 325 326 326 329 327 326 324 323 322
297 297 297 297 296 295 296 296 296 294 295 301 303 304 307 304 308 304 304 306 305 306 304 303 300 307 306 309 310 310 309 312 315 311 307 310 311 311 317 318 316 316 314 315 321 323 324 325 325 325 325 324 323 322
297 297 297 298 296 295 296 296 295 294 298 300 299 302 301 306 306 305 308 309 308 310 306 302 302 306 305 312 311 308 312 311 317 316 314 312 317 319 316 317 315 315 316 316 312 314 316 320 322 324 324 323 322 321
297 297 297 297 296 295 296 296 295 295 296 298 298 299 301 301 306 308 310 310 310 313 311 311 312 304 307 308 311 310 315 312 317 315 319 318 322 319 315 316 316 314 315 318 317 316 314 318 319 321 323 322 322 323
298 297 297 297 296 295 296 295 295 296 299 301 299 301 301 300 301 309 313 314 315 313 315 314 314 309 309 309 312 311 316 316 313 318 321 322 319 318 313 314 314 315 316 317 317 318 315 316 319 320 321 323 322 322
298 297 297 297 295 294 295 295 296 297 299 299 299 296 299 299 303 306 310 310 313 314 314 312 312 310 308 311 313 319 316 315 319 323 322 319 318 317 312 313 312 314 315 316 317 318 315 317 319 322 323 322 322 321
298 297 297 296 295 294 294 295 296 296 298 301 302 299 303 304 303 306 306 306 306 305 306 309 308 307 310 313 313 318 320 321 322 320 318 317 316 316 313 312 312 313 315 317 317 316 317 320 320 319 322 322 323 321
297 297 297 296 295 294 295 296 296 297 299 300 301 303 301 303 304 307 304 308 304 304 304 304 307 309 314 315 317 319 320 322 320 317 315 314 314 312 311 312 312 314 317 316 316 315 318 318 317 317 319 320 320 320
297 296 296 296 295 295 296 297 299 298 300 302 301 298 298 299 300 303 303 306 306 308 308 306 307 312 312 315 317 319 320 316 313 312 311 312 313 313 314 314 317 316 315 317 318 317 315 316 317 316 315 315 316 316
297 297 297 296 295 296 297 297 298 301 303 299 301 301 300 304 307 304 303 302 305 305 309 311 310 312 314 315 317 315 312 310 309 311 312 312 312 313 313 316 314 314 315 317 317 316 316 317 317 316 315 315 315 315
297 297 296 297 298 300 299 300 299 300 300 300 302 302 303 303 301 302 301 306 308 305 304 305 309 312 313 311 312 311 311 310 311 312 312 312 315 315 314 314 314 314 314 314 315 315 316 316 316 316 316 315 315 315
298 297 296 296 298 300 300 294 298 297 300 298 299 299 299 300 303 306 308 308 307 311 311 312 313 311 311 310 309 310 310 310 311 313 314 313 313 313 313 313 313 313 313 314 314 314 315 315 315 315 315 315 315 315
297 296 296 298 300 299 298 295 296 298 298 300 300 303 303 305 308 308 307 305 309 308 309 308 308 308 307 307 307 309 310 311 313 313 314 314 313 313 313 313 313 313 313 314 314 313 314 314 314 314 314 314 314 314
296 298 299 299 299 296 294 296 297 297 299 299 302 305 307 308 306 305 303 306 306 307 307 308 307 307 307 307 309 313 313 314 313 313 313 313 313 313 313 313 313 312 312 312 313 313 313 313 313 314 314 314 315 314
299 300 300 299 297 291 295 299 300 300 302 305 305 307 307 306 305 303 307 305 305 304 304 305 305 306 308 312 313 313 313 313 313 313 312 312 312 312 312 312 312 312 312 312 313 313 313 313 313 313 314 314 315 314
297 298 297 296 295 296 300 303 302 304 303 306 306 307 306 306 305 304 304 305 305 306 310 312 313 313 312 312 312 312 312 313 312 312 312 312 312 312 312 312 312 312 313 314 314 314 314 314 315 315 315 314 314 311
291 294 295 291 301 302 303 303 303 304 306 308 307 307 306 305 305 304 303 305 307 308 311 313 313 313 313 313 312 312 312 312 312 312 312 312 312 312 311 311 310 310 311 311 309 309 308 308 308 309 309 309 307 306
294 301 303 301 302 302 304 305 304 307 308 310 308 307 306 307 307 305 306 307 306 306 308 312 313 313 313 313 313 313 312 312 313 312 312 312 312 312 311 310 310 308 307 306 304 304 304 303 303 304 303 304 304 304
304 303 303 302 303 303 303 303 304 305 311 311 309 308 307 308 307 308 307 306 306 306 310 313 313 313 313 313 312 313 313 313 313 312 312 312 312 312 312 311 311 310 307 305 305 305 304 304 304 304 303 303 303 303
302 301 304 303 302 302 305 307 308 311 311 309 309 309 308 307 308 307 306 307 308 311 312 313 313 313 313 312 312 311 312 312 312 313 312 312 312 311 311 311 310 309 308 308 306 305 305 305 305 304 304 304 303 303
301 301 302 305 306 306 308 310 309 308 307 308 309 308 308 305 305 306 307 308 310 313 312 312 312 312 311 310 310 310 308 307 308 305 305 305 307 308 310 310 309 308 307 305 305 304 305 304 305 305 305 304 303 303
308 303 307 309 310 311 309 307 307 306 304 305 306 306 305 305 307 306 307 309 310 311 310 311 311 309 308 308 307 307 306 306 306 306 304 304 306 306 304 305 304 305 305 304 303 303 303 304 305 305 304 302 301 299
310 310 310 310 311 310 308 307 307 307 306 306 306 306 306 305 306 305 305 306 306 306 307 306 306 307 308 307 307 305 305 306 306 306 306 306 306 306 306 306 306 305 305 306 306 305 305 304 303 302 301 298 297 296
309 310 309 310 310 309 308 308 307 307 307 307 306 306 306 307 308 307 306 305 306 306 306 306 306 306 306 306 306 306 307 306 306 306 306 307 307 307 307 307 307 307 307 307 307 305 305 303 301 299 297 296 295 294
309 309 310 310 310 310 309 309 309 309 308 308 308 306 306 307 309 308 309 307 308 307 306 306 307 307 307 307 307 306 306 305 305 305 306 306 306 307 307 307 307 307 307 306 305 304 302 301 298 297 296 295 294 293

GFSWCAN_925_thetae_015.txt.gz
Theta_e
298 298 298 297 298 298 297 298 296 297 298 298 299 298 299 299 298 297 298 297 299 301 302 302 305 308 309 311 314 313 317 321 325 328 326 324 324 325 332 334 332 330 330 328 333 337 340 342 345 343 348 349 346 346
299 297 297 297 299 298 296 297 296 297 298 298 298 298 298 298 298 298 297 297 297 299 301 298 300 301 302 304 308 308 317 320 325 325 325 326 330 330 335 336 334 338 334 331 332 331 341 341 345 342 341 343 345 346
298 297 298 298 299 297 297 296 296 297 297 297 298 298 298 298 298 298 298 297 297 300 302 300 305 303 302 300 302 308 310 317 321 318 322 324 328 325 337 336 336 336 336 345 343 340 342 341 341 340 341 344 343 343
297 298 298 296 297 297 297 297 296 297 297 298 298 299 298 298 299 298 299 298 297 298 304 306 302 304 303 303 302 302 307 312 316 319 323 322 323 320 326 327 331 331 334 340 342 340 339 340 339 339 340 338 339 339
296 296 298 297 298 298 298 297 296 296 297 298 298 298 298 299 299 299 299 299 298 300 305 306 304 304 304 304 303 303 303 306 309 313 322 324 321 321 322 323 326 329 334 340 341 337 340 339 337 337 339 338 336 336
297 296 297 298 298 297 297 297 296 296 297 298 298 298 298 297 299 300 304 301 300 298 303 308 305 306 306 305 305 304 304 305 308 315 318 318 319 324 328 329 325 326 324 330 335 333 336 336 337 336 337 336 334 334
296 296 297 296 296 297 296 296 295 295 297 297 298 297 296 298 299 301 305 303 301 299 304 308 312 309 308 308 306 306 305 308 310 315 317 316 319 319 325 327 325 324 322 323 328 332 335 334 336 335 335 333 330 331
297 296 297 297 297 296 296 296 295 295 297 297 295 295 297 301 301 302 304 301 302 302 305 308 313 314 311 316 316 309 311 310 313 315 315 316 318 321 321 322 323 322 321 322 323 329 330 330 332 333 332 332 333 332
297 296 298 297 297 296 295 295 296 296 295 295 300 300 302 303 304 304 303 303 302 303 307 308 314 318 311 314 315 318 313 316 312 315 315 316 316 321 320 324 323 323 323 321 321 326 328 330 332 333 332 329 332 332
297 297 297 297 297 297 294 295 296 294 294 301 302 304 308 305 307 303 304 305 304 307 306 308 306 313 311 315 316 318 317 321 322 317 313 316 315 320 321 320 320 321 322 323 324 329 328 327 329 333 333 332 332 331
298 298 297 297 297 296 294 295 295 294 297 299 302 306 301 305 306 306 310 310 309 310 308 309 309 312 310 318 318 315 319 319 322 321 318 319 320 321 318 318 318 318 319 321 323 323 322 320 322 325 330 331 330 329
298 298 297 297 297 296 294 296 295 295 298 298 298 299 302 305 308 310 311 311 312 314 313 313 314 311 313 313 318 317 319 319 320 319 322 320 322 319 318 317 318 318 317 319 320 323 322 323 320 321 325 330 330 329
298 297 297 297 296 295 294 295 295 296 299 299 300 304 306 306 308 310 312 313 315 315 316 316 316 316 315 315 317 318 320 320 317 322 322 323 320 318 318 317 317 316 316 317 319 321 322 323 321 320 324 327 329 328
298 297 297 297 296 294 295 295 295 297 299 303 304 301 307 307 308 310 313 313 313 314 314 312 314 316 315 319 319 319 318 319 321 322 323 318 317 316 316 316 316 317 316 317 320 320 321 322 321 321 324 325 326 327
298 298 297 297 295 294 294 295 296 296 299 305 305 305 306 306 306 306 307 309 309 309 311 313 314 314 318 318 319 319 320 320 321 319 314 316 316 315 316 316 316 317 317 318 318 319 320 321 322 325 325 326 326 326
298 297 297 296 295 294 294 296 296 297 300 303 304 306 305 306 307 307 310 310 309 312 310 312 314 315 314 315 317 319 320 321 318 317 316 315 315 315 315 314 314 315 317 318 317 318 320 323 322 321 322 323 324 324
297 297 297 296 295 295 295 297 298 300 302 304 305 303 303 304 305 307 310 311 308 312 314 313 315 314 313 316 317 318 320 317 314 313 313 315 314 313 314 314 314 316 317 318 318 319 318 318 319 320 319 320 320 321
297 297 295 295 295 295 296 297 300 303 304 303 306 303 306 308 310 310 310 310 312 313 313 315 314 314 314 314 316 317 314 313 312 313 313 313 312 313 314 315 315 316 318 318 318 319 320 318 317 316 316 316 317 316
296 296 297 296 297 299 301 301 300 303 303 303 305 304 306 307 306 306 307 309 309 308 310 313 312 314 314 315 315 313 312 312 312 312 312 312 314 315 314 314 315 315 316 317 318 317 316 317 317 316 316 315 316 315
296 296 296 297 298 301 302 300 298 301 303 304 305 305 306 307 307 309 309 308 307 311 312 312 313 315 314 312 310 310 310 309 311 312 315 314 313 314 314 314 314 315 315 315 315 315 315 315 315 315 315 315 314 314
296 296 296 298 300 299 301 299 301 302 304 306 304 305 306 308 309 308 308 305 309 310 311 311 311 310 309 308 308 308 308 310 313 314 315 314 313 314 314 314 314 315 315 315 315 314 314 315 315 314 315 315 314 313
296 298 299 299 299 297 299 297 301 302 304 304 305 306 308 308 307 306 304 306 308 309 309 309 309 308 307 308 308 313 313 313 313 313 313 313 313 313 313 313 313 313 314 314 314 314 314 314 314 314 314 313 313 314
299 300 300 298 300 299 300 300 304 303 305 306 306 307 307 306 306 304 307 306 306 305 305 305 305 306 306 311 313 313 313 313 312 312 312 312 312 312 312 313 313 314 315 314 314 314 314 314 314 314 314 314 313 311
297 299 300 301 301 302 303 304 303 304 304 306 307 308 307 306 305 305 305 305 305 306 310 311 313 313 313 312 312 312 312 313 313 313 313 313 313 312 312 312 312 313 313 313 313 313 313 314 314 314 313 311 307 305
296 298 300 298 304 304 304 305 305 305 307 309 307 307 307 305 306 305 304 306 308 308 313 313 313 313 313 313 312 312 312 313 313 312 312 312 312 311 309 308 309 310 313 313 313 312 312 312 312 312 311 307 305 305
300 303 305 303 303 303 305 306 305 308 310 309 309 307 307 308 308 306 307 308 307 307 310 313 313 313 314 313 313 313 312 313 312 312 311 311 311 311 311 311 310 307 306 307 306 306 306 306 306 306 306 305 305 305
304 305 304 302 304 304 304 304 305 307 311 311 309 309 308 311 308 307 307 307 307 308 312 313 313 313 313 313 312 312 312 312 312 311 311 311 310 310 310 309 307 306 306 305 305 305 305 305 305 305 305 305 305 305
303 302 304 303 303 303 306 308 310 312 312 311 310 309 310 310 309 308 308 306 310 313 313 312 312 312 311 311 311 312 310 311 311 311 310 310 309 309 308 308 307 306 306 306 306 306 306 306 306 306 306 306 306 306
303 302 303 307 307 307 310 311 310 310 310 310 309 309 309 308 308 308 307 309 312 312 313 312 310 309 309 308 308 308 310 311 310 310 310 310 309 308 307 307 306 305 305 305 305 305 306 306 307 306 306 305 303 303
308 303 309 311 311 312 311 310 309 309 308 308 309 309 309 308 306 306 308 311 311 311 310 309 309 309 309 307 306 306 305 307 309 308 308 308 307 306 306 305 305 305 304 304 304 303 304 305 305 304 303 303 302 301
310 310 312 312 312 311 310 309 309 309 309 309 309 309 308 308 307 305 306 307 308 307 309 310 309 308 308 307 307 307 307 305 305 306 306 306 306 306 306 305 304 304 305 306 305 306 305 305 305 304 302 301 300 299
312 312 312 313 312 311 311 311 311 310 310 309 309 308 309 310 310 309 305 305 307 308 306 307 307 307 306 306 306 306 306 306 306 306 306 307 307 307 307 307 307 307 307 306 306 305 305 304 303 302 300 299 298 297
312 312 312 312 313 313 313 313 312 311 311 310 311 311 311 311 311 311 307 306 307 308 307 307 306 306 306 306 306 306 306 306 306 306 306 306 307 307 307 307 307 306 306 305 304 304 303 302 301 300 298 297 296 296

GFSWCAN_925_thetae_021.txt.gz
Theta_e
300 298 297 298 297 297 299 297 297 296 298 299 299 299 300 300 299 301 305 303 306 311 311 309 311 315 315 317 319 321 320 321 324 324 324 325 326 325 326 328 331 334 331 330 327 328 329 337 340 340 356 353 354 353
300 297 297 298 297 298 300 298 297 296 298 298 299 299 300 299 299 301 306 304 303 304 309 307 307 308 311 314 317 319 320 325 319 322 324 325 327 327 331 329 328 336 331 334 331 329 346 344 351 351 351 353 354 353
301 298 297 298 298 297 298 297 298 297 297 299 299 299 299 299 299 300 304 305 306 310 311 310 312 309 306 307 310 316 316 326 326 326 330 328 328 329 330 330 330 333 331 336 333 333 342 344 346 349 349 351 351 350
301 297 297 297 298 298 297 298 298 298 297 297 298 299 299 299 299 299 305 306 307 309 312 315 311 312 311 309 308 310 313 319 322 323 323 326 326 327 330 330 334 335 338 333 333 343 340 345 345 346 347 348 349 349
299 297 297 297 296 298 297 298 298 298 297 297 298 299 299 298 298 301 305 307 307 309 314 315 312 312 311 310 309 311 311 315 319 320 321 323 323 327 327 326 329 330 336 341 341 342 343 345 343 343 345 346 347 346
298 297 297 297 296 296 298 297 297 298 297 296 296 298 297 296 298 304 312 308 308 307 312 316 315 314 313 312 312 313 313 315 316 318 319 320 324 325 325 327 326 329 332 331 334 335 338 340 340 340 342 342 343 343
297 297 297 297 296 297 297 297 297 297 296 295 295 296 295 296 301 307 310 307 305 307 313 316 316 315 315 315 316 317 316 316 316 317 318 319 320 321 323 325 331 330 328 329 329 330 336 334 337 337 339 339 338 339
297 296 296 297 297 297 297 297 296 296 296 295 295 295 298 299 303 307 308 305 305 308 312 317 318 317 316 317 317 316 316 316 316 316 318 318 318 320 321 320 321 325 326 326 327 328 329 331 332 334 335 337 338 339
297 296 296 296 297 298 298 297 295 295 295 295 297 300 304 306 309 308 306 304 306 310 315 315 318 321 316 318 319 318 317 318 317 318 318 318 319 319 319 320 319 321 324 324 325 326 327 327 331 331 331 334 337 336
298 297 296 297 297 298 297 297 295 295 295 295 302 308 310 309 306 305 309 311 311 311 313 316 316 318 316 317 318 320 318 318 319 319 319 319 320 319 318 319 323 324 323 323 324 325 324 328 330 326 327 329 333 334
299 297 298 298 298 298 297 297 294 294 297 304 308 309 308 306 309 310 312 314 314 316 314 316 316 318 316 320 321 320 323 323 323 323 320 320 321 321 319 321 321 321 322 323 323 324 324 326 327 327 325 324 325 333
299 298 298 298 298 298 298 296 294 300 305 304 305 306 309 309 311 312 314 314 314 316 315 316 316 317 319 318 323 322 319 319 319 321 321 321 329 326 323 322 320 321 321 321 321 323 323 323 324 325 325 324 325 329
300 298 298 298 298 298 298 295 295 299 301 305 307 310 309 311 310 312 314 315 316 316 319 319 320 317 319 319 321 321 321 320 319 320 322 327 324 321 321 320 319 320 320 321 321 321 322 322 323 324 325 323 324 326
300 299 298 298 298 298 296 295 294 299 303 308 309 309 311 311 311 313 315 316 317 317 317 316 316 317 319 322 322 322 320 321 323 323 325 323 322 320 320 319 319 319 320 321 321 321 322 323 324 324 325 324 322 328
299 298 298 298 298 297 295 295 295 301 306 307 307 310 308 311 311 312 312 314 315 315 315 315 315 316 318 320 320 320 321 322 322 326 323 320 321 320 320 320 318 318 318 319 320 321 322 323 325 326 326 324 323 326
299 298 299 298 297 295 294 295 298 303 306 308 309 310 311 311 312 312 313 315 314 314 314 315 316 317 317 317 318 319 319 321 324 322 320 319 319 318 319 319 318 315 316 316 318 320 322 323 325 327 327 326 326 329
298 300 299 298 295 294 296 300 302 306 308 309 310 309 310 311 312 313 316 316 313 313 315 314 316 317 316 316 317 318 321 323 318 317 316 319 318 317 317 316 315 315 316 317 318 321 322 326 328 329 330 330 329 330
302 300 298 296 296 297 300 303 306 307 309 309 309 311 311 313 315 316 315 314 313 313 314 314 316 318 317 316 317 319 318 317 316 316 316 316 312 314 315 316 315 315 316 318 320 322 323 324 324 324 324 322 320 319
300 299 295 296 300 302 305 305 306 309 309 309 311 312 313 314 313 312 312 312 312 312 313 313 315 315 315 315 318 318 317 316 317 315 313 312 314 315 316 317 318 319 320 321 321 322 321 321 321 321 321 320 318 316
297 295 295 298 300 305 306 307 307 309 309 311 311 311 310 311 311 311 311 311 312 311 314 314 315 315 318 317 316 316 315 315 312 313 314 315 315 315 316 317 318 318 319 319 320 321 321 319 320 319 318 317 317 317
299 297 298 300 304 305 306 306 308 308 309 309 310 310 310 310 311 311 310 310 311 313 315 314 315 314 314 314 313 311 310 311 313 313 315 316 315 315 316 316 317 317 317 317 317 317 317 317 317 317 316 316 314 314
301 300 303 302 305 305 307 306 308 308 309 309 309 310 311 312 311 310 307 309 312 313 312 312 312 311 313 311 309 310 312 314 313 314 314 315 316 316 315 315 315 315 315 315 315 315 315 315 314 314 314 314 314 314
301 302 304 303 304 306 306 306 308 308 309 309 309 310 310 310 308 306 309 308 308 307 307 307 307 307 308 308 312 313 313 313 314 314 314 315 316 316 316 315 316 316 316 315 315 314 314 313 313 313 312 312 312 313
301 304 305 305 304 306 306 307 307 307 307 309 309 311 309 309 306 307 307 307 308 307 309 310 311 314 313 314 314 314 314 313 314 314 314 315 316 316 315 315 315 316 316 315 316 314 315 314 313 312 312 311 311 310
304 304 305 303 307 307 307 308 307 307 309 309 310 310 309 306 307 306 308 309 309 311 314 314 314 314 315 314 314 314 315 315 315 316 315 315 317 316 316 316 316 316 315 315 316 317 316 314 312 311 310 309 308 309
305 306 308 308 309 308 308 309 307 309 311 311 310 309 308 310 309 308 309 309 309 312 314 315 315 315 315 315 315 316 315 315 316 317 316 314 314 314 315 315 315 316 316 316 315 313 312 312 311 309 308 308 308 309
309 308 307 306 306 305 306 306 307 309 313 313 311 311 313 312 310 311 310 310 312 313 314 315 315 314 315 316 316 315 314 315 315 314 313 312 312 312 311 311 310 308 308 308 309 309 309 308 308 309 310 310 310 310
305 304 306 305 305 306 310 311 312 314 314 313 312 314 312 310 311 310 310 310 313 313 313 314 313 314 316 315 315 315 315 315 314 312 311 310 309 308 308 308 308 308 308 308 309 310 310 310 310 310 310 310 310 309
306 305 306 309 310 310 312 312 313 312 312 313 313 312 311 310 309 310 312 313 313 313 314 314 314 315 315 314 314 313 313 313 312 311 310 311 310 310 310 309 309 309 309 309 309 309 309 310 310 310 310 310 309 309
310 307 310 313 313 313 313 312 313 312 311 311 310 310 310 310 312 313 313 315 315 315 314 314 314 313 313 313 312 312 310 310 310 311 312 312 311 310 310 310 310 310 310 310 309 307 306 308 307 309 309 309 309 308
313 312 313 312 313 313 312 311 311 311 311 311 311 311 312 312 312 311 310 310 310 310 310 310 309 310 309 309 309 310 311 310 310 310 311 311 311 311 311 310 310 310 310 310 310 310 310 310 310 310 310 310 309 307
312 312 313 314 313 312 311 311 311 310 310 311 311 311 311 311 311 310 310 311 311 311 310 310 311 311 311 310 310 309 309 310 310 311 312 311 311 311 311 311 311 311 311 311 310 311 310 310 309 309 308 308 307 305
313 313 313 313 313 313 312 313 312 313 313 312 313 313 313 313 312 311 312 311 310 310 310 310 310 310 311 310 310 310 310 308 307 307 307 308 308 309 310 311 310 310 310 310 310 309 309 309 308 308 306 305 304 303

GFSWCAN_925_thetae_024.txt.gz
Theta_e
302 302 300 297 300 298 298 300 298 297 297 300 300 299 300 301 299 302 308 307 306 311 313 312 312 315 318 319 321 322 324 324 324 322 323 324 325 327 328 332 332 333 332 330 332 332 330 327 337 347 357 354 353 352
301 302 300 297 298 298 298 300 299 298 296 299 300 300 300 300 299 301 309 308 307 306 309 308 308 309 311 315 318 320 322 323 325 323 325 323 324 327 336 330 331 333 336 335 334 333 349 349 354 353 352 353 353 353
301 301 300 297 298 298 298 297 298 298 298 297 299 300 299 299 299 300 305 308 309 312 313 311 312 311 308 308 312 318 321 324 328 329 329 330 328 327 332 330 332 331 334 336 337 339 346 348 347 347 349 351 349 348
301 301 301 298 297 298 298 298 298 299 298 297 298 299 300 299 298 299 305 308 309 311 313 316 314 314 312 310 309 311 314 316 320 325 325 327 330 329 330 332 332 336 336 336 336 343 347 346 345 344 345 347 349 349
301 300 301 297 297 297 298 298 298 298 298 297 297 297 297 296 296 300 306 308 309 310 316 316 315 313 313 312 311 310 312 317 319 319 319 321 322 323 326 327 329 335 337 345 348 342 346 345 343 341 343 343 345 346
300 300 299 298 297 297 297 297 298 297 297 296 295 295 295 295 297 305 314 310 309 309 313 317 317 316 314 313 312 312 314 316 316 318 319 320 321 326 326 327 327 328 331 334 337 333 335 340 337 338 339 341 343 343
300 299 298 298 297 297 297 297 297 297 296 295 295 295 295 295 300 308 311 309 306 308 314 317 316 316 315 314 314 315 315 316 316 317 318 319 320 321 322 325 330 329 330 330 330 330 333 335 335 334 335 337 340 340
298 298 298 298 298 297 297 297 297 296 295 295 295 295 297 299 302 307 308 307 306 310 313 318 320 318 316 316 317 316 317 317 316 317 317 318 318 321 321 322 322 324 326 327 326 327 329 329 332 333 332 334 341 341
298 298 298 298 298 297 297 298 297 295 294 295 295 300 304 306 309 310 308 306 307 311 316 315 321 323 317 318 319 319 317 318 317 318 318 318 320 320 320 324 321 321 324 324 324 324 326 327 328 331 330 332 335 339
300 298 298 297 298 297 298 298 297 295 294 294 301 307 311 310 309 306 310 313 312 313 314 316 317 324 319 318 320 320 320 318 320 319 318 319 319 321 320 320 322 324 324 322 323 323 325 326 329 331 328 329 329 331
301 299 298 297 297 297 299 298 296 294 295 303 308 311 310 307 309 311 313 314 314 315 314 314 317 318 318 319 324 323 324 322 323 321 321 323 321 324 322 324 323 322 321 321 321 322 322 323 324 328 327 326 325 331
301 300 298 297 298 298 299 297 295 297 304 304 304 307 309 311 312 314 314 315 315 316 316 315 317 317 318 319 324 324 323 323 325 322 324 321 327 327 324 324 323 323 322 323 321 321 321 321 322 324 325 325 325 326
301 300 298 297 298 298 298 297 294 297 301 306 308 310 310 312 310 313 315 316 316 316 317 318 319 319 319 319 322 323 323 323 320 323 321 330 327 324 323 322 321 320 320 320 321 321 322 321 321 322 323 324 325 327
301 299 298 298 298 298 298 296 294 297 302 309 310 310 312 313 313 314 315 317 317 319 319 318 319 319 321 322 322 323 320 320 323 321 325 328 324 322 321 321 321 320 319 320 320 321 322 322 322 322 323 324 325 326
299 298 298 298 298 298 298 295 294 300 306 310 308 310 309 312 313 314 314 315 316 316 317 318 317 317 319 321 320 321 322 322 323 326 325 323 322 320 321 321 321 321 319 319 317 318 320 321 322 323 325 325 325 326
299 298 300 299 298 298 295 295 298 303 307 308 309 310 312 312 313 313 314 317 316 315 315 315 317 319 319 318 319 320 320 323 326 324 319 319 321 321 321 319 319 318 319 318 317 318 319 321 323 324 325 326 328 326
299 300 300 298 297 295 296 300 302 306 308 308 310 311 312 313 313 314 316 316 316 315 317 316 319 319 318 318 318 319 324 321 319 319 318 319 319 318 317 317 317 317 317 317 317 318 320 321 323 325 326 323 328 329
303 301 299 297 296 297 301 302 306 307 308 309 311 311 311 312 317 318 316 314 315 315 315 316 317 319 319 319 318 320 319 317 318 319 318 317 315 314 315 317 318 317 317 318 318 320 322 324 325 323 322 321 320 321
302 300 296 296 299 303 303 306 307 309 308 310 310 311 313 315 315 314 313 313 313 313 313 313 315 316 316 317 319 319 318 317 317 317 316 314 314 315 316 317 318 319 319 319 320 322 322 322 323 322 321 320 320 318
297 295 295 298 300 306 307 307 307 311 311 312 312 313 312 314 313 312 312 313 312 312 312 313 314 318 319 318 316 316 315 316 315 315 315 315 315 315 316 318 318 318 320 321 320 320 320 319 318 318 318 318 317 316
297 298 299 300 305 306 308 307 308 309 310 311 312 312 312 312 312 312 312 312 311 311 313 314 316 316 315 316 314 314 314 313 315 315 315 316 316 316 316 317 317 317 318 318 317 317 318 319 319 318 317 316 316 315
302 301 304 304 306 306 307 307 310 309 309 310 311 311 312 313 314 313 311 311 313 314 314 314 314 313 313 314 313 312 313 314 314 314 315 315 316 316 316 315 316 316 317 316 315 315 315 315 316 315 315 315 315 314
302 304 305 304 305 306 306 307 309 309 311 311 310 310 311 312 310 307 310 310 310 308 308 308 308 308 309 309 312 314 314 314 315 315 316 316 316 316 316 317 316 316 315 314 314 314 314 314 314 314 313 312 311 312
302 305 306 306 305 306 308 308 308 310 310 310 311 312 311 311 307 308 308 308 308 308 308 309 309 313 313 314 315 314 314 314 315 315 316 316 316 315 317 317 316 316 315 313 313 312 312 311 312 312 313 315 315 313
306 304 305 302 307 308 308 308 308 308 309 310 311 312 311 307 308 307 307 310 310 310 314 314 314 314 315 315 314 314 314 314 315 317 316 315 315 316 317 316 315 316 314 315 316 316 316 315 315 312 310 310 310 310
305 306 309 308 309 309 309 310 310 309 310 312 311 310 309 310 310 310 311 310 310 313 315 315 315 315 315 315 315 316 315 316 316 316 316 316 316 317 317 317 317 317 316 316 316 314 312 311 310 309 309 309 310 311
309 309 309 308 308 308 308 307 308 309 312 313 311 311 312 312 310 311 310 311 312 314 315 314 315 315 315 317 317 317 317 316 314 314 315 314 314 313 311 311 312 315 316 314 313 310 309 309 309 310 311 311 311 311
305 306 308 307 306 306 309 312 312 314 314 314 312 315 313 312 313 311 310 312 313 314 314 314 316 316 316 315 316 316 316 314 313 311 310 309 310 310 310 309 309 309 310 310 310 310 311 311 311 311 311 311 311 310
305 305 306 309 309 310 312 314 313 313 313 314 314 313 312 310 310 312 312 313 313 315 316 316 316 316 315 316 316 315 314 312 311 312 312 312 311 310 310 310 310 311 311 310 310 309 309 310 310 311 311 310 310 310
310 308 311 314 315 315 314 313 313 313 313 313 312 312 312 313 312 313 314 314 315 316 315 315 316 315 314 313 312 311 312 312 312 312 313 313 312 311 311 311 311 311 311 310 309 308 307 309 308 310 310 311 310 310
313 312 314 314 315 314 314 313 312 312 312 312 312 313 314 314 314 315 316 315 315 315 315 313 311 310 310 312 312 312 312 312 312 312 312 312 312 312 312 311 311 311 312 311 311 312 311 311 311 311 311 311 310 308
314 314 316 314 313 312 312 312 312 313 313 313 313 312 313 313 313 312 312 312 311 311 310 311 312 312 312 311 311 311 311 312 313 312 312 313 313 313 313 313 312 312 312 311 311 312 312 311 311 310 310 309 309 307
314 314 313 314 314 313 313 313 313 313 313 312 312 312 313 313 312 312 312 312 312 311 311 312 311 311 311 311 311 311 310 308 308 307 307 307 308 309 311 311 311 311 311 311 311 311 311 310 309 309 308 307 306 305

GFSWCAN_925_thetae_027.txt.gz
Theta_e
301 302 302 301 299 298 298 298 300 299 298 297 300 301 301 300 298 301 308 309 307 308 309 312 312 312 312 317 320 320 324 324 324 323 323 323 324 325 326 326 335 331 331 327 329 332 332 346 346 353 340 336 348 341
301 301 301 302 299 297 298 298 298 298 298 298 297 298 301 300 298 299 307 306 309 310 307 308 308 309 308 312 316 317 322 326 332 332 327 328 324 326 329 331 331 332 329 329 326 328 352 350 352 348 347 348 349 347
302 302 301 301 300 297 298 298 297 298 299 298 297 297 298 298 296 298 302 307 309 312 313 312 312 310 309 308 309 316 320 319 322 324 329 331 333 328 331 336 334 335 337 335 336 345 344 342 340 341 347 349 346 349
302 301 301 301 301 298 298 298 298 298 298 298 297 296 296 295 295 297 301 306 308 311 313 316 315 315 314 312 309 310 313 315 318 320 325 326 327 327 325 331 332 333 337 341 345 342 343 337 334 338 342 347 347 345
301 301 301 301 301 298 297 297 298 298 298 298 297 295 295 295 295 299 304 307 309 311 314 314 313 314 314 313 312 310 311 316 317 319 321 321 320 324 325 326 332 329 336 340 342 338 342 341 336 338 342 345 345 345
300 301 300 300 300 298 297 297 297 298 297 297 296 295 294 294 295 303 312 310 308 308 313 317 317 316 314 313 313 312 313 316 317 317 318 320 320 325 326 328 333 330 332 334 335 334 336 336 336 335 340 343 343 341
297 300 300 299 299 298 297 297 297 297 297 296 295 295 294 295 297 304 309 308 307 308 313 317 318 317 314 313 313 313 313 315 315 315 316 317 317 322 323 323 329 329 328 328 329 329 334 335 335 335 332 341 339 338
298 299 300 299 299 298 297 297 297 297 296 294 294 294 297 300 302 306 308 308 307 308 313 317 321 319 316 316 317 316 316 316 318 318 318 317 317 322 323 323 324 326 326 327 326 326 327 327 333 333 331 329 337 337
301 298 298 298 298 298 297 297 297 297 296 294 294 300 304 305 309 310 308 306 306 310 315 318 320 324 320 317 320 319 318 319 318 317 317 318 319 322 323 320 321 323 326 325 324 325 324 326 327 328 331 334 336 338
303 301 298 298 298 297 297 297 298 297 295 294 299 307 310 310 310 307 309 312 312 313 313 316 317 323 319 321 322 323 322 320 322 320 318 318 319 319 320 322 325 325 323 323 322 324 324 325 325 327 328 326 330 331
302 302 299 298 297 297 296 297 298 297 295 301 307 311 311 309 309 312 315 316 316 316 315 314 313 322 319 322 324 324 325 325 324 324 322 324 324 327 325 325 325 324 323 322 323 323 322 321 322 326 326 325 325 331
301 302 301 299 297 296 297 298 298 296 303 303 302 304 309 310 313 314 316 316 315 316 319 317 316 320 321 323 325 324 324 324 325 324 326 326 328 328 325 324 323 323 322 323 322 323 323 323 322 322 324 325 325 327
301 302 301 299 297 297 298 298 297 296 300 304 305 310 310 313 312 313 315 316 318 318 322 322 323 322 322 322 324 324 323 325 323 326 326 328 326 326 324 323 322 320 320 320 320 320 321 322 322 322 323 324 323 326
301 302 301 298 297 298 298 298 296 296 301 308 311 306 312 312 312 313 316 319 319 320 320 319 321 322 322 324 323 323 324 324 324 325 327 328 324 323 322 321 321 321 320 319 319 319 318 319 321 322 323 325 326 325
300 302 299 297 298 298 298 297 294 299 304 309 312 310 310 312 314 315 317 318 318 318 318 319 320 321 322 322 322 323 324 324 326 328 326 325 324 323 322 322 321 320 320 319 320 319 318 317 319 322 323 325 324 325
302 298 298 298 298 298 298 295 296 302 307 310 310 310 313 314 315 314 315 317 317 317 318 318 318 320 320 320 321 322 321 325 323 322 321 322 321 320 319 318 317 317 318 318 318 318 318 318 318 320 322 324 323 323
298 299 299 298 298 298 296 299 301 305 308 309 310 311 312 315 316 317 319 316 316 318 320 319 320 320 321 320 319 322 325 321 319 319 320 320 318 317 316 315 316 317 318 317 317 318 318 317 318 321 323 322 317 316
301 299 299 298 297 296 299 301 305 306 308 309 311 313 314 315 319 320 316 317 318 318 318 318 318 319 321 320 321 321 319 319 318 318 317 317 316 316 316 315 316 317 318 317 318 319 319 321 322 322 322 321 320 320
300 299 298 295 298 302 304 305 307 310 308 310 312 313 314 317 315 314 316 315 315 315 316 317 315 317 319 321 320 318 317 317 317 316 316 315 314 316 315 316 317 319 320 320 319 320 320 322 321 321 320 319 317 316
299 297 295 298 300 306 307 308 306 311 313 314 313 314 315 316 315 314 315 315 314 314 315 315 316 320 320 318 317 316 316 315 315 316 315 314 314 315 317 317 317 318 319 319 319 319 318 318 318 318 317 316 316 316
296 295 297 299 304 304 309 310 308 311 313 314 314 315 314 314 314 315 314 313 313 314 313 315 318 317 315 315 314 314 314 314 315 314 314 315 315 316 316 317 317 317 317 317 317 317 318 318 317 316 316 315 314 314
302 301 303 301 305 308 309 309 312 312 312 312 312 313 314 315 314 312 310 311 312 315 315 313 313 312 313 314 313 313 313 314 314 315 315 315 316 316 315 316 317 316 315 315 315 315 315 315 315 315 315 315 314 314
302 304 306 306 305 304 304 307 310 310 313 313 313 311 313 313 309 309 311 311 311 309 308 308 309 310 311 311 312 314 313 314 315 316 316 316 316 317 316 315 315 315 314 314 314 315 315 315 314 313 313 312 312 312
303 305 307 306 305 305 308 309 310 311 310 310 311 312 312 311 308 309 309 308 308 307 308 309 309 312 313 313 314 314 314 315 315 316 316 317 317 317 316 316 315 314 314 314 314 313 313 312 312 312 312 312 312 312
304 301 304 301 307 308 309 308 308 308 309 311 312 312 311 308 308 307 306 308 310 310 311 314 314 313 314 314 314 314 314 315 316 315 314 315 317 317 316 315 314 314 313 313 313 313 312 312 313 314 314 315 311 310
303 304 307 309 310 310 308 308 309 310 310 311 311 310 309 310 310 309 310 310 310 311 314 314 314 315 315 314 314 315 315 315 316 317 316 317 316 316 316 316 316 315 315 316 317 317 317 315 313 310 310 310 311 311
306 309 310 309 309 309 310 308 308 309 311 312 311 311 311 312 310 311 310 311 312 314 314 314 314 314 314 315 315 315 314 315 317 317 316 316 316 316 316 316 318 316 315 316 312 309 309 309 309 310 310 312 312 311
306 306 309 308 307 307 309 311 311 312 312 313 312 314 314 312 313 311 310 313 314 314 315 315 315 315 315 317 317 316 317 317 316 312 310 310 310 310 309 310 310 310 311 311 311 311 311 311 312 311 311 311 310 310
304 305 306 308 308 309 310 313 314 314 313 313 314 313 312 310 311 312 312 313 314 314 315 315 316 316 316 317 317 316 315 313 311 313 311 310 310 309 309 310 311 311 311 310 310 310 310 311 311 311 311 310 310 310
310 308 311 313 314 315 315 314 315 314 313 313 312 313 313 313 312 312 313 314 314 315 316 316 317 317 317 317 317 316 314 312 312 312 313 313 312 311 311 311 311 311 310 310 309 308 308 309 309 309 310 311 310 310
312 311 313 315 316 314 312 312 312 312 313 314 313 313 314 314 313 313 314 315 316 317 317 316 315 312 313 313 313 313 313 313 313 313 313 313 312 312 312 311 311 312 312 312 311 311 310 310 311 311 311 311 310 309
315 316 316 315 316 313 313 314 314 315 314 315 314 315 315 316 316 317 316 316 317 318 317 314 313 312 312 312 313 313 313 312 311 312 313 313 312 312 313 313 312 312 312 312 311 312 312 311 311 311 310 310 309 308
316 315 315 314 314 314 314 313 314 314 314 314 314 313 313 313 313 313 312 312 313 312 312 312 312 312 312 312 312 311 310 309 308 308 308 308 308 310 310 310 311 311 311 311 311 311 311 310 310 309 309 308 307 306

GFSWCAN_925_thetae_030.txt.gz
Theta_e
301 301 301 302 302 301 297 298 298 298 298 298 299 299 300 299 297 300 308 307 308 302 302 306 306 307 306 310 316 315 319 320 323 318 318 318 318 318 321 320 323 322 321 323 324 328 328 341 346 340 336 339 336 336
301 301 301 301 301 301 298 297 298 297 298 299 298 298 299 297 295 298 301 308 307 307 304 308 309 310 309 308 310 310 317 316 325 329 327 325 319 320 321 323 324 326 321 322 321 323 337 340 341 337 337 341 341 337
301 301 301 301 301 301 299 297 298 298 298 299 297 297 297 296 295 297 298 303 306 304 305 307 308 311 310 308 307 310 311 313 314 316 323 325 330 325 325 327 329 327 330 333 338 341 336 335 338 340 342 345 344 339
302 302 302 302 301 301 300 298 297 298 298 298 297 297 295 295 295 295 297 301 304 305 307 308 313 313 312 313 310 309 310 312 312 314 318 321 321 317 318 318 325 327 330 335 338 338 337 335 334 336 343 344 344 341
301 301 301 301 301 301 300 297 297 297 297 298 297 296 295 294 294 298 306 307 306 306 307 307 309 314 313 313 312 310 309 308 310 313 315 316 314 319 319 320 328 326 332 333 337 333 336 338 332 333 337 345 342 341
299 300 301 301 301 301 299 297 297 297 297 297 296 294 294 294 295 304 306 307 306 307 307 309 310 312 313 312 312 311 309 308 309 310 311 311 313 316 318 324 328 324 326 328 330 330 331 334 336 334 336 340 339 337
297 298 299 301 300 299 298 297 297 297 297 297 295 294 294 295 297 301 306 308 307 306 307 311 311 311 312 312 308 306 308 308 308 308 308 309 311 313 317 319 324 324 324 325 323 324 327 331 331 332 339 338 337 336
299 298 298 300 300 299 298 297 297 297 297 296 294 294 296 299 301 305 307 308 307 307 307 311 313 315 312 310 310 307 309 308 309 311 310 310 309 313 317 315 321 324 324 322 321 321 322 322 323 327 333 335 335 333
301 300 298 299 299 299 298 297 297 297 297 295 294 299 303 305 306 310 308 306 306 308 310 311 313 317 314 313 310 311 309 313 310 311 310 311 311 314 314 314 313 318 322 321 319 320 320 321 321 322 325 330 333 334
303 302 301 298 298 298 298 297 297 298 297 294 298 304 306 310 310 308 308 307 306 306 306 310 310 316 314 314 316 318 314 312 315 312 309 312 312 311 316 315 315 319 318 317 319 321 320 320 319 320 323 322 323 326
303 303 303 300 298 297 297 297 297 298 295 300 303 307 308 310 308 308 310 312 311 312 308 307 306 309 314 316 316 317 317 317 319 316 319 315 314 322 319 319 317 317 319 318 318 318 318 318 318 318 319 320 323 326
302 302 303 302 298 298 297 296 298 297 300 301 300 302 305 307 307 312 311 311 313 313 311 309 309 313 316 317 317 317 319 318 320 316 321 321 320 319 319 319 317 316 317 318 319 318 318 319 320 320 320 321 322 324
301 302 303 302 299 298 296 297 299 297 297 301 303 305 307 305 306 311 313 314 313 312 317 315 317 316 317 315 316 316 319 318 320 321 323 321 318 319 319 317 318 317 317 317 317 317 317 317 317 320 321 323 324 324
301 301 302 302 299 297 297 299 298 295 298 303 309 302 307 305 309 309 310 313 314 315 314 313 315 315 314 316 316 320 319 321 325 324 324 320 320 319 318 318 317 316 316 316 317 318 317 317 317 317 320 323 323 323
300 301 302 301 298 297 299 298 296 297 302 307 309 303 308 308 308 312 313 314 314 312 311 314 314 313 315 318 316 318 322 322 324 322 324 318 317 316 315 315 313 313 313 314 316 317 317 317 316 317 318 320 323 322
299 302 301 298 297 299 298 297 295 300 304 308 307 309 308 309 311 312 314 315 312 311 311 314 316 316 316 315 319 320 321 324 321 318 316 315 314 313 312 311 312 313 314 315 316 316 316 316 316 316 316 318 320 321
301 299 299 297 299 298 297 296 298 301 306 308 307 308 307 310 314 313 312 312 311 311 313 313 317 318 314 318 318 318 319 317 318 317 317 313 312 311 311 312 313 314 315 316 317 317 317 317 317 318 316 320 318 320
299 298 298 298 298 297 297 298 302 305 306 305 306 308 312 312 312 312 312 312 311 310 312 315 312 316 317 319 319 316 317 316 314 312 311 311 312 312 314 314 314 315 316 317 318 317 317 318 318 319 319 317 317 316
298 298 298 298 296 299 301 303 304 307 307 305 306 307 311 312 310 311 310 310 311 310 308 310 312 312 315 314 315 314 313 313 312 311 311 313 313 313 314 315 316 317 318 320 319 318 320 321 320 319 318 317 316 315
299 298 298 297 300 303 306 303 307 306 308 309 309 310 309 310 309 308 308 307 307 307 309 310 313 313 312 311 310 310 311 310 311 312 311 312 314 315 316 316 316 318 318 318 318 318 318 317 317 317 316 316 315 314
298 298 296 297 301 302 304 306 304 307 308 309 309 309 308 309 312 310 308 305 307 307 307 310 310 309 310 313 313 312 312 312 312 313 314 314 314 315 316 316 316 316 316 316 317 316 316 316 315 315 314 314 313 313
296 297 299 299 302 307 305 308 307 308 310 309 310 310 310 311 308 306 304 306 306 308 307 306 306 306 308 309 311 312 313 314 314 315 315 315 315 315 316 316 315 314 315 315 315 315 315 315 314 314 314 314 314 314
298 301 303 305 305 299 301 307 308 308 310 309 307 309 309 307 306 304 306 307 305 306 306 306 307 308 309 310 311 314 313 314 315 315 315 316 316 316 315 315 314 314 314 314 315 315 315 315 314 314 313 313 313 313
304 304 306 305 300 298 305 307 307 306 305 306 307 311 309 308 304 305 307 306 307 307 308 309 310 310 312 312 312 313 314 315 315 316 316 316 316 315 315 314 314 314 314 314 314 313 312 312 312 311 311 311 311 310
302 296 300 296 301 307 308 307 305 305 307 308 310 308 309 306 307 307 305 307 308 309 309 312 312 312 313 312 313 313 315 315 315 314 315 316 316 314 314 313 313 312 312 312 312 312 312 312 313 313 313 312 312 312
299 302 302 308 305 308 306 306 304 307 309 311 310 309 307 309 309 308 309 309 310 309 313 313 313 313 313 313 313 314 315 315 316 315 316 316 315 314 313 312 312 313 313 314 315 314 313 313 313 313 313 313 312 311
304 307 307 305 307 306 306 305 307 309 311 311 310 310 310 311 310 309 309 309 310 313 313 314 314 314 314 314 315 315 315 315 316 316 316 316 315 314 315 315 315 315 315 315 316 312 312 311 309 310 311 311 310 310
305 305 307 305 305 306 309 310 310 311 311 311 311 313 313 312 312 310 310 312 314 314 314 314 314 315 315 315 315 316 314 314 315 315 314 316 316 315 312 313 312 311 311 311 311 309 309 310 310 311 310 310 310 310
303 305 305 308 308 308 309 311 313 312 311 312 313 312 311 309 310 311 313 314 314 315 315 315 314 314 315 315 316 316 317 316 312 305 306 305 307 309 310 310 310 311 311 311 310 311 311 311 310 310 310 310 310 310
308 306 309 311 311 312 313 312 314 313 312 312 311 312 313 312 312 312 313 313 314 314 315 315 315 316 316 316 317 317 314 314 314 309 306 306 308 309 309 311 311 310 310 309 308 309 309 309 310 309 310 310 310 309
309 309 311 314 314 313 313 312 312 313 313 313 312 313 313 312 313 312 312 313 313 314 314 315 316 316 315 316 316 312 311 312 313 312 311 312 312 312 312 311 311 311 310 310 310 310 309 310 311 311 310 309 308 308
314 315 315 315 315 313 313 314 314 314 314 313 313 312 312 314 315 313 314 313 313 314 315 316 316 313 312 313 312 311 312 312 313 312 312 312 312 312 312 312 312 312 311 311 311 311 311 310 310 309 310 309 308 307
315 314 313 313 314 315 313 313 313 313 312 313 313 313 313 313 313 312 313 313 313 313 314 314 313 312 312 312 312 311 311 311 310 311 311 310 310 311 311 310 310 310 310 310 310 310 310 309 309 308 307 306 306 305

GFSWCAN_925_thetae_033.txt.gz
Theta_e
302 301 301 301 301 301 301 298 297 298 297 298 299 300 299 297 294 298 305 305 305 302 302 304 306 306 306 307 312 312 317 321 325 317 317 316 316 316 319 319 321 319 318 319 321 323 324 341 347 334 326 338 335 335
301 301 301 301 301 301 301 299 298 298 298 298 298 299 298 295 294 296 299 300 305 304 303 308 308 309 307 307 307 309 316 315 321 325 323 322 319 318 318 320 322 326 319 320 320 321 335 336 340 339 332 338 337 335
300 300 300 301 301 301 301 300 298 297 298 298 298 298 297 295 295 296 297 300 303 301 303 305 308 310 310 309 309 309 308 311 312 314 320 322 326 320 320 323 324 325 327 333 337 337 335 334 336 341 342 344 343 337
300 300 301 301 302 301 301 301 299 297 297 298 297 297 296 295 294 295 297 301 303 302 305 307 311 311 313 308 308 308 309 309 309 313 316 319 320 314 315 315 319 323 327 334 337 335 334 334 333 334 339 337 342 339
301 302 302 301 301 301 301 301 299 297 297 297 297 296 295 294 294 297 305 305 304 304 306 305 307 312 312 311 311 308 308 305 308 311 313 316 312 314 315 320 329 326 330 331 335 331 332 334 332 334 340 343 340 339
302 301 301 301 300 301 301 300 299 297 297 297 297 296 294 294 294 302 305 305 304 304 304 307 307 308 311 311 310 308 307 305 305 308 309 308 309 312 316 323 326 324 325 325 329 328 330 334 334 332 338 341 339 338
298 298 299 300 300 301 301 299 298 297 297 297 297 295 294 294 296 299 304 307 306 303 305 309 309 309 310 309 306 304 306 305 306 306 307 307 308 309 314 318 324 324 322 323 325 324 329 330 330 334 338 338 336 335
297 297 297 297 300 300 299 298 298 297 297 297 296 294 294 298 300 304 307 307 306 305 305 309 310 312 312 308 308 303 306 305 306 308 307 307 306 309 313 312 314 320 321 319 320 320 323 323 325 329 335 335 334 334
299 300 299 298 300 300 299 298 297 297 297 297 295 296 302 304 305 309 309 306 306 307 309 309 311 315 311 310 307 308 306 310 306 310 308 309 309 311 310 312 313 314 321 319 319 318 318 318 320 323 327 332 333 332
302 301 300 299 299 299 299 298 297 297 297 296 298 303 303 308 309 308 307 305 305 304 303 307 307 315 311 311 314 314 310 310 314 311 307 309 309 308 316 315 311 312 315 316 318 318 318 318 318 319 321 321 320 323
303 302 302 301 299 299 298 298 297 297 297 299 302 306 306 307 307 305 307 309 308 311 306 307 306 308 309 315 315 314 315 314 318 315 313 312 315 318 316 315 314 315 316 316 316 316 316 317 317 318 318 320 321 322
303 303 303 302 301 298 298 298 297 297 299 300 298 300 303 305 304 310 308 309 310 312 309 309 308 306 313 313 314 314 316 315 319 314 319 319 319 317 316 316 314 313 315 315 316 315 316 317 318 318 319 320 322 322
302 303 303 303 302 298 297 297 297 298 297 298 302 303 304 303 303 310 312 311 311 310 313 313 316 313 313 315 314 314 316 316 316 319 321 320 317 316 316 317 318 316 316 316 316 317 316 316 316 317 318 321 323 322
302 302 302 303 302 299 297 296 298 297 297 302 307 301 305 303 307 307 308 309 310 313 313 313 314 314 312 315 314 319 316 318 322 321 323 322 319 318 316 314 314 313 313 313 313 315 316 316 316 316 316 319 320 322
301 302 301 303 301 298 297 298 298 296 300 305 309 309 307 306 305 308 308 311 312 312 311 312 312 311 313 316 314 316 321 321 322 323 323 319 317 313 312 312 311 311 311 311 313 314 314 315 315 315 316 316 316 320
301 301 302 302 299 297 299 298 295 298 302 305 305 308 307 308 310 309 310 312 311 311 308 310 315 314 315 314 317 319 319 322 318 315 313 311 311 311 310 309 310 311 311 312 313 314 315 315 315 315 316 316 316 318
301 301 301 300 297 299 298 294 296 299 303 306 306 303 304 305 308 311 311 312 310 310 312 312 315 316 312 316 317 316 318 316 314 314 311 310 310 309 308 309 311 312 312 313 314 316 317 316 317 317 315 318 318 317
300 301 299 298 299 298 296 298 301 303 305 303 305 304 307 308 311 310 309 309 308 308 309 314 309 315 316 318 318 314 312 311 312 311 308 307 309 310 311 311 313 314 314 316 317 317 317 316 316 315 318 315 314 314
300 299 298 298 297 296 298 299 301 305 305 304 302 303 309 311 309 308 307 306 306 306 306 307 310 311 314 311 312 312 313 313 312 308 308 310 311 312 314 315 316 317 317 319 319 317 319 319 319 319 317 315 313 313
299 298 298 298 298 302 305 301 303 303 306 305 307 308 309 309 307 305 304 304 303 304 307 309 311 311 310 309 307 308 308 308 308 312 310 311 313 314 316 316 316 317 317 318 317 317 317 316 315 316 315 315 314 314
299 299 298 298 299 300 301 303 302 302 304 307 308 307 308 309 310 306 304 302 304 304 307 308 308 307 308 309 311 311 310 310 311 312 313 314 313 314 316 316 316 316 316 316 316 315 315 315 314 314 314 313 313 313
297 298 297 297 300 303 304 304 304 306 306 306 307 308 309 310 306 304 301 305 305 305 304 304 304 304 305 306 309 310 312 312 313 313 314 314 314 315 315 315 314 315 315 315 315 315 314 314 314 314 314 313 314 313
296 300 301 302 302 299 301 306 308 307 309 309 304 307 306 305 304 301 303 302 302 302 304 304 305 307 307 309 310 312 313 313 314 315 315 316 316 315 314 314 314 314 314 314 314 314 313 313 314 313 313 313 313 313
300 302 304 304 300 296 303 305 304 302 303 304 306 309 307 306 301 303 305 303 304 306 307 308 310 309 310 311 312 312 313 315 315 315 315 315 314 314 313 313 314 314 314 314 313 312 312 312 311 311 310 309 309 310
299 297 299 295 299 305 306 304 302 302 305 306 308 307 307 303 307 307 306 307 307 309 309 310 311 311 312 312 312 313 314 315 314 312 315 315 312 312 312 312 312 312 313 312 311 311 311 310 310 310 310 310 311 310
296 301 300 306 303 305 302 303 301 303 305 308 308 306 306 308 309 308 309 309 309 309 312 312 312 312 312 313 312 313 314 315 315 313 315 315 313 312 310 309 309 311 312 313 313 313 313 312 312 312 313 313 313 310
302 305 305 301 302 303 302 302 306 308 310 310 310 309 309 310 310 308 307 308 309 312 313 313 314 313 313 313 314 314 314 315 315 315 316 315 313 312 312 312 312 313 315 314 314 314 312 313 312 311 310 311 312 310
304 304 306 304 303 303 309 309 309 310 310 310 310 312 312 312 311 309 308 311 314 314 314 314 314 314 315 314 314 315 315 316 316 314 315 315 315 315 315 314 314 313 311 310 309 309 309 310 310 310 310 310 310 310
303 304 304 306 307 307 308 310 312 311 310 311 312 312 311 309 309 311 312 314 314 314 314 314 314 314 315 315 315 315 316 316 315 307 309 307 310 310 310 310 310 310 310 311 311 311 311 311 310 310 310 310 309 309
306 305 308 310 310 311 311 309 312 312 312 312 311 312 312 311 312 312 313 313 314 314 314 314 314 314 314 315 315 316 313 314 315 308 304 304 308 309 309 310 310 309 309 309 309 309 309 309 309 309 309 309 309 308
308 307 309 312 314 314 313 312 312 312 312 313 312 312 313 310 312 312 312 313 313 313 314 313 314 315 315 313 315 314 310 312 313 314 310 309 309 309 308 309 310 310 310 310 309 309 308 309 310 310 309 309 309 308
312 312 315 315 314 313 313 313 314 314 313 313 312 311 311 312 314 312 313 313 313 312 313 313 313 314 314 312 314 313 311 311 311 310 310 311 312 312 312 311 311 311 311 311 311 310 310 310 310 310 309 308 307 307
313 313 313 314 314 313 311 311 312 312 312 312 312 311 311 312 313 310 313 313 313 313 313 313 313 314 313 312 313 311 310 310 310 311 311 311 311 311 311 311 311 310 310 310 311 310 309 309 308 308 307 306 305 305

GFSWCAN_925_thetae_036.txt.gz
Theta_e
303 302 301 301 301 301 301 301 299 298 297 298 300 300 299 296 294 298 303 300 303 300 301 303 305 305 305 306 310 310 316 320 323 315 316 315 316 316 317 317 319 317 320 320 321 322 323 339 343 329 324 334 335 334
302 302 301 301 300 301 301 301 300 298 297 298 299 299 298 295 294 296 299 298 302 302 302 306 306 307 307 306 304 306 316 316 319 321 321 319 319 317 316 319 320 324 318 321 319 319 329 333 337 338 333 336 334 332
301 302 300 300 300 301 301 301 301 299 297 297 298 298 296 295 295 295 297 299 302 299 302 303 308 310 308 308 307 305 309 310 311 315 319 320 322 316 319 322 321 322 322 333 335 335 334 333 332 340 340 341 341 333
302 301 300 300 301 301 301 301 301 300 298 297 297 297 296 295 294 295 298 302 303 300 304 306 309 309 310 310 307 306 308 308 308 311 315 316 318 311 314 314 317 319 327 334 337 334 333 331 331 330 334 338 340 337
301 300 300 300 301 302 301 301 301 300 298 297 297 297 295 294 294 297 305 304 304 304 305 305 306 310 311 309 307 306 307 304 305 309 313 316 311 312 311 320 329 326 327 329 333 329 330 330 331 333 339 341 339 338
300 300 300 302 301 301 301 301 301 300 297 297 297 296 295 294 294 302 303 304 303 302 302 303 304 308 310 309 308 306 306 304 304 305 308 306 307 311 314 324 325 323 322 323 329 327 329 332 332 333 339 340 338 336
300 302 302 301 301 301 301 301 300 298 297 297 296 296 295 294 295 299 304 306 305 302 303 307 307 307 309 307 305 303 304 304 305 304 305 305 306 309 313 320 324 324 323 325 326 328 331 329 331 335 338 337 336 335
302 301 298 299 299 300 301 301 299 298 297 297 297 295 294 297 300 304 307 307 305 303 303 307 309 310 310 307 307 302 305 303 305 306 306 306 304 305 308 310 311 320 321 322 324 321 324 324 325 333 334 333 332 332
298 297 297 297 298 300 300 299 298 297 297 296 296 296 302 303 304 308 308 306 305 306 307 306 310 314 309 308 305 306 304 309 304 309 307 308 307 308 305 308 311 316 319 319 319 318 318 322 323 326 329 329 330 329
298 299 299 298 298 300 300 299 298 297 296 296 298 303 303 307 308 306 305 303 303 302 301 305 304 312 309 310 313 312 308 309 313 310 306 308 308 308 313 313 313 313 312 316 317 318 318 319 319 319 320 319 319 319
301 300 300 300 299 300 299 298 297 296 296 299 301 302 304 305 306 304 305 307 306 309 303 304 304 309 306 313 314 311 313 312 317 313 311 310 319 317 313 313 312 313 314 314 315 315 315 316 317 318 318 319 320 320
302 303 302 302 300 299 298 298 297 296 300 299 298 300 302 303 302 308 306 307 309 311 307 308 306 304 308 310 313 312 315 314 318 312 317 319 317 315 314 315 314 313 315 315 315 314 315 316 317 317 318 319 320 321
302 303 302 303 302 300 298 298 296 297 297 298 301 303 303 302 302 309 311 310 309 308 309 310 314 311 312 314 313 312 315 315 313 317 320 319 316 315 314 314 316 313 313 313 313 314 315 316 316 316 315 316 318 319
302 302 304 303 303 300 298 297 297 297 296 301 305 299 304 303 305 306 306 306 306 310 312 311 313 313 313 316 315 317 314 316 320 319 321 322 320 318 314 313 312 311 311 311 312 313 314 314 314 315 316 316 316 317
301 303 303 303 303 299 297 297 298 296 300 304 308 307 306 304 303 303 303 306 309 311 312 314 313 312 314 316 313 315 320 320 320 319 323 320 318 315 312 311 310 309 309 310 311 312 312 313 314 314 315 315 315 315
302 302 303 303 301 298 297 299 296 297 301 303 305 306 305 306 306 306 306 307 308 311 309 311 314 314 314 313 317 318 318 320 317 314 313 311 311 310 309 308 308 309 310 310 311 312 313 314 314 314 315 315 315 315
301 301 301 301 298 297 298 295 295 298 302 306 304 303 303 303 304 306 307 308 309 311 313 312 313 314 311 314 316 314 317 315 313 313 310 309 308 308 307 307 309 310 311 312 312 314 315 316 316 316 316 316 316 316
301 300 301 297 298 299 296 298 299 301 303 303 304 302 303 305 306 308 308 309 309 308 310 313 308 314 315 318 316 312 311 309 308 309 307 306 307 308 309 310 312 313 314 316 316 317 317 316 316 316 317 315 314 312
300 301 298 298 297 295 296 297 300 304 304 302 301 300 304 307 307 309 305 305 304 304 305 306 309 310 312 310 310 310 310 310 309 307 306 308 309 310 314 315 316 316 317 318 318 318 317 317 318 317 316 315 314 314
300 298 298 298 297 301 304 302 301 302 305 303 303 305 306 306 307 304 303 302 301 303 306 309 309 309 308 307 306 307 307 306 307 310 309 309 312 313 315 315 316 316 317 317 316 316 316 315 314 314 314 314 314 313
299 299 298 296 299 299 300 301 302 301 302 305 306 305 307 307 306 304 303 300 303 303 307 307 307 305 305 306 308 309 308 308 310 311 312 313 313 313 315 315 315 315 315 315 315 314 314 314 314 313 313 313 312 312
299 298 297 297 298 302 303 303 303 303 304 306 307 306 309 310 305 304 299 303 304 303 303 303 303 303 304 305 306 308 309 310 311 312 313 314 313 315 315 314 314 314 314 314 314 313 313 313 314 313 313 313 313 313
297 298 300 300 301 297 301 304 306 304 307 306 303 306 305 303 302 299 302 300 301 300 302 302 304 306 305 308 308 309 311 312 313 314 315 315 314 314 314 314 314 314 313 313 313 313 312 312 312 312 312 312 313 313
301 301 302 303 302 298 302 305 302 301 302 303 306 309 305 303 300 302 304 303 299 303 304 306 309 309 309 309 310 312 313 314 314 313 315 314 313 312 313 313 313 313 313 312 311 311 311 310 309 309 309 310 309 308
297 296 297 294 298 304 305 303 301 301 305 305 307 306 306 300 305 306 305 306 306 307 308 309 310 310 311 311 312 313 315 314 312 311 312 313 311 310 311 311 312 312 311 310 310 310 309 309 309 309 310 311 311 308
296 301 300 306 301 303 300 303 300 303 303 306 306 303 302 306 308 308 309 308 308 309 311 312 312 311 312 312 312 313 314 314 313 313 313 312 311 311 309 309 309 311 312 312 311 311 312 312 312 312 312 312 312 310
299 303 304 299 300 301 301 300 302 304 307 308 308 308 309 310 310 309 306 307 309 310 312 312 313 313 313 313 314 314 314 315 315 315 315 314 312 311 311 311 311 313 313 313 313 313 313 312 313 311 311 310 312 311
303 304 304 303 302 300 308 308 309 308 309 309 309 311 311 311 311 308 308 311 313 313 314 314 314 314 314 314 314 314 315 315 315 313 314 314 314 313 314 314 313 313 311 310 310 310 309 309 310 309 309 310 310 310
303 303 303 304 306 305 306 309 311 311 309 310 311 312 311 308 308 310 312 313 313 313 313 312 313 314 314 315 315 315 315 315 312 310 311 310 310 311 311 310 310 309 310 310 310 311 310 309 309 310 310 309 309 310
306 304 306 309 309 310 310 309 310 312 311 311 311 311 312 311 312 312 313 313 313 313 314 314 313 314 314 314 314 315 315 313 314 309 307 308 308 308 309 310 310 309 309 309 309 309 310 310 309 309 309 309 309 309
308 307 309 310 312 311 312 312 312 312 312 313 312 312 313 311 311 312 313 313 313 313 313 313 313 314 314 314 313 313 313 312 312 312 309 309 309 308 308 308 309 310 310 309 308 308 307 308 309 309 309 309 308 308
310 310 314 315 314 313 313 313 314 314 313 312 311 310 311 312 313 311 313 313 313 312 313 313 313 313 313 314 312 313 312 311 311 312 313 309 309 309 310 310 310 310 310 310 310 310 309 309 310 310 309 308 307 307
313 313 313 313 313 312 311 311 311 312 311 312 312 312 312 312 313 310 313 313 313 313 313 313 312 312 313 312 313 312 311 311 311 311 310 311 311 311 311 311 310 310 310 310 310 310 309 309 309 309 308 307 306 305

GFSWCAN_925_thetae_042.txt.gz
Theta_e
308 308 305 302 300 300 301 301 301 299 298 297 298 297 295 295 295 300 306 303 307 311 311 309 310 313 313 314 320 319 325 328 328 328 328 327 326 327 329 331 332 332 331 332 334 333 335 339 340 337 347 347 345 343
309 308 306 302 300 300 301 301 301 300 299 297 297 298 296 295 295 298 303 302 303 308 310 309 307 308 309 309 312 315 323 323 323 331 329 328 328 328 332 328 331 333 338 333 336 338 345 344 349 348 349 349 346 343
310 308 307 303 301 300 301 301 301 300 300 298 297 298 296 295 295 296 303 304 307 310 312 313 315 313 311 311 311 315 316 316 319 321 329 330 333 329 328 330 333 337 337 334 336 341 346 348 346 345 344 349 344 341
310 308 307 304 301 301 301 301 301 301 300 299 297 297 296 295 294 298 305 306 307 310 312 316 312 314 312 311 311 311 311 314 314 317 325 328 327 325 327 329 330 333 336 341 336 342 343 346 345 343 344 346 346 341
310 309 307 303 302 301 301 301 301 301 300 299 297 297 296 295 294 303 306 306 306 310 313 313 312 314 313 311 310 310 311 316 313 314 322 326 323 326 325 327 327 331 335 332 336 344 345 347 343 342 345 345 343 344
309 309 306 302 302 301 301 301 302 301 300 299 297 296 296 295 295 305 312 307 306 306 313 314 313 316 314 313 314 315 313 314 313 314 316 319 319 324 326 327 334 333 334 334 338 340 341 341 341 344 342 340 343 343
309 308 302 302 301 300 301 302 301 301 300 298 297 296 296 295 299 305 310 308 304 306 312 313 316 317 315 315 315 315 314 313 314 313 312 316 320 319 325 325 332 332 332 335 337 338 340 339 343 343 342 340 339 339
309 304 301 301 300 301 302 301 301 301 298 297 297 296 295 297 300 305 309 307 305 307 310 314 317 318 316 317 317 314 315 314 314 315 314 313 316 318 320 324 327 328 330 335 335 333 332 337 339 339 339 337 337 336
304 302 301 300 301 302 301 301 301 300 298 297 296 296 302 305 309 310 307 306 307 310 313 313 317 318 317 318 317 317 316 316 316 314 314 314 313 315 319 322 323 326 328 331 329 333 330 332 336 336 335 333 332 332
301 301 301 302 301 300 300 301 300 299 297 296 299 306 308 309 307 307 309 312 312 311 310 311 314 319 319 318 318 319 318 317 318 318 317 315 315 320 320 323 324 324 324 326 329 332 331 331 331 331 329 327 326 325
301 302 300 298 299 299 300 300 299 298 296 300 306 309 307 307 309 310 312 312 312 311 310 310 311 316 318 321 320 319 320 320 318 319 318 319 317 325 323 324 324 324 324 325 327 327 327 327 328 327 327 326 326 326
301 300 299 298 297 300 300 299 298 298 301 304 305 304 307 310 310 313 312 313 313 311 313 313 312 311 317 320 323 321 320 320 320 321 320 319 328 325 324 323 322 322 322 322 322 323 323 323 323 324 324 324 323 323
300 299 299 299 300 300 300 298 297 298 300 303 307 310 310 311 311 310 310 312 314 314 317 317 315 312 318 323 321 321 321 320 321 322 321 326 325 324 324 323 322 319 319 319 319 319 319 319 319 320 320 320 320 321
299 299 299 300 300 300 298 297 296 299 301 308 310 310 311 310 310 310 311 314 316 316 318 320 318 318 320 321 320 320 320 320 321 322 324 325 326 324 322 320 320 319 319 318 318 318 318 318 319 319 319 319 320 320
300 301 302 301 300 299 298 297 296 300 305 309 310 312 309 310 310 311 312 314 315 315 319 321 320 320 319 319 319 319 320 320 320 323 324 326 325 322 319 317 318 319 319 319 318 319 319 319 320 321 321 321 320 320
301 302 302 302 301 299 297 297 299 301 305 308 309 310 311 313 313 313 314 315 314 317 319 319 318 318 318 319 318 318 319 321 325 324 324 323 321 319 318 319 318 318 318 319 319 319 320 320 321 321 321 320 320 319
302 303 302 302 301 298 298 299 301 304 307 309 310 311 312 313 314 315 316 317 316 319 321 319 318 318 318 319 318 320 322 324 324 324 324 321 319 319 318 318 319 318 318 317 317 318 319 320 320 321 321 321 319 317
302 303 302 301 299 298 298 299 302 305 307 308 311 311 311 312 314 317 317 317 318 319 319 319 318 319 319 319 319 321 323 322 321 320 318 318 318 318 318 318 318 318 319 318 319 320 320 321 321 320 320 318 318 318
302 301 301 298 299 298 300 301 304 307 308 309 310 310 311 313 315 315 314 314 314 315 317 317 317 317 318 319 320 321 321 321 321 319 317 316 317 318 317 319 316 318 318 318 320 319 318 318 318 318 318 318 318 317
300 299 298 296 301 302 303 304 304 309 310 311 312 313 315 316 316 314 314 314 314 315 316 317 316 319 319 319 320 320 320 318 318 317 316 317 318 318 318 317 318 318 318 318 318 317 318 317 317 317 316 315 316 316
299 298 297 300 303 305 306 307 307 309 310 313 314 315 316 316 316 315 315 313 315 315 316 316 317 318 318 318 318 317 317 316 316 316 316 317 317 315 314 315 318 317 317 316 317 315 315 316 316 316 317 316 316 315
299 299 300 299 303 306 307 308 310 311 313 313 315 314 316 317 315 314 312 313 314 315 315 315 316 316 316 317 315 315 315 315 314 314 313 314 314 315 316 316 317 316 315 317 317 316 315 314 315 316 313 315 314 314
299 300 304 304 306 306 310 309 312 312 313 314 313 314 314 314 313 311 314 314 314 313 313 313 313 313 314 315 314 314 314 314 314 315 315 315 315 315 317 315 314 314 314 316 316 314 314 312 312 313 312 314 313 313
302 304 306 306 306 308 308 311 310 311 312 312 313 314 314 313 312 312 314 312 312 311 312 313 313 315 315 314 315 315 315 315 315 314 314 314 314 313 315 317 316 315 314 314 314 313 312 312 311 313 312 312 312 312
304 304 305 304 306 309 310 310 310 310 312 312 312 312 312 311 312 311 312 312 313 313 314 314 315 314 314 316 314 313 314 314 316 315 314 314 313 312 313 313 312 312 312 312 312 312 312 312 312 312 312 312 312 311
305 306 306 309 310 310 310 310 310 310 309 310 311 311 312 312 312 312 313 314 314 314 316 316 314 314 316 313 314 315 315 316 316 315 314 313 313 313 313 313 313 313 313 313 312 312 311 311 312 313 312 313 310 311
305 308 308 308 309 309 309 309 309 309 308 310 311 312 312 313 314 314 314 313 314 314 315 315 315 314 313 314 314 316 316 316 314 314 315 314 314 313 314 314 314 313 313 314 313 313 314 313 313 312 311 312 312 311
308 309 308 308 309 309 309 309 310 310 310 311 311 313 312 313 314 314 313 314 312 312 315 313 313 314 314 315 316 316 316 316 316 316 315 315 315 315 316 315 315 311 313 313 313 313 313 313 313 312 311 311 311 311
308 308 308 308 308 308 309 310 311 312 312 312 312 313 313 312 312 312 312 313 313 314 313 314 314 314 315 315 316 316 316 315 315 316 316 316 315 314 315 313 311 311 312 311 309 310 313 312 312 312 311 311 311 312
308 306 309 308 308 310 311 310 311 311 312 311 311 312 313 313 312 312 312 312 313 314 315 315 315 315 316 316 315 315 315 315 314 313 312 313 313 312 311 311 311 311 311 311 311 311 309 310 310 311 311 311 312 312
307 308 308 309 311 312 312 311 310 312 312 313 311 312 314 313 313 313 313 314 315 315 316 316 316 316 316 316 316 315 315 314 314 314 313 311 311 311 312 312 312 312 312 312 312 312 312 312 312 311 312 312 312 311
309 309 310 313 314 313 313 314 314 314 314 314 314 313 314 315 316 315 315 315 316 316 316 316 317 317 316 316 316 316 314 314 314 314 314 312 312 312 312 312 312 312 312 312 312 312 313 312 312 312 312 311 311 310
314 313 314 314 315 314 313 314 314 315 315 316 316 315 315 316 317 315 314 314 315 315 316 317 316 315 315 316 315 314 312 311 310 311 312 313 312 311 312 313 313 313 313 313 312 312 311 312 311 311 310 310 308 308

GFSWCAN_925_thetae_045.txt.gz
Theta_e
307 307 307 306 302 300 301 301 301 301 299 297 298 298 296 295 296 305 309 306 310 314 314 312 313 316 317 318 323 324 327 330 330 329 326 326 327 327 328 335 338 334 335 333 334 338 341 338 340 340 347 344 339 340
308 308 307 307 303 300 300 301 301 301 300 299 297 298 296 295 295 304 308 307 307 311 313 311 310 310 311 313 316 321 328 329 328 331 331 332 331 330 332 331 332 334 341 341 338 346 345 347 354 350 349 346 343 343
308 309 308 307 303 301 300 301 301 301 300 299 297 297 297 295 295 302 307 308 311 314 314 313 316 316 314 314 314 319 322 320 324 324 329 330 335 333 329 328 329 335 335 332 338 339 346 345 347 347 348 348 343 343
308 309 308 307 304 301 300 301 301 301 301 300 298 297 297 295 295 305 309 309 311 313 314 318 314 315 314 315 315 314 315 317 317 320 325 327 330 328 330 331 331 333 329 333 332 339 340 345 347 346 347 348 343 342
308 309 309 307 305 302 301 301 301 301 301 300 299 297 297 295 295 306 309 310 310 314 317 317 314 314 315 315 315 315 317 319 318 320 323 325 325 328 328 327 327 329 336 333 345 345 343 351 347 346 346 345 344 344
309 309 310 307 305 302 301 301 301 302 301 300 298 297 296 295 297 308 314 311 311 311 315 316 317 317 315 315 316 318 317 317 316 318 321 322 323 324 326 327 334 332 331 333 340 340 343 344 344 344 344 344 344 344
309 309 309 307 305 302 301 301 301 301 301 300 297 297 296 295 299 308 312 310 306 309 315 314 316 317 316 316 317 317 317 317 316 317 317 321 321 322 324 327 330 332 333 337 338 339 341 341 345 345 341 340 340 340
309 309 309 307 303 301 300 301 302 301 301 298 297 296 295 297 299 305 310 308 307 311 312 315 317 318 316 317 317 318 316 317 317 315 316 320 320 320 323 329 331 331 333 334 333 332 334 339 341 340 340 337 335 334
309 309 308 304 301 300 300 301 301 301 300 297 297 296 303 306 309 312 308 308 309 313 316 313 316 320 319 317 318 318 317 317 317 316 315 317 320 319 321 325 325 328 331 333 330 331 328 330 337 339 336 330 329 331
309 309 307 302 301 300 301 301 301 301 298 297 300 307 310 310 308 308 310 313 313 313 313 314 314 318 316 317 318 318 318 318 318 317 317 316 316 319 320 322 323 323 324 327 330 329 328 328 331 331 334 330 327 327
305 304 302 301 301 302 301 301 301 299 297 301 306 311 310 307 310 312 313 313 314 313 312 312 313 315 317 320 321 320 320 321 318 319 319 318 316 323 324 323 322 322 323 325 329 329 328 330 329 329 328 326 326 327
301 301 301 301 301 300 300 301 300 300 301 305 308 308 309 310 312 313 313 313 314 313 313 312 312 314 319 318 320 321 319 320 321 321 320 318 332 327 324 323 323 322 323 324 324 325 325 326 326 326 326 326 326 325
302 301 300 298 298 299 301 300 298 300 302 306 309 310 311 311 317 312 313 313 314 314 316 316 316 313 316 318 319 319 321 320 320 321 320 329 329 326 324 323 323 322 321 322 322 322 322 322 322 322 324 324 324 324
301 300 299 298 299 301 300 298 298 301 305 309 311 311 312 311 310 310 312 314 318 317 317 318 318 315 317 321 320 321 319 320 323 321 322 329 326 325 323 322 322 322 322 322 322 321 321 321 322 322 323 323 323 324
300 299 299 300 300 300 298 297 298 303 308 310 310 313 309 311 311 312 314 315 316 317 319 320 319 317 318 319 319 319 321 322 320 324 329 331 327 325 324 321 321 322 322 322 321 322 322 322 322 323 323 323 323 323
300 300 301 300 300 299 297 297 301 306 308 310 310 312 311 312 312 313 313 315 316 317 320 319 318 317 318 317 318 319 319 321 326 328 328 327 325 323 322 321 321 321 321 321 321 322 322 322 322 322 321 322 322 321
301 303 302 301 300 297 299 301 304 307 309 310 311 312 312 314 314 314 315 317 317 320 322 319 319 318 318 319 318 319 322 325 326 327 327 325 323 322 321 321 321 320 320 320 320 321 321 322 322 323 323 323 321 321
302 302 302 301 298 299 301 303 306 307 308 310 311 312 312 313 314 315 316 317 318 320 321 321 320 320 319 319 321 322 323 324 322 323 322 322 321 321 320 321 320 321 320 320 322 322 322 322 322 321 321 321 321 321
303 302 301 301 299 299 303 305 306 308 309 310 311 312 312 314 316 316 317 317 317 318 319 318 319 319 321 320 321 323 324 324 324 322 320 320 320 319 319 319 321 321 320 320 321 321 321 321 320 320 320 319 320 318
302 301 300 299 299 301 303 304 305 310 310 310 312 312 313 316 318 317 316 317 318 318 318 318 318 322 320 320 320 321 320 320 320 319 318 319 318 319 319 320 320 320 320 319 320 318 320 319 318 319 318 317 318 317
300 299 297 299 304 305 307 306 309 310 311 312 313 314 316 319 319 316 316 316 317 317 317 316 318 319 319 319 318 318 319 318 319 317 317 316 316 318 318 318 317 320 318 317 319 317 318 319 319 318 317 317 316 315
299 300 302 302 306 308 309 309 312 312 313 315 315 316 318 320 319 317 315 316 316 316 317 317 317 319 319 320 318 318 317 317 316 315 314 315 319 317 318 316 318 317 317 318 319 319 318 317 316 313 314 316 314 314
300 302 306 307 308 309 311 311 313 314 316 316 315 316 316 316 315 314 315 315 316 317 316 316 317 316 316 316 317 317 316 316 316 315 317 317 316 316 317 316 315 315 316 318 318 316 313 312 313 313 315 315 315 314
303 306 307 308 309 310 310 313 313 313 314 315 315 315 315 315 314 314 316 315 315 314 314 315 314 315 316 317 317 317 317 317 317 317 317 316 316 315 317 317 317 317 317 314 313 311 312 314 313 314 313 313 312 312
306 306 306 305 309 309 310 310 311 312 314 313 313 314 314 312 314 316 317 313 314 315 314 315 316 317 318 318 317 315 314 315 316 315 315 316 314 315 318 317 316 314 313 313 313 313 313 313 314 313 313 312 312 312
304 307 309 309 309 310 311 311 311 311 311 312 312 313 312 314 314 313 315 316 315 315 316 318 319 318 318 317 315 316 316 316 315 315 314 314 314 314 313 313 314 313 314 313 313 313 313 313 312 312 313 313 311 312
308 309 310 310 310 310 310 311 311 311 311 311 312 313 312 313 316 314 315 315 317 317 317 317 317 317 317 316 314 315 316 317 315 315 314 314 313 313 314 314 315 314 313 314 313 312 313 313 312 312 312 313 312 312
308 310 309 310 310 310 310 310 311 311 311 311 311 312 313 313 316 316 316 316 315 315 316 316 315 314 314 315 315 317 317 316 316 316 315 314 314 314 314 314 313 310 313 313 313 313 313 313 313 312 312 312 312 312
309 309 309 309 309 310 310 311 311 312 312 312 314 313 315 315 314 314 314 315 314 316 315 315 315 315 316 316 316 315 315 315 315 316 317 316 316 314 314 314 311 312 313 312 309 309 311 312 313 312 312 312 312 312
311 309 309 309 310 311 312 311 314 314 313 312 311 312 313 314 313 312 312 314 316 315 315 315 315 316 316 315 316 316 316 315 315 314 315 316 315 315 313 312 312 312 312 312 313 311 310 310 310 311 312 312 313 313
310 310 311 311 312 312 314 313 313 313 313 313 312 312 313 314 314 313 314 313 315 315 316 317 316 315 316 316 315 316 316 315 314 313 313 313 312 312 312 312 313 313 312 313 313 313 313 313 313 313 313 313 313 312
309 309 310 312 313 313 314 315 315 315 315 315 315 314 315 316 317 316 315 315 316 317 317 316 317 317 316 315 315 316 315 315 313 314 313 313 313 313 313 313 313 313 313 313 313 313 313 314 313 313 313 313 312 311
312 312 313 315 315 315 314 316 317 317 317 317 317 315 315 315 317 316 316 317 317 317 316 317 316 316 317 317 317 316 314 314 312 311 312 313 314 313 313 313 314 313 313 313 313 313 312 312 312 312 312 311 311 310

GFSWCAN_925_thetae_048.txt.gz
Theta_e
309 307 307 306 305 302 300 300 301 301 301 300 297 298 297 296 296 301 312 309 311 317 316 315 315 318 319 320 322 323 327 327 328 330 327 327 329 330 331 333 337 337 339 338 340 339 341 350 337 341 343 338 343 342
309 308 307 307 306 304 301 300 301 301 301 300 298 297 297 296 296 299 311 310 309 311 315 313 312 312 313 315 317 321 324 330 330 332 334 334 330 335 338 337 335 337 347 343 343 345 343 346 352 352 350 352 349 346
309 308 307 307 307 306 302 300 301 301 301 300 300 297 297 296 295 300 308 311 312 314 315 314 315 315 314 315 315 320 324 322 326 324 329 330 338 334 337 335 337 338 336 338 345 348 344 342 350 348 349 346 342 343
309 308 307 305 305 306 302 300 301 301 301 301 300 298 297 296 295 303 309 311 313 315 316 318 317 315 314 315 316 316 318 320 322 323 325 327 329 331 334 333 333 333 335 340 343 346 342 350 346 349 348 347 341 341
309 308 307 304 306 307 302 300 301 301 301 301 300 298 297 296 295 303 309 311 312 314 318 319 316 315 315 316 316 316 318 320 323 323 323 323 326 328 327 332 334 335 338 339 343 345 348 351 349 345 345 343 342 343
309 308 306 307 308 306 302 300 301 301 302 301 300 298 297 296 296 307 315 312 311 312 316 317 318 317 316 316 316 318 319 319 318 321 323 323 326 325 326 329 331 333 334 330 339 344 347 346 345 342 343 343 342 343
309 307 307 308 308 306 302 301 301 301 302 300 300 297 297 296 297 309 313 311 306 310 317 316 315 318 317 316 317 318 318 318 318 319 321 322 323 323 325 328 331 332 325 333 334 339 340 340 345 341 341 340 339 338
308 307 308 309 308 306 302 301 301 301 301 300 298 297 296 296 298 304 309 308 308 314 314 316 319 320 317 317 317 318 317 317 318 318 318 321 323 323 325 325 326 324 327 333 333 333 337 341 338 337 334 333 332 332
308 308 308 309 307 304 302 301 301 301 301 299 297 296 302 305 311 314 309 305 310 314 318 313 316 323 319 317 318 320 319 318 318 317 318 318 321 322 322 325 323 329 332 333 332 331 329 333 338 332 328 331 334 330
309 309 309 308 306 302 301 301 301 301 300 297 299 306 312 312 308 305 309 313 313 313 314 316 316 317 321 317 317 317 319 319 316 318 318 316 317 320 321 322 324 324 323 325 332 335 329 330 334 326 331 331 329 327
309 309 309 308 303 301 301 301 301 301 297 301 307 313 312 305 309 313 315 314 314 314 313 312 313 315 319 319 325 322 323 324 323 319 318 318 319 319 325 326 323 322 321 322 327 330 329 332 332 331 329 330 328 327
309 308 308 307 302 301 302 301 301 301 302 305 309 310 307 311 313 314 315 314 315 314 314 313 313 314 321 320 323 324 322 320 323 322 323 323 334 327 325 323 322 322 323 324 325 326 326 327 326 328 329 327 326 326
306 305 304 303 302 302 301 300 299 301 302 307 310 310 312 312 315 314 314 315 314 314 316 315 317 314 315 317 317 322 325 322 322 322 323 329 331 327 325 323 322 321 321 321 321 322 322 322 323 324 324 324 324 325
301 301 302 302 301 300 299 300 299 299 303 310 311 311 312 312 311 312 313 314 316 316 317 317 317 314 315 318 317 318 319 321 324 322 321 328 329 327 325 324 323 324 323 322 322 322 322 323 323 323 324 324 325 325
300 299 299 299 299 299 300 300 299 301 307 311 310 312 310 313 311 312 316 318 317 317 319 317 319 316 318 318 321 323 323 322 323 327 328 329 330 326 325 324 323 325 324 325 323 323 323 323 323 324 324 324 323 324
300 299 299 300 301 300 299 297 299 305 309 311 311 312 311 312 313 313 314 315 316 316 317 318 319 317 321 321 318 321 318 324 326 327 326 327 326 325 324 324 323 323 322 322 322 322 323 323 323 323 323 324 323 322
301 302 301 301 300 298 297 301 305 308 309 310 311 313 313 313 314 313 314 317 316 319 319 319 320 320 318 321 320 320 324 326 324 324 323 323 325 324 322 322 322 321 321 322 321 322 322 323 323 323 323 323 322 321
303 301 300 300 297 299 302 303 306 307 308 310 312 312 313 316 316 316 316 319 318 319 319 320 322 322 321 318 323 320 320 326 327 324 327 326 323 322 321 321 321 321 322 321 322 322 323 323 322 321 322 322 321 320
302 301 301 299 301 302 305 306 307 308 308 309 312 313 312 314 316 316 316 317 317 319 320 320 320 321 323 324 325 327 325 324 325 324 323 323 321 320 320 320 320 322 322 321 321 322 322 322 320 320 319 320 320 318
302 302 301 299 300 304 304 306 307 312 310 310 312 312 313 314 316 315 316 317 316 318 318 319 319 324 321 314 321 321 321 320 319 319 324 320 321 319 320 320 320 321 322 321 322 319 321 320 320 319 318 318 319 317
302 301 300 300 305 307 308 306 309 311 313 312 312 314 315 316 316 319 318 316 316 317 318 318 320 317 321 320 319 319 320 319 320 319 319 318 316 317 318 320 320 321 320 320 321 319 321 320 319 319 319 317 317 317
301 299 302 303 306 308 310 310 311 312 313 314 314 315 317 319 320 320 317 317 316 317 318 320 321 321 321 322 321 320 319 318 317 317 315 315 318 319 320 318 319 319 320 320 321 320 319 319 317 315 317 315 315 316
301 303 305 306 309 310 310 311 313 314 315 315 316 316 319 319 318 318 317 315 317 319 319 320 320 319 318 317 317 318 318 318 317 317 319 318 318 318 318 318 316 318 319 317 319 317 314 312 312 313 316 316 315 315
304 307 308 309 310 312 311 314 315 315 317 317 317 317 317 317 316 315 317 316 316 317 316 318 316 316 317 319 318 320 319 319 319 319 319 317 317 316 316 316 317 317 318 315 312 312 314 316 315 316 315 314 313 313
307 307 307 306 310 311 312 312 314 314 316 316 316 316 315 314 315 319 319 316 315 316 317 316 316 316 318 320 318 318 317 317 318 318 316 315 316 316 316 317 318 318 316 315 314 314 315 315 314 314 314 313 312 313
306 308 308 310 311 312 312 312 312 314 314 313 313 314 313 314 315 314 316 318 317 316 316 319 320 321 320 318 319 317 317 316 316 315 316 316 316 317 316 315 315 315 315 315 314 314 314 314 312 314 314 314 311 312
307 311 311 311 311 312 312 311 312 312 312 312 313 314 314 314 315 315 317 318 320 318 318 318 318 319 319 318 317 315 315 317 317 315 315 315 315 314 314 314 315 314 315 313 314 313 313 313 313 313 313 314 313 313
309 311 311 311 311 311 311 312 312 312 312 312 312 313 313 314 316 319 318 316 316 316 317 317 317 317 318 316 315 315 316 317 318 317 316 316 316 314 315 315 315 313 314 313 314 314 314 314 314 314 313 313 313 313
310 310 310 311 311 311 311 311 312 313 314 314 315 316 318 317 315 315 315 316 316 317 317 317 314 314 314 316 315 316 317 317 316 318 317 316 316 315 315 315 312 311 312 312 309 310 311 313 314 313 313 313 313 313
310 309 311 312 311 312 313 313 313 315 315 314 314 314 314 314 314 315 315 315 317 317 316 315 315 315 316 317 316 316 316 316 316 316 317 317 316 316 315 315 313 313 313 314 314 313 311 311 312 312 313 314 314 314
312 311 312 312 313 313 315 315 315 315 315 315 313 314 314 314 313 314 316 317 316 316 316 316 316 317 317 317 316 316 316 316 315 314 315 314 314 314 314 313 313 314 313 313 313 313 314 313 314 314 314 314 314 314
310 310 311 312 314 314 315 315 315 315 315 315 315 314 315 315 317 316 315 315 316 316 317 315 317 317 317 317 316 316 314 315 315 316 315 315 315 314 314 313 314 314 314 314 313 314 314 314 314 313 314 314 313 312
312 312 312 315 315 315 315 316 317 317 317 318 318 316 316 317 317 316 316 316 317 318 318 316 317 317 317 315 316 316 315 314 311 311 311 311 311 311 312 314 314 315 314 313 314 313 313 313 313 313 312 312 312 312

GFSWCAN_925_thetae_054.txt.gz
Theta_e
316 314 312 310 309 308 307 306 303 301 301 301 300 300 297 297 296 297 309 311 310 306 307 312 311 310 310 312 315 313 320 319 326 328 325 323 325 325 322 329 334 327 333 325 327 332 334 339 344 339 335 335 337 335
316 314 312 310 309 308 307 307 303 301 301 301 301 300 298 297 296 297 309 310 312 307 305 310 310 311 312 311 310 311 314 320 324 324 326 327 335 332 332 335 328 334 332 333 341 339 333 336 334 329 331 335 337 338
315 314 312 311 310 309 308 307 304 301 301 301 301 300 299 297 296 296 302 310 311 308 309 310 309 311 311 312 314 312 316 316 319 318 320 324 331 328 332 332 330 329 331 333 331 333 333 332 328 326 327 329 332 335
315 314 312 311 309 309 308 307 304 301 300 301 301 300 300 297 296 296 300 308 309 309 311 310 315 314 315 314 315 316 315 316 315 317 319 319 327 326 330 326 328 329 329 332 334 332 330 329 326 327 327 330 336 339
314 314 312 311 309 309 307 307 304 301 300 301 301 301 300 297 297 297 301 307 309 310 311 311 313 316 314 315 315 315 316 314 314 314 319 318 321 322 321 325 329 329 328 327 328 331 329 329 325 326 329 327 328 335
315 314 311 310 309 308 307 306 304 301 300 301 301 301 300 297 296 305 309 309 308 309 310 314 312 313 314 315 315 314 313 314 315 313 313 318 318 319 320 327 327 328 328 325 328 328 328 326 326 328 328 332 331 331
314 313 311 309 309 308 307 306 304 300 300 301 302 300 299 297 296 303 309 310 306 307 311 315 311 312 315 315 311 311 312 312 310 311 314 317 319 316 317 320 329 326 324 329 326 326 327 324 325 330 329 326 325 327
311 311 309 309 308 307 306 305 304 300 301 301 301 300 297 296 296 299 305 306 306 311 311 312 312 313 314 312 312 310 312 312 312 311 310 316 317 316 319 319 324 325 326 327 326 324 323 322 323 326 331 330 330 330
310 309 309 308 308 306 305 306 302 300 301 301 301 298 297 299 304 312 312 308 307 312 314 313 311 317 312 312 311 313 311 314 311 313 311 313 317 318 316 316 320 323 324 322 324 324 325 326 327 331 330 330 328 327
309 309 308 308 306 305 307 304 301 301 301 301 297 303 305 309 313 306 303 308 308 309 309 310 309 311 314 315 318 318 316 318 321 313 310 312 312 312 314 314 318 322 320 314 318 325 327 331 331 331 328 328 327 327
308 308 308 307 306 307 306 301 301 301 301 297 302 305 312 309 308 309 313 311 309 311 307 307 306 307 308 319 320 316 318 317 316 317 319 316 323 321 318 316 318 314 320 324 325 325 325 326 328 328 328 327 326 326
308 308 308 306 306 307 304 301 301 301 299 302 304 305 307 308 311 314 312 311 312 312 310 308 308 306 314 317 317 317 318 318 320 318 319 322 321 318 320 322 321 317 320 320 323 327 327 328 327 323 324 326 326 326
305 308 307 305 306 307 303 301 301 301 302 304 305 310 309 309 311 313 314 313 312 311 312 310 309 312 310 311 318 319 321 319 317 321 323 321 318 318 320 322 323 320 321 322 322 323 325 324 323 324 324 324 324 323
306 308 306 304 307 304 301 301 301 301 302 307 310 307 309 312 311 311 311 310 310 313 309 311 311 309 311 312 313 317 319 321 322 321 323 317 315 318 316 316 321 322 320 321 322 322 322 323 323 324 324 323 322 321
308 307 305 306 307 302 301 301 301 300 303 309 311 309 311 310 308 308 307 311 313 310 311 314 314 311 313 317 318 316 318 321 322 322 319 319 318 314 316 321 322 321 319 318 321 321 322 322 323 323 323 322 321 320
307 306 305 305 305 302 301 300 299 301 306 310 312 311 309 307 308 309 313 314 312 312 312 314 317 316 320 317 321 321 321 323 319 319 317 316 317 319 320 321 320 319 319 319 320 320 321 322 321 321 321 321 320 318
304 303 305 304 304 303 302 300 300 304 309 311 311 309 308 310 314 313 312 314 315 313 317 316 319 320 316 318 321 320 322 320 318 318 317 316 316 318 318 318 319 319 319 319 320 320 320 322 322 321 320 320 317 316
302 302 303 303 303 302 301 301 304 308 310 308 308 308 313 313 313 312 312 314 314 314 315 318 316 319 320 322 321 315 316 313 314 315 313 312 317 319 319 317 318 320 320 320 320 320 321 320 319 319 320 318 316 316
300 300 301 301 301 302 301 303 304 310 307 306 306 307 311 312 311 311 311 312 314 315 314 315 318 319 318 316 318 315 315 314 316 316 315 317 319 319 319 319 321 320 319 319 319 319 320 319 319 320 319 318 316 315
300 299 299 302 301 303 306 306 308 309 311 306 306 310 311 311 312 313 313 313 312 313 316 317 317 315 313 312 312 314 315 316 316 316 316 315 319 319 318 318 318 320 319 320 320 319 320 319 318 318 317 317 316 316
299 300 300 301 303 302 307 308 307 308 309 311 311 312 313 312 315 314 314 313 313 313 317 316 315 313 313 315 316 316 317 317 315 314 314 314 316 319 318 318 319 319 318 318 318 318 319 318 319 317 318 317 316 316
301 301 301 301 303 308 309 310 310 309 311 313 311 312 314 314 313 313 312 314 318 316 314 314 316 314 314 315 318 319 318 318 317 317 316 314 313 314 315 317 318 317 318 318 319 318 318 319 318 318 318 317 317 315
301 302 305 307 309 305 308 310 312 312 314 313 312 315 314 314 313 312 314 312 315 314 316 316 317 316 318 319 318 318 318 318 317 317 317 317 317 317 318 318 317 317 317 317 318 319 318 316 314 315 315 315 315 316
304 306 308 309 309 307 311 313 313 315 315 315 315 317 316 315 313 314 314 316 315 313 314 315 316 314 316 317 315 317 318 318 317 318 318 316 315 317 317 316 316 317 316 316 316 313 312 313 314 315 315 314 314 314
305 304 306 302 307 312 313 314 314 314 315 315 317 315 314 314 314 313 312 315 313 314 315 316 316 314 314 314 315 317 317 317 317 315 318 317 316 316 316 316 316 316 317 318 318 313 314 314 314 314 312 311 313 315
301 306 307 311 310 312 313 314 314 314 315 316 316 314 313 315 316 308 315 315 315 314 315 314 314 314 313 316 313 315 318 316 316 316 317 315 315 315 315 316 316 315 316 317 317 314 314 314 313 313 313 314 312 313
307 312 309 308 311 312 311 311 313 314 315 314 314 314 312 313 315 317 314 314 313 317 317 317 317 316 316 317 317 315 315 316 317 317 317 315 315 314 315 317 314 314 314 314 314 315 314 313 313 314 313 313 313 314
309 311 312 310 310 310 312 312 311 313 314 312 312 314 315 317 318 314 313 316 316 316 316 316 317 317 317 317 318 316 315 315 315 316 317 317 316 315 316 316 315 314 313 313 314 314 314 314 314 314 314 314 313 313
310 309 310 311 311 311 314 314 314 313 312 312 314 314 315 313 313 314 315 315 315 317 316 317 316 316 317 317 316 316 315 315 317 317 317 316 317 317 316 316 315 315 314 312 310 311 311 311 314 314 312 311 312 314
310 308 310 312 312 315 314 313 314 312 311 312 312 311 311 312 314 314 314 314 315 316 316 314 314 315 314 315 315 314 315 316 317 317 316 315 316 316 315 315 315 315 313 311 311 311 312 311 311 310 311 312 313 314
310 310 311 311 312 314 313 313 314 314 312 313 312 312 313 311 312 315 315 316 317 315 315 315 315 316 315 316 316 317 316 316 316 316 316 316 316 316 315 315 314 315 315 314 313 313 312 312 312 312 314 314 314 314
311 312 312 313 314 313 312 313 312 313 314 313 313 312 313 314 315 315 316 317 317 316 316 316 316 317 317 316 316 317 317 317 317 312 311 312 311 311 313 314 314 314 314 313 314 314 314 314 314 314 314 314 314 314
311 311 311 313 314 314 313 314 315 316 316 316 316 315 315 316 316 314 315 316 317 316 316 316 315 316 317 317 318 318 317 316 312 311 311 311 311 310 310 312 314 314 314 314 313 313 313 313 312 311 311 310 310 310

GFSWCAN_925_thetae_060.txt.gz
Theta_e
311 312 314 314 315 314 313 311 310 308 305 303 301 302 301 300 298 297 297 302 305 303 304 306 309 308 306 308 311 311 318 319 320 326 320 319 322 326 329 329 333 330 333 326 321 322 325 331 331 337 331 327 330 332
310 311 313 315 315 314 312 311 310 308 306 305 301 301 301 300 298 297 299 304 305 305 306 308 309 309 308 307 307 309 316 316 320 323 322 322 329 326 327 333 327 334 329 331 333 331 328 330 328 326 325 328 330 334
310 310 313 315 315 313 312 311 310 309 307 305 301 301 301 300 299 298 297 299 305 304 306 306 305 308 310 311 310 310 310 313 317 312 317 320 326 322 327 327 328 329 327 329 329 331 330 330 327 325 325 326 326 328
310 311 312 314 315 314 312 311 310 308 307 304 301 301 301 300 300 298 297 297 300 304 309 308 312 312 312 309 310 312 312 311 311 312 315 317 321 321 326 323 325 326 325 328 327 323 324 329 326 325 325 327 328 329
307 310 311 312 314 313 312 311 310 308 307 303 301 301 301 301 300 298 296 297 303 306 308 308 308 312 313 311 312 314 312 308 309 312 316 317 316 321 317 323 326 324 325 321 322 321 326 325 324 324 328 327 325 326
306 309 311 313 314 312 311 311 310 308 307 303 301 301 301 301 300 297 304 305 304 305 305 307 307 310 311 312 311 310 308 308 308 309 309 310 313 316 319 326 324 323 323 319 322 325 324 325 325 324 327 325 326 328
307 308 311 313 314 312 311 310 309 308 307 302 301 301 302 301 300 297 305 305 303 304 304 309 308 307 310 309 306 305 307 306 307 306 309 313 315 312 314 317 321 323 323 323 322 325 324 324 324 324 324 325 328 328
306 308 309 313 313 312 310 310 309 308 305 301 301 301 301 300 298 298 299 300 302 300 307 311 309 310 309 308 309 303 307 306 306 306 306 313 313 311 317 313 315 323 323 323 325 323 321 321 321 321 321 325 327 328
305 308 309 312 313 311 310 309 308 306 303 301 301 301 299 297 297 300 307 303 301 308 311 308 309 314 307 306 308 309 306 310 306 309 307 310 312 315 312 314 314 320 323 323 320 320 321 322 322 323 324 326 326 326
304 307 309 311 311 310 309 308 307 304 301 301 301 299 298 299 304 306 306 302 303 304 305 309 305 311 309 309 313 314 310 313 315 312 308 308 311 313 315 315 314 313 315 318 316 322 324 323 324 325 324 323 323 324
303 307 309 310 310 309 308 307 305 301 301 301 298 301 305 309 307 305 306 306 303 308 306 308 306 308 305 315 313 310 312 311 314 313 315 317 320 318 314 317 315 313 316 318 321 322 322 323 323 323 324 323 323 322
302 306 308 309 309 308 307 306 302 301 301 298 300 303 304 306 308 311 311 309 308 308 307 307 306 304 305 309 312 312 315 313 315 313 316 322 319 314 315 317 318 316 317 319 322 324 323 321 320 322 324 324 323 322
301 303 308 308 308 308 306 303 301 301 298 302 303 307 306 306 308 313 313 311 311 309 308 305 307 308 306 310 313 315 317 316 313 318 319 317 313 313 314 314 319 319 320 319 320 321 322 321 322 322 321 321 320 319
300 301 307 308 308 306 305 301 301 301 302 306 309 309 309 309 309 310 311 312 310 308 306 304 306 307 306 311 311 317 314 315 318 318 319 314 313 313 312 315 319 320 320 319 319 319 321 321 321 320 319 318 317 316
301 301 303 308 307 306 303 301 301 300 304 308 310 311 310 309 308 308 307 305 305 305 308 309 308 309 311 315 312 312 317 320 319 318 315 313 312 311 316 318 318 318 317 317 317 319 319 319 318 317 317 317 315 313
300 301 301 306 306 304 302 301 301 301 305 307 309 312 309 307 306 306 305 306 305 307 308 309 312 315 316 314 317 315 316 318 316 313 312 312 314 313 315 320 320 319 317 316 315 316 318 318 318 317 315 314 313 313
300 303 304 306 305 302 301 300 301 303 307 310 311 308 308 307 308 311 307 308 306 311 314 312 316 316 311 316 319 316 317 314 312 313 311 310 312 313 314 316 317 316 316 316 316 317 317 318 317 315 313 313 313 312
302 305 305 303 301 300 301 303 304 306 309 309 309 309 309 310 311 311 310 310 311 311 311 316 312 316 317 319 317 313 311 310 309 311 311 311 312 314 316 314 315 316 316 316 316 317 317 317 315 314 313 313 312 312
303 304 303 301 301 302 302 302 302 308 309 307 309 309 310 312 310 308 308 308 308 309 311 312 315 314 313 310 312 310 309 309 311 311 310 311 312 315 316 314 317 316 316 315 315 315 316 316 317 316 314 314 312 312
302 301 301 301 303 304 306 305 303 308 310 310 308 311 311 312 309 309 309 308 308 310 312 314 313 311 310 309 307 309 310 309 311 314 313 311 313 315 315 315 315 315 316 316 316 317 317 315 317 316 316 314 313 313
302 302 303 303 305 303 305 306 309 308 309 311 310 310 311 308 310 310 311 306 311 311 314 311 310 308 307 308 310 312 311 311 311 311 312 312 312 314 314 315 315 315 314 314 314 315 316 316 316 316 316 316 316 314
302 303 304 303 303 304 307 308 307 307 309 310 310 309 310 310 309 310 307 312 312 311 309 309 309 308 310 311 312 314 315 314 313 312 311 311 311 311 312 313 313 312 313 314 315 316 317 317 317 316 316 315 314 314
303 305 304 303 308 309 313 307 311 311 312 311 310 312 311 311 310 307 311 309 310 308 309 309 310 311 311 315 314 314 314 314 312 313 313 311 311 313 313 314 314 314 315 316 316 317 318 317 317 317 316 316 315 315
301 304 307 309 309 311 310 312 311 310 310 312 312 314 313 312 308 310 313 310 309 307 309 310 312 311 312 313 311 312 314 315 314 313 313 312 311 312 314 315 315 315 316 315 316 315 317 317 317 314 312 312 312 313
303 303 306 305 306 310 311 311 310 311 313 312 312 311 311 308 310 310 310 311 309 310 310 310 310 309 311 309 309 312 315 315 312 310 313 314 314 314 315 315 315 316 316 316 315 313 311 312 313 313 312 312 311 311
303 305 306 309 308 310 310 312 311 312 312 314 313 309 309 310 311 309 311 311 310 310 311 310 310 310 309 309 310 310 313 316 315 314 316 316 316 313 312 313 313 313 314 315 315 315 313 313 313 312 312 312 310 312
309 309 306 303 306 306 308 308 308 309 311 313 311 309 310 313 314 313 309 309 310 313 314 314 314 312 311 313 314 315 315 316 316 316 316 315 314 314 315 314 313 315 315 315 315 313 314 315 314 312 312 312 312 312
307 306 309 306 309 309 310 310 312 312 312 309 310 315 316 314 312 310 309 313 313 314 314 314 315 315 315 316 316 315 315 315 314 315 315 315 316 316 315 315 315 315 315 314 314 310 311 313 313 313 313 313 313 313
306 305 306 309 311 311 311 312 312 310 307 307 311 311 312 309 309 310 312 313 313 313 313 313 314 315 315 316 316 316 314 314 314 314 314 314 314 315 315 316 316 315 315 314 314 314 313 311 313 313 312 313 313 312
307 303 307 310 311 311 310 308 310 308 306 307 306 306 306 307 311 313 313 313 312 311 313 313 313 312 312 314 315 315 315 314 313 313 313 315 315 316 315 314 315 315 315 315 315 314 314 312 310 310 310 311 312 311
304 305 306 307 311 309 308 307 307 307 307 308 306 308 309 308 311 312 313 314 313 314 313 313 313 313 314 313 313 314 314 316 316 316 316 316 316 315 312 313 314 314 314 315 314 314 314 312 310 309 309 309 310 310
305 307 308 309 310 307 307 308 309 312 311 310 310 309 310 311 313 311 315 315 315 314 314 314 314 315 315 314 315 316 316 316 317 317 317 316 315 311 310 310 311 312 313 313 313 313 313 313 313 314 313 313 313 313
306 306 307 309 310 312 313 313 315 316 314 316 315 314 313 314 314 311 315 315 315 315 315 315 315 315 315 316 316 316 316 316 316 316 316 316 314 311 310 310 310 308 308 309 312 312 312 312 312 313 313 313 313 313

GFSWCAN_925_thetae_063.txt.gz
Theta_e
308 309 311 312 314 313 314 313 312 311 309 306 304 302 302 301 300 298 297 299 305 309 309 308 309 310 311 312 316 317 323 326 328 331 325 325 326 331 333 334 338 337 336 329 327 328 327 334 333 342 338 334 333 336
308 309 310 311 313 314 315 313 312 311 309 307 305 302 302 301 300 298 297 302 304 305 311 308 309 309 309 309 310 314 322 323 325 330 328 331 335 334 336 340 332 341 337 343 342 337 335 334 332 330 329 330 331 331
307 309 310 310 313 315 315 313 312 311 309 307 305 301 302 301 300 299 297 297 303 308 311 310 310 307 308 309 308 314 316 319 322 319 325 329 334 330 336 331 335 335 332 338 335 335 334 333 332 329 328 329 330 331
306 308 310 310 312 314 315 313 312 311 309 307 306 301 301 301 301 300 298 297 297 307 312 312 311 312 311 310 309 309 315 314 318 319 323 325 328 327 330 330 329 330 331 334 329 328 330 332 332 330 328 329 329 329
302 305 308 310 312 314 314 313 311 310 309 307 306 301 301 301 301 300 299 297 297 308 312 312 310 311 311 307 312 313 315 318 319 321 324 325 323 328 327 329 330 329 329 325 324 328 332 331 329 329 329 328 329 331
302 305 307 309 311 312 314 312 311 310 309 307 304 301 301 302 301 298 305 304 298 303 310 314 309 313 311 311 312 313 315 316 318 319 319 319 319 323 328 331 330 329 328 325 330 329 330 330 329 328 329 329 328 331
301 304 306 309 311 312 313 312 311 310 308 307 302 301 301 302 301 298 305 304 303 304 310 310 316 312 310 311 311 312 312 313 315 315 318 322 323 321 323 325 330 328 328 329 328 329 328 328 328 326 326 326 325 330
301 303 306 308 311 313 313 311 310 309 308 306 301 301 301 301 300 299 298 298 303 301 309 316 316 315 311 315 316 310 315 315 315 315 314 321 321 320 322 320 321 327 327 327 328 329 330 328 327 327 326 328 330 331
300 301 306 308 311 313 312 311 310 308 307 302 301 301 301 299 298 298 304 306 298 305 314 314 315 319 312 314 315 317 314 317 313 318 316 318 320 320 321 324 324 323 326 327 325 321 324 327 327 327 329 329 330 331
299 303 306 308 311 313 311 310 309 307 302 301 301 300 300 298 302 304 305 307 306 309 310 314 312 318 315 316 319 321 318 320 321 320 315 317 319 322 322 323 322 321 321 320 324 327 329 330 330 329 329 328 327 329
298 303 306 308 311 311 310 309 307 302 301 301 299 300 303 308 307 306 307 307 306 309 310 312 313 315 311 319 321 318 320 318 321 321 321 321 324 324 322 323 323 322 321 322 322 328 328 328 328 328 328 327 327 326
297 302 306 309 310 309 308 307 303 301 301 300 299 303 306 309 309 310 314 312 310 307 310 312 313 312 313 315 321 318 321 319 320 320 322 324 327 321 322 322 324 324 324 324 326 327 325 325 327 327 326 325 325 323
296 302 307 309 309 308 308 305 301 302 302 300 304 307 309 308 312 314 316 315 315 313 311 309 311 312 315 318 321 322 321 320 320 322 322 325 322 320 321 323 324 323 324 324 324 324 325 326 326 326 326 324 323 321
295 301 306 308 308 308 307 302 301 300 302 307 310 311 309 311 311 314 315 314 314 312 311 310 313 314 313 319 320 319 320 321 322 322 322 325 322 320 321 322 323 322 322 323 324 324 324 325 324 323 322 321 320 320
295 300 303 308 308 307 304 301 302 300 304 309 310 311 310 310 311 311 311 311 310 310 310 313 314 316 318 319 318 320 322 321 322 323 324 324 320 321 323 323 322 321 320 319 319 322 322 323 322 321 320 319 317 316
297 301 302 307 306 305 302 301 301 300 305 308 310 313 313 310 311 310 310 311 309 311 312 314 317 320 319 319 318 317 317 319 323 323 322 322 321 321 323 322 320 318 319 318 319 320 321 322 321 320 317 316 315 315
299 300 301 306 305 302 301 301 301 304 307 311 313 311 312 312 312 312 310 311 310 315 318 318 319 319 317 321 321 321 323 323 321 321 320 322 323 323 322 321 319 317 318 319 320 321 321 320 320 318 317 315 315 314
299 301 305 305 303 301 301 304 305 306 308 309 311 312 310 310 313 314 314 312 316 317 318 321 318 321 321 320 322 322 321 320 319 321 321 320 319 320 320 320 319 319 319 319 319 320 321 321 318 316 316 315 314 314
300 302 304 302 301 301 304 304 303 307 309 310 311 311 311 314 314 312 312 313 313 314 317 319 320 321 322 320 321 320 319 319 321 319 319 318 319 321 320 318 319 319 319 318 319 319 319 319 319 316 315 315 314 313
302 303 301 302 302 304 304 305 303 307 312 313 311 313 314 316 314 315 314 314 316 318 319 320 321 320 320 318 317 319 319 318 320 323 322 320 317 318 319 319 320 318 318 318 318 317 318 316 318 317 315 315 314 313
301 301 301 303 304 305 306 307 310 310 311 312 313 313 316 314 316 317 316 314 319 318 320 318 318 315 313 314 316 317 317 317 319 319 319 320 317 318 319 318 317 317 319 318 320 318 317 318 318 318 318 316 315 315
302 301 302 303 304 304 308 309 310 309 311 314 313 313 315 316 317 316 312 319 320 318 317 318 317 317 318 318 317 317 317 316 316 315 313 313 317 318 319 319 318 318 317 318 319 319 318 316 316 317 317 317 316 315
302 303 304 305 307 309 311 309 311 312 314 314 314 316 317 318 315 313 317 316 318 315 314 315 315 314 318 317 317 316 316 317 319 318 318 317 315 315 316 317 316 317 319 318 317 318 317 317 316 317 317 316 316 316
304 304 308 310 310 311 311 313 313 314 315 316 316 317 317 318 314 317 319 318 316 314 316 316 317 319 318 318 319 318 317 317 318 317 316 316 318 318 316 317 316 315 317 318 316 317 317 316 317 317 317 317 316 316
305 306 311 311 310 312 314 314 314 316 317 315 315 317 316 313 316 317 319 319 318 318 317 316 317 317 318 318 317 317 315 316 318 318 316 316 317 316 317 315 316 316 317 316 316 313 316 317 316 315 314 315 315 315
308 307 310 311 312 313 313 314 315 316 315 316 316 314 314 315 315 317 319 319 319 319 318 318 317 318 318 315 317 317 317 315 316 317 318 316 316 315 316 317 317 316 315 316 316 314 314 314 314 314 314 314 313 311
311 311 310 306 309 311 312 312 313 315 314 315 314 313 314 316 317 319 317 316 318 316 315 315 316 317 317 317 316 315 315 315 316 316 316 316 317 316 316 316 316 316 314 315 315 315 316 315 315 316 314 314 314 314
309 309 312 312 315 314 315 316 316 316 316 314 315 318 317 316 318 318 316 314 314 313 314 314 314 314 315 316 316 316 315 316 315 315 315 315 315 316 316 316 316 315 315 315 316 316 313 313 315 315 314 314 314 315
311 309 311 314 314 315 314 316 316 315 313 314 316 317 317 316 315 315 314 313 312 314 314 315 315 313 314 315 316 316 315 315 315 317 317 317 317 316 315 316 315 316 316 316 315 313 313 313 313 314 314 314 314 315
312 309 313 314 314 315 315 314 315 314 313 312 312 312 312 313 313 312 313 313 314 314 313 314 313 313 314 315 316 317 316 315 315 315 316 318 317 316 317 315 314 315 316 316 315 315 315 314 313 312 310 311 312 312
310 311 312 314 315 314 313 312 311 311 313 314 312 314 314 314 313 312 313 314 314 314 314 315 315 315 316 316 316 316 316 315 315 315 315 316 316 317 316 312 311 313 314 314 315 315 315 315 314 312 311 311 312 313
311 311 312 313 314 313 312 314 314 316 316 316 316 315 315 316 316 315 315 314 315 315 315 315 316 316 315 315 315 316 316 316 316 317 317 317 318 317 315 311 309 310 310 310 311 312 314 314 315 314 313 314 315 314
312 312 312 314 315 316 314 316 318 318 318 319 318 317 317 317 317 315 314 315 316 316 316 316 316 315 315 315 315 317 316 316 314 314 314 313 313 314 315 314 311 310 309 308 308 309 310 312 313 314 315 315 315 315

GFSWCAN_925_thetae_066.txt.gz
Theta_e
302 307 308 310 312 314 313 314 314 313 312 310 307 304 302 302 300 301 302 302 306 313 313 312 311 312 313 316 321 322 326 329 325 325 323 324 323 328 329 335 332 329 330 327 327 328 329 337 337 346 341 337 335 337
301 306 308 310 310 312 314 314 314 313 312 310 307 304 302 302 300 300 301 304 305 309 313 311 311 310 310 311 313 318 328 329 327 331 330 328 327 331 331 328 337 334 337 339 340 341 337 335 335 333 332 333 334 335
301 306 308 310 310 312 314 315 314 312 311 310 307 304 302 302 301 301 302 301 302 311 313 313 313 312 310 311 311 316 321 324 326 326 329 330 329 327 329 330 333 337 336 336 337 333 333 335 335 333 332 333 333 333
302 305 307 309 310 311 314 315 314 312 311 310 307 306 302 301 301 301 302 300 301 308 314 313 314 315 314 313 312 312 315 321 322 323 327 325 325 329 328 332 331 333 334 333 328 327 330 331 331 332 331 331 331 332
301 301 304 308 309 311 313 314 314 312 311 310 307 305 302 301 301 303 304 302 300 305 315 314 311 314 314 313 313 313 318 322 318 320 324 324 325 329 331 329 329 329 331 329 329 330 329 332 331 332 331 331 332 333
300 301 302 306 309 311 313 314 313 312 311 309 307 304 301 301 301 303 304 305 301 302 313 315 316 317 315 313 317 318 319 319 317 317 319 323 326 329 329 327 333 329 326 326 331 329 330 331 330 331 332 331 331 332
298 300 302 305 308 310 312 313 313 311 310 309 307 302 301 301 304 304 306 304 302 304 313 315 317 317 315 316 317 317 318 317 318 318 318 320 324 325 324 324 330 326 325 329 329 330 327 328 327 327 329 330 330 332
295 299 300 304 307 310 312 313 311 311 310 308 304 301 301 302 302 303 302 300 301 307 310 315 320 318 316 318 318 317 316 316 319 319 320 321 325 323 322 326 328 328 327 326 326 328 328 327 329 329 329 331 333 332
294 297 300 304 307 309 313 312 311 310 308 306 302 301 302 303 303 303 303 304 300 306 312 316 319 319 317 318 318 318 318 318 319 317 317 318 320 322 327 327 327 327 327 327 326 324 326 327 328 330 331 329 331 332
294 296 302 305 307 310 312 311 310 309 306 302 301 302 307 303 299 303 308 308 305 308 311 313 317 320 318 318 318 320 320 320 320 321 321 318 318 327 325 327 327 326 325 326 325 325 326 326 330 330 329 329 330 331
294 296 303 305 308 311 311 310 309 305 301 301 302 303 306 306 309 309 313 312 311 311 310 311 315 320 318 319 319 321 321 321 321 323 321 321 321 327 327 328 327 326 324 324 326 328 327 329 327 329 328 328 328 328
293 296 303 306 309 311 310 309 307 305 303 303 301 306 310 313 314 312 312 310 310 311 310 311 314 317 320 322 322 323 322 321 321 323 321 320 329 328 327 327 328 328 327 327 328 327 327 327 326 325 325 326 324 324
292 296 302 307 310 310 309 308 304 303 301 300 307 312 313 312 311 311 312 312 312 312 313 312 314 316 322 323 323 323 321 321 321 321 320 323 329 327 327 327 327 326 327 327 327 326 326 325 325 324 324 325 326 325
292 295 301 308 309 309 308 305 303 301 305 309 311 312 311 310 310 311 312 311 312 314 314 312 315 321 320 322 322 321 321 320 320 319 319 324 328 327 326 326 326 326 326 326 326 325 324 323 324 324 324 324 324 323
292 295 301 306 308 308 306 302 303 301 305 311 311 313 311 311 311 312 312 314 314 314 314 313 317 319 320 321 320 321 322 320 319 320 322 327 326 326 326 325 325 324 323 323 323 323 324 324 324 324 324 323 322 321
293 298 302 307 307 304 302 302 301 303 307 311 311 313 312 312 311 310 311 313 314 314 314 314 318 319 319 318 318 318 316 317 321 323 325 326 326 326 326 324 322 322 322 322 320 322 322 323 324 324 323 321 320 319
296 302 302 306 304 302 301 302 301 303 308 311 313 312 313 313 313 313 313 313 314 315 313 316 319 318 320 317 317 318 318 322 323 324 324 326 326 325 324 321 318 319 319 321 322 322 323 323 323 323 323 320 319 318
299 301 303 304 303 302 302 303 305 306 308 311 313 313 313 312 314 314 315 314 315 315 317 318 320 319 318 317 319 323 324 324 323 323 325 326 325 324 322 321 321 320 320 319 320 321 322 323 323 322 320 318 318 317
300 304 303 302 301 303 304 304 306 308 310 311 312 312 313 316 317 317 317 317 317 318 321 321 318 318 319 322 322 323 323 322 323 324 324 324 324 323 321 321 321 322 321 319 320 320 322 323 322 321 319 318 316 315
303 302 302 302 303 305 307 307 306 309 312 313 314 317 318 319 318 318 318 318 320 321 321 321 321 322 322 323 322 322 321 322 322 323 323 323 322 323 323 322 322 322 321 320 320 320 321 321 320 320 319 317 315 314
303 302 302 303 306 307 308 308 309 309 314 316 316 317 317 318 319 319 319 318 320 320 321 321 321 321 320 321 322 322 323 322 323 323 324 324 321 321 322 322 322 321 320 317 318 320 320 322 322 321 318 316 315 313
303 302 303 303 305 305 305 309 311 311 313 315 314 315 318 320 321 319 318 320 322 321 321 322 322 323 324 324 323 321 321 320 320 317 316 316 318 319 320 320 320 321 319 317 317 319 321 321 319 320 319 317 314 314
302 303 303 304 304 308 310 310 312 311 313 313 311 316 319 320 320 318 321 321 321 320 320 321 322 322 322 322 321 321 320 320 320 320 320 319 319 318 318 318 318 318 318 318 318 320 321 319 318 318 317 316 315 315
302 304 304 303 307 309 309 313 312 315 316 317 319 319 319 320 318 319 320 319 321 320 321 322 320 322 321 322 321 320 320 320 319 319 319 318 319 319 319 318 319 319 317 317 319 319 320 318 317 316 317 315 315 316
304 304 305 306 309 315 316 316 317 316 317 317 318 320 318 317 318 319 320 321 321 320 320 320 319 319 317 317 317 318 320 318 319 320 319 318 319 318 319 319 318 318 318 318 318 317 317 316 314 313 314 317 316 315
307 310 312 314 315 316 315 316 316 316 316 317 318 318 317 316 317 320 320 322 322 322 322 321 319 318 318 317 318 318 318 319 319 319 319 318 317 317 317 318 318 317 317 317 315 316 315 316 316 316 316 315 315 314
315 315 313 312 314 315 316 317 317 317 317 316 316 315 315 316 318 320 322 320 321 319 318 317 317 317 317 316 317 318 318 319 319 319 318 318 318 318 317 317 318 317 316 316 316 316 314 314 314 316 315 315 314 314
314 315 318 317 318 317 318 318 318 319 318 318 317 317 317 317 319 320 320 318 318 317 317 316 316 316 316 317 317 318 317 317 317 318 317 317 317 317 318 317 317 317 317 317 316 316 316 316 315 314 314 315 315 314
315 315 316 317 317 317 318 318 317 317 317 317 318 318 318 319 318 319 318 317 316 316 315 316 317 316 317 318 318 318 317 317 317 318 318 318 317 317 317 317 317 318 317 317 316 315 316 316 315 314 314 314 314 314
315 315 316 316 316 316 316 317 316 316 316 316 315 315 316 316 315 315 316 316 316 316 316 317 317 316 317 317 317 317 317 317 317 317 317 318 317 317 318 317 315 316 317 317 317 317 316 315 315 314 314 314 313 313
314 314 315 315 316 317 317 316 316 316 316 316 317 318 318 318 317 317 317 317 317 317 317 317 317 318 318 318 318 317 316 316 316 317 317 317 317 317 318 318 316 314 314 315 315 315 315 315 316 316 315 315 314 313
314 315 313 316 319 317 317 318 319 320 320 319 319 317 317 317 316 317 317 317 317 317 316 317 317 317 318 318 318 318 317 318 318 319 319 319 319 318 318 318 318 315 314 314 313 313 312 311 312 313 314 315 316 316
316 316 316 317 316 317 318 318 318 319 319 319 318 318 318 318 319 318 317 317 318 319 319 318 318 317 318 319 319 319 318 318 318 316 316 315 314 313 313 313 314 315 315 314 314 313 313 312 312 312 312 312 313 313

GFSWCAN_925_thetae_069.txt.gz
Theta_e
298 299 303 308 310 311 312 314 315 315 313 312 310 307 304 302 301 302 306 305 306 312 314 314 315 316 317 320 322 325 325 326 323 328 328 328 329 329 328 330 331 330 331 329 328 329 329 338 337 347 344 340 339 339
298 299 302 308 310 311 312 315 314 314 313 312 310 307 304 302 301 300 305 306 307 310 313 311 311 311 313 314 316 321 330 327 329 330 330 329 327 326 328 328 335 330 330 344 345 346 340 337 338 335 333 336 336 336
298 300 305 308 309 310 311 314 313 314 313 312 310 307 304 302 301 301 305 304 303 308 313 314 314 314 313 313 313 317 327 326 329 327 330 327 331 332 329 332 330 335 337 331 333 336 336 336 334 333 332 334 333 333
299 301 304 307 309 310 311 313 315 314 313 312 310 307 305 302 302 301 306 305 303 306 313 315 314 315 315 315 315 315 316 320 323 323 326 327 328 329 327 332 336 336 337 333 334 330 331 332 333 332 332 332 332 333
298 300 300 303 308 310 310 313 315 314 312 312 310 308 306 302 302 303 306 306 304 305 314 316 313 313 314 315 316 316 317 322 321 321 322 324 324 326 326 324 327 332 333 332 335 333 331 336 332 330 331 332 332 333
296 299 300 302 307 309 311 312 314 314 312 311 310 307 305 302 301 305 309 307 305 302 310 316 316 319 316 316 316 318 319 320 319 319 320 320 324 327 324 327 331 330 330 329 333 329 329 329 329 328 328 330 332 333
295 297 299 301 303 308 310 312 314 313 312 311 309 307 303 302 304 308 311 306 303 304 312 315 317 318 316 316 318 319 318 318 318 319 319 319 322 322 323 325 329 329 328 328 327 325 324 327 328 326 327 328 330 332
294 295 298 301 303 307 310 312 313 313 311 310 308 305 302 301 302 304 305 303 303 308 311 316 319 320 316 317 318 319 318 318 318 318 320 321 323 323 323 329 329 328 326 325 324 325 324 324 326 326 327 329 330 331
295 294 296 301 304 307 310 312 313 311 310 308 305 302 303 303 308 308 303 302 303 309 314 314 319 319 319 319 320 320 317 317 319 318 318 320 321 323 325 327 326 326 325 324 324 323 324 325 326 327 327 328 331 333
295 294 295 301 304 307 310 312 311 310 308 304 302 304 311 310 305 303 308 311 309 309 311 314 318 322 319 318 320 319 318 321 321 319 321 320 318 327 325 326 325 325 325 323 324 323 326 325 327 327 329 331 331 331
294 294 295 302 305 308 311 311 310 308 303 301 303 304 309 302 306 311 312 312 314 314 312 311 314 319 319 320 320 321 322 321 322 324 320 323 321 327 326 325 326 326 325 324 325 326 326 326 326 328 330 328 326 327
294 294 295 303 306 308 310 310 308 307 304 303 303 307 308 309 313 312 313 313 313 314 311 311 312 319 320 322 323 322 322 322 323 325 322 322 334 330 327 327 328 327 326 326 326 326 325 325 325 325 326 326 324 324
294 293 295 302 306 310 310 309 308 307 304 303 307 310 313 313 319 313 314 314 314 313 314 311 314 318 322 322 321 322 321 322 322 322 321 330 332 330 329 327 327 327 326 326 326 325 324 324 324 323 323 323 325 325
294 293 295 302 307 309 309 309 307 305 306 310 312 320 315 314 315 315 315 315 315 316 316 312 314 319 322 321 322 321 321 322 321 321 320 328 330 328 328 326 327 327 326 325 325 325 324 323 323 323 323 324 323 323
294 293 294 303 308 309 308 306 304 304 307 311 313 318 314 314 314 314 314 314 315 315 314 312 315 320 322 321 320 321 321 319 320 320 323 331 330 329 329 328 326 326 325 325 325 326 325 324 324 325 324 324 323 322
295 294 298 304 308 307 305 303 302 304 307 313 313 314 314 315 314 314 314 315 314 314 315 314 317 320 319 318 319 319 318 318 319 321 325 330 330 329 327 326 325 324 324 324 324 323 324 324 324 325 325 323 322 321
296 299 302 305 306 305 303 302 302 306 310 313 314 314 314 315 314 313 312 311 313 315 316 314 316 317 318 317 318 318 318 320 322 322 324 328 329 328 326 324 319 321 321 321 322 323 324 324 324 324 323 322 321 321
297 301 304 304 302 302 302 303 305 307 310 312 313 314 314 314 314 313 312 314 315 315 317 315 318 320 318 317 318 320 322 322 321 323 325 328 327 325 324 323 321 321 322 321 320 320 320 322 324 323 323 322 320 320
299 301 303 303 302 302 304 305 307 311 312 312 312 313 315 314 315 315 317 317 316 317 316 319 318 317 317 320 321 321 321 322 323 324 326 326 325 325 324 323 322 322 322 322 321 319 320 324 324 323 322 320 319 318
301 301 302 303 304 307 308 309 307 311 313 313 313 315 315 317 318 320 320 319 318 320 322 320 319 320 321 323 322 321 322 323 323 324 324 325 323 324 325 324 322 323 322 322 321 320 319 322 323 323 321 319 318 316
302 302 303 304 307 309 310 310 310 310 314 316 315 317 318 320 322 321 320 319 320 322 323 322 324 325 324 323 322 322 324 323 323 324 325 324 323 322 323 324 323 322 321 320 319 318 319 320 323 323 322 319 317 315
303 302 303 304 307 308 310 310 313 314 315 316 317 316 319 320 323 321 320 322 324 326 322 323 325 325 326 325 324 323 324 322 322 318 315 316 319 319 319 319 319 320 320 319 319 318 318 321 322 323 323 320 317 315
302 303 303 304 307 306 310 311 313 314 315 315 312 313 318 320 321 319 322 323 325 323 322 324 324 323 324 323 322 321 321 321 321 321 320 320 319 319 319 319 318 318 319 319 318 318 320 322 322 320 320 319 317 315
304 304 306 306 305 309 310 312 311 312 313 313 311 314 320 321 320 321 321 324 323 322 323 324 322 322 321 321 322 321 320 319 319 318 319 319 320 320 319 319 319 318 319 318 317 319 321 322 321 319 319 318 317 316
305 306 304 307 306 311 313 312 311 312 314 312 316 320 320 321 320 321 322 322 321 321 321 321 319 319 319 317 317 318 321 318 318 319 319 319 319 320 320 320 319 319 319 320 320 319 320 321 319 316 316 317 316 317
303 303 301 305 312 313 315 318 320 321 320 319 318 318 319 318 319 321 322 323 323 322 321 320 320 320 319 317 318 318 319 318 319 321 320 319 318 319 318 318 319 318 317 318 318 317 317 316 316 315 315 315 315 316
315 316 315 316 316 316 317 316 317 317 318 318 318 317 317 317 320 323 324 323 322 320 319 318 318 317 317 317 316 317 317 319 321 321 319 318 318 317 317 318 317 318 318 317 316 316 315 315 316 316 316 316 316 315
318 318 318 318 317 317 317 318 317 318 318 317 317 317 317 318 322 323 322 319 318 318 317 316 317 317 317 318 317 317 318 318 318 318 317 317 317 317 318 317 317 316 316 316 316 317 317 316 315 315 316 316 316 315
317 317 317 318 319 318 318 319 319 319 318 317 319 319 319 319 319 319 318 317 316 316 317 317 318 318 318 318 317 317 317 317 316 318 320 320 318 318 318 318 318 318 319 318 318 317 315 315 315 315 316 316 315 315
316 317 317 317 318 319 318 318 318 317 317 316 316 317 318 318 316 316 316 316 317 317 317 318 317 317 318 318 318 318 317 317 317 317 319 318 317 317 317 318 318 317 316 316 317 317 317 316 316 316 316 315 315 315
316 316 318 318 320 319 318 317 316 317 319 319 319 320 319 319 317 317 317 317 317 317 317 317 318 318 318 318 318 317 317 316 317 318 319 318 318 318 318 318 318 318 317 316 315 315 315 315 314 313 314 314 315 316
315 317 321 320 320 319 319 321 321 321 320 319 319 319 318 318 320 319 318 319 318 318 317 318 318 318 318 317 318 318 317 318 318 319 318 317 317 317 316 316 315 314 314 315 315 315 315 314 314 314 314 313 313 313
317 319 318 318 319 319 320 320 319 320 320 320 321 320 320 319 321 320 319 319 319 319 318 318 318 318 318 319 318 318 317 317 317 316 316 316 315 315 314 315 315 315 314 315 315 315 315 315 315 315 315 315 315 315

GFSWCAN_925_thetae_072.txt.gz
Theta_e
298 298 299 300 306 309 311 311 313 314 315 314 313 311 308 305 302 303 306 308 308 309 310 311 314 316 318 319 321 322 324 327 327 330 332 333 336 333 332 334 336 337 337 331 332 331 332 340 342 350 347 343 340 340
297 297 299 300 306 309 311 311 314 314 315 314 313 311 308 305 302 302 306 308 307 309 311 309 309 310 311 314 317 318 327 327 329 327 332 333 337 334 335 336 336 334 334 346 343 346 343 337 338 335 336 337 336 336
297 298 299 303 307 309 311 312 315 314 315 314 313 311 308 306 303 301 306 307 308 308 310 311 313 313 313 312 313 316 323 323 327 328 327 329 335 331 332 332 330 332 333 337 334 340 338 336 334 333 333 333 333 333
297 298 301 305 307 309 310 311 313 314 314 314 313 311 308 306 302 302 305 308 309 307 310 314 314 316 315 315 316 316 317 318 321 325 325 325 332 329 326 329 334 333 329 327 337 336 334 335 334 332 333 334 333 332
298 299 301 300 302 308 310 311 313 315 314 313 312 311 308 306 303 304 306 307 309 307 309 310 309 313 315 314 317 317 317 321 322 323 323 323 324 327 328 326 332 331 331 338 339 336 337 338 332 329 330 331 331 330
297 298 300 301 302 307 309 310 313 315 314 313 312 310 308 306 303 306 310 310 308 306 307 312 314 316 318 315 317 318 319 321 322 321 322 322 325 324 324 324 330 332 330 328 335 328 331 329 330 328 327 327 328 329
296 296 299 300 303 305 308 310 312 314 314 312 311 310 307 305 304 307 312 309 305 305 309 315 316 317 318 316 317 318 319 320 319 319 320 320 320 322 324 321 333 332 331 333 331 331 328 327 326 324 326 326 327 329
295 295 297 299 301 303 307 310 313 313 313 311 310 308 306 303 302 304 307 307 305 308 310 314 318 320 318 317 317 318 319 320 319 318 318 320 320 321 324 325 329 329 328 326 324 323 323 324 326 326 326 326 326 331
295 295 295 297 300 301 308 311 313 313 311 310 308 305 304 304 308 310 306 301 302 309 315 313 314 322 318 317 318 321 320 319 318 319 319 320 319 321 326 325 329 327 327 325 325 323 322 325 325 326 328 332 333 333
295 295 295 296 302 305 308 311 312 311 310 307 303 304 310 310 308 305 307 309 310 311 311 312 314 317 321 318 320 320 318 319 321 322 318 319 320 326 326 328 328 326 324 321 322 323 325 325 326 331 331 331 332 331
296 295 295 296 302 305 308 311 311 309 305 302 305 306 309 306 308 309 313 314 314 314 314 312 311 312 318 320 320 320 325 321 321 323 322 322 326 325 327 327 325 323 322 321 322 322 324 326 330 330 329 326 325 324
296 295 294 296 303 307 308 310 310 308 306 305 305 306 309 308 313 315 314 315 316 317 316 312 311 312 319 322 324 323 323 325 323 327 329 323 338 330 326 326 325 324 324 324 324 327 326 327 328 328 327 326 324 323
296 294 294 296 303 307 309 310 309 308 305 305 308 312 314 314 318 316 316 317 317 316 315 313 312 313 323 323 325 327 321 326 324 325 322 333 336 330 327 325 325 325 325 324 324 325 325 325 325 325 325 326 326 325
296 294 293 296 303 307 309 310 309 305 307 310 312 315 316 316 316 317 317 317 317 316 316 314 313 316 318 321 322 323 322 322 325 322 325 336 333 330 326 323 324 325 325 325 326 326 326 326 326 324 324 324 324 325
296 294 293 295 303 308 309 308 306 305 308 312 314 317 316 316 316 316 316 317 316 317 316 314 312 315 319 325 321 325 326 325 321 322 335 332 331 329 327 328 327 324 326 327 325 325 326 326 323 324 326 324 324 322
295 295 296 297 303 308 306 307 304 305 307 312 315 317 315 316 315 315 315 316 317 316 315 313 312 315 324 322 321 321 321 318 321 332 332 332 333 331 328 326 326 325 325 325 325 325 325 325 324 326 325 325 323 324
296 298 296 298 307 307 305 304 303 306 309 312 315 315 316 316 317 317 316 316 316 316 317 315 314 317 318 320 319 320 318 326 326 327 330 336 334 330 328 326 321 322 321 320 321 322 323 324 324 325 325 324 323 322
298 301 300 304 304 303 303 303 305 307 311 313 316 315 314 315 316 316 316 314 315 316 317 317 318 318 318 321 321 322 323 325 324 328 331 332 331 327 325 325 322 321 322 321 322 321 321 321 321 324 325 324 322 321
299 304 304 304 303 304 305 304 307 311 312 312 313 313 315 315 316 315 316 316 316 318 316 318 319 322 321 321 325 324 323 322 324 325 331 328 327 325 324 324 323 322 323 323 322 321 320 323 324 325 324 322 321 320
301 303 304 304 305 306 308 308 308 312 313 313 312 313 314 314 315 315 316 316 317 319 318 322 320 326 323 325 323 322 326 324 322 326 327 326 325 325 325 325 324 324 324 324 322 322 321 323 324 324 324 321 319 318
302 303 303 304 305 308 311 311 310 311 312 314 314 315 315 317 320 319 318 319 319 320 319 324 325 323 328 328 323 323 327 329 325 326 326 325 325 323 324 325 325 323 321 320 321 320 319 322 323 323 324 322 320 318
303 303 303 304 307 310 312 312 313 313 313 316 318 317 318 319 321 321 320 319 324 321 319 320 321 329 331 326 327 325 324 323 323 318 318 318 319 320 320 321 322 323 322 320 320 319 319 323 324 324 323 323 319 318
303 303 304 307 310 308 312 313 314 315 316 317 317 317 317 318 321 318 322 323 323 322 314 312 315 325 325 324 322 322 321 321 321 321 321 320 320 319 320 320 320 320 320 319 319 319 320 321 322 321 322 321 320 318
304 307 309 309 309 311 311 314 314 315 315 315 314 316 318 320 318 322 321 321 319 324 325 326 324 323 322 322 323 326 322 320 319 319 320 320 320 320 320 320 319 320 318 318 319 319 321 322 321 321 320 320 319 317
304 307 308 312 309 310 313 314 313 314 315 314 315 319 320 317 318 320 322 322 321 323 321 325 320 320 319 321 318 320 320 318 318 320 321 320 320 319 320 320 320 320 319 319 320 320 321 322 322 321 320 318 318 317
307 306 308 309 310 313 313 313 313 314 316 315 317 320 321 322 320 322 324 325 320 322 321 323 321 320 319 318 319 319 318 318 319 320 320 319 319 319 319 320 320 319 318 318 318 318 318 318 318 317 317 316 314 314
305 307 306 305 312 311 313 315 316 317 319 320 321 321 320 320 322 324 328 321 322 320 318 318 318 318 318 317 317 318 319 319 319 320 320 319 318 317 318 318 318 318 318 318 317 316 316 316 317 316 316 317 316 316
310 314 315 312 312 318 321 321 319 319 318 318 317 319 322 322 323 324 323 319 318 318 318 318 318 318 318 318 318 318 318 318 318 318 317 318 318 318 316 318 318 318 317 317 317 317 317 317 316 317 317 317 316 317
320 319 319 320 319 318 319 319 319 319 320 319 320 321 321 320 320 319 317 317 318 318 318 318 318 318 318 318 318 317 318 317 317 317 318 319 319 317 315 315 318 317 317 318 319 317 317 317 315 314 314 315 315 315
318 318 320 320 320 319 319 318 317 318 318 317 318 319 319 318 317 317 317 317 317 318 319 318 319 318 319 319 318 318 317 316 317 318 319 319 319 318 319 318 318 316 315 317 316 316 317 317 317 315 316 317 318 318
319 319 319 319 319 318 317 320 320 319 320 320 320 320 320 319 318 318 319 318 318 317 318 318 317 318 318 318 318 319 318 317 318 317 316 316 318 316 314 314 316 318 317 314 314 315 315 316 317 317 316 316 315 315
319 319 320 321 322 321 320 320 320 320 319 319 319 318 319 319 322 322 318 316 318 318 315 318 317 317 318 317 316 317 317 318 317 317 316 317 317 316 315 315 315 315 315 315 315 315 315 315 316 315 316 316 316 317
320 320 320 321 322 321 320 320 320 321 321 321 319 320 321 321 321 318 317 318 318 319 318 317 317 317 317 317 317 316 316 317 316 316 316 315 314 314 314 314 315 315 315 315 315 316 316 316 316 316 317 317 316 315

GFSWCAN_925_thetae_075.txt.gz
Theta_e
306 300 298 298 299 302 307 310 311 312 313 315 315 314 312 310 306 303 305 306 308 310 309 309 310 312 314 316 319 318 320 327 330 334 334 334 336 334 336 335 334 337 337 339 339 337 342 339 339 348 343 339 340 339
304 299 297 298 299 303 308 311 311 312 313 314 315 314 312 310 306 303 305 308 308 311 309 308 307 307 308 309 311 315 323 329 329 332 332 333 333 334 333 337 330 338 338 339 338 341 338 335 337 336 335 336 336 337
302 298 297 299 301 305 308 310 311 312 313 315 314 313 311 310 306 303 304 304 308 312 310 309 310 310 310 309 309 312 325 326 325 324 328 330 333 330 335 334 334 332 330 339 336 339 338 336 334 333 333 334 334 334
301 297 297 300 303 306 308 310 311 314 314 314 314 313 312 310 307 303 304 307 308 311 309 310 310 308 311 313 311 311 313 322 320 319 323 326 331 331 332 327 331 333 332 331 335 336 337 331 332 334 335 334 332 331
300 297 298 300 301 304 307 309 311 314 313 314 314 313 311 309 307 305 305 307 308 310 309 308 306 310 313 314 315 316 318 322 320 322 325 327 322 329 328 327 335 331 332 337 336 331 329 326 330 332 329 329 331 329
299 300 299 300 301 303 307 310 311 313 315 314 313 312 311 308 307 306 307 310 308 309 309 308 310 312 313 316 316 318 320 321 322 322 322 322 321 327 325 328 332 331 329 331 335 329 327 325 326 329 326 328 329 328
299 298 298 300 301 303 307 309 311 313 314 314 313 312 310 308 305 308 310 310 305 306 308 311 316 318 314 318 317 318 318 320 321 321 321 320 320 321 325 329 333 331 331 330 330 330 332 327 324 324 326 325 326 331
297 297 297 299 300 302 304 308 311 312 314 312 312 311 309 307 305 305 309 309 306 307 310 313 315 319 319 319 318 317 318 320 322 320 320 319 320 323 323 333 330 328 329 328 330 327 322 323 327 330 331 332 333 333
296 296 296 298 299 301 304 308 311 313 312 311 310 308 305 303 308 310 308 306 307 307 313 316 314 318 318 322 319 320 321 322 320 321 320 320 323 325 330 330 331 329 330 326 324 323 326 328 331 331 331 332 331 330
295 295 295 296 299 303 307 310 312 312 311 309 305 304 308 308 308 305 304 310 308 309 309 312 313 315 319 323 323 324 323 320 323 320 320 321 320 329 328 330 328 325 324 323 322 324 327 331 331 330 329 330 328 327
296 295 295 295 299 304 308 310 311 310 307 304 305 306 309 308 308 311 314 314 314 315 313 313 312 311 315 321 321 323 328 325 325 326 323 324 333 332 330 327 324 323 322 321 321 322 327 329 329 326 328 326 325 324
296 296 295 295 300 304 308 310 311 309 308 307 306 308 309 309 312 315 316 316 317 317 318 316 315 310 312 315 321 329 326 328 329 330 330 331 335 329 327 327 325 324 324 325 326 327 327 328 328 328 327 326 325 324
297 296 295 295 301 306 307 310 310 309 306 307 310 312 314 313 315 317 317 317 319 320 320 317 316 316 322 324 328 328 329 327 326 332 329 335 335 332 329 327 325 324 325 327 327 327 327 327 326 320 321 322 326 325
297 296 295 295 301 306 308 310 309 306 306 309 311 312 316 316 316 316 317 319 319 320 319 319 317 318 321 323 327 326 325 327 328 326 332 335 334 330 327 327 327 328 328 327 328 327 327 326 323 321 320 323 321 326
297 295 294 294 301 306 309 308 308 305 308 312 314 315 315 315 316 316 317 318 319 320 320 318 317 316 319 327 327 327 329 328 327 334 336 333 332 331 331 330 326 328 327 327 326 326 326 322 319 318 318 317 320 323
297 296 295 295 300 306 307 307 305 306 308 313 314 316 316 317 316 316 318 317 318 320 319 317 315 317 325 326 324 325 325 324 332 336 333 333 334 333 331 329 326 326 326 326 325 325 325 326 325 323 318 324 321 323
295 298 297 295 302 307 306 305 305 307 310 312 314 315 315 316 319 319 319 318 320 320 319 318 315 315 323 322 325 326 325 329 332 332 331 334 332 332 328 324 324 323 322 321 322 322 322 320 322 325 324 323 322 322
299 299 296 298 305 305 304 304 307 308 310 311 313 316 316 316 318 317 318 318 318 319 320 319 320 318 319 319 322 325 328 328 331 330 331 332 332 330 328 324 323 322 324 323 323 322 322 323 322 324 324 324 322 322
300 299 298 304 305 304 305 305 307 310 311 312 313 314 314 315 318 319 318 321 320 320 321 321 319 320 321 321 325 325 324 327 328 330 331 330 328 327 326 325 324 325 324 323 324 324 323 321 324 325 324 323 322 321
302 302 303 305 305 307 308 308 308 311 314 313 313 313 315 314 318 317 318 321 319 319 320 321 319 324 325 323 323 324 325 327 328 329 328 328 327 326 327 325 325 322 322 323 325 325 324 323 324 324 324 322 320 320
303 303 304 304 305 308 311 310 309 310 311 315 315 314 315 315 316 317 318 318 320 319 320 322 322 320 320 320 321 319 319 323 328 328 328 327 322 326 327 326 326 326 325 321 321 320 320 322 323 325 323 322 321 319
303 304 304 304 306 308 311 311 313 313 313 315 318 318 318 320 320 321 319 320 319 320 318 321 321 319 319 318 322 324 324 325 323 321 323 322 322 325 325 325 323 320 321 321 321 320 321 323 323 322 321 323 323 320
303 303 303 305 308 308 310 312 315 315 315 316 317 317 317 320 320 318 319 319 319 317 314 315 316 316 316 316 316 323 321 321 324 324 322 321 321 322 322 321 320 321 322 320 320 320 320 321 321 321 321 321 322 321
304 305 306 308 309 310 311 314 315 315 316 316 315 315 317 320 318 320 320 319 319 319 319 313 314 314 314 315 317 325 324 323 319 321 321 321 322 321 320 321 320 320 319 320 320 319 319 321 321 320 321 321 318 318
305 307 307 304 310 311 313 313 314 315 314 314 315 318 320 319 319 319 321 321 318 317 316 318 315 314 314 320 323 324 320 321 321 323 320 320 320 320 319 319 318 318 319 319 319 319 320 320 320 320 320 319 318 316
303 307 305 309 311 313 314 313 313 314 315 315 316 319 319 320 319 321 321 320 319 319 319 321 321 322 322 320 322 324 320 320 320 321 320 319 319 319 319 320 319 319 318 318 319 318 318 318 317 318 318 319 318 316
306 308 307 307 312 312 313 313 313 314 317 317 317 315 316 321 323 323 320 317 319 317 320 318 318 320 320 320 319 319 319 319 321 320 320 319 318 318 318 320 320 318 317 317 316 317 317 317 317 317 317 317 316 316
303 308 311 310 311 312 316 316 317 319 320 320 321 323 324 322 324 324 321 319 319 318 318 318 318 318 319 319 318 318 318 318 318 318 317 318 318 317 317 315 317 318 318 317 318 317 317 317 318 317 317 318 316 316
307 311 312 311 310 314 315 321 321 321 321 322 323 323 323 322 322 321 319 318 318 318 319 318 318 318 318 318 318 318 318 317 318 319 321 320 318 318 318 317 315 317 319 318 316 315 315 316 317 316 316 317 316 315
320 314 318 316 318 321 321 322 321 320 319 320 320 320 321 320 318 318 319 319 318 319 318 318 318 319 319 319 319 318 317 317 318 318 320 319 318 316 318 318 318 316 315 314 315 317 317 316 316 317 317 318 315 317
320 322 323 322 323 320 321 320 320 320 320 320 320 321 321 320 318 317 318 318 319 318 318 319 318 318 320 318 318 320 319 318 318 317 316 317 317 317 317 316 316 315 316 316 316 316 318 316 316 316 318 317 317 317
321 322 322 323 323 322 321 321 321 321 320 320 320 321 319 319 318 316 317 318 318 320 318 319 319 318 318 318 317 317 317 317 317 318 317 315 313 313 314 314 315 315 315 316 316 316 316 315 314 315 316 316 315 313
321 320 321 321 323 322 321 320 321 322 321 322 321 321 321 322 320 321 317 317 317 318 318 318 317 317 318 317 315 315 315 316 315 314 312 310 309 309 309 310 311 312 312 312 311 310 309 309 308 307 307 308 308 307

GFSWCAN_925_thetae_078.txt.gz
Theta_e
314 313 311 302 299 298 301 306 306 310 311 312 314 315 315 312 309 306 306 306 305 304 305 307 307 307 306 307 312 311 313 320 327 327 325 328 329 330 329 331 330 332 334 333 332 336 342 336 337 344 338 338 333 334
314 313 309 300 298 298 300 306 307 311 311 312 314 315 314 312 309 305 304 306 305 306 306 309 309 308 308 307 305 305 310 325 322 326 327 330 329 328 328 333 328 330 333 335 331 334 334 331 335 334 332 334 334 334
313 313 306 299 298 299 302 306 309 310 311 312 314 315 314 311 309 306 304 304 307 304 307 305 305 308 308 309 307 305 307 319 321 317 320 326 330 327 328 326 330 331 326 332 332 336 334 330 332 333 332 332 332 332
313 312 304 298 298 301 304 307 310 310 311 313 313 314 313 311 309 307 304 306 306 305 307 304 307 309 309 307 307 307 307 314 315 312 314 321 326 325 328 327 330 330 329 328 333 335 331 331 329 331 331 330 332 333
312 310 302 298 299 303 305 307 309 311 313 313 314 314 313 311 309 307 307 308 306 307 307 306 308 308 309 310 312 308 307 306 312 314 318 320 321 326 325 325 329 328 328 331 332 332 333 329 328 329 330 329 328 334
312 306 299 298 299 300 302 308 309 311 313 313 314 314 312 310 308 305 303 309 308 307 304 303 302 303 308 310 313 308 308 309 313 315 315 315 315 319 320 326 327 327 326 327 330 327 325 325 325 325 327 325 327 325
308 302 298 298 300 301 304 308 310 311 313 314 314 313 312 309 308 306 306 308 305 306 302 304 306 308 314 311 311 311 313 312 313 313 315 315 314 316 317 326 326 327 324 325 326 326 328 326 325 325 325 331 330 333
304 300 299 299 300 302 305 307 310 311 314 313 313 312 311 309 308 307 310 310 309 305 305 306 308 309 314 312 311 309 311 311 313 314 312 312 311 314 315 320 327 326 325 326 326 326 323 324 327 329 329 329 329 329
300 299 298 299 300 302 303 306 309 311 313 312 311 310 308 305 305 309 308 307 308 306 307 309 310 311 311 315 314 313 311 314 312 316 314 312 312 316 315 325 327 327 326 324 323 325 325 328 328 329 328 327 327 327
300 300 298 298 299 302 305 307 310 312 311 311 309 305 307 307 308 305 304 304 302 301 301 305 305 309 311 315 315 316 316 315 314 314 312 313 312 315 322 325 325 325 324 324 318 323 327 328 328 327 327 325 325 324
298 298 297 297 300 303 308 310 312 311 309 307 304 305 308 308 307 306 308 306 306 309 305 306 305 305 306 315 314 315 320 318 319 316 316 316 327 325 323 322 322 320 316 318 318 318 323 325 323 326 326 323 323 322
297 297 296 296 301 305 309 311 311 310 310 308 306 307 308 305 306 311 311 311 312 314 311 310 309 305 306 308 314 320 325 320 325 325 324 328 326 324 322 320 319 320 323 325 325 326 326 325 324 323 322 322 322 322
297 297 296 296 302 307 309 310 310 309 309 309 310 312 309 308 309 316 317 313 314 313 313 309 309 307 306 310 321 326 324 325 320 326 326 327 325 324 323 322 321 322 324 324 325 324 322 321 322 323 322 323 323 323
298 297 295 297 304 305 308 310 308 307 307 309 312 307 314 314 314 313 313 312 312 313 313 310 310 310 311 318 320 323 321 323 326 324 329 327 326 324 324 322 324 324 323 324 324 324 322 321 320 321 320 319 321 323
297 295 295 296 303 305 307 308 306 306 308 310 311 313 312 312 311 311 311 312 312 314 312 309 309 308 309 322 321 322 325 327 326 328 328 327 325 324 323 323 322 322 322 322 322 321 319 319 318 318 318 318 317 322
297 297 295 295 303 306 307 308 307 306 308 311 312 313 312 313 311 311 312 312 311 313 313 307 310 311 321 321 323 325 325 326 327 328 327 325 325 323 322 321 321 320 319 319 322 323 323 320 318 319 319 321 320 321
295 297 294 296 303 306 306 306 305 306 310 311 310 309 311 312 313 313 314 314 314 314 315 311 311 313 317 320 323 320 322 322 325 326 325 323 323 319 318 318 319 319 317 318 319 320 320 320 323 322 320 322 322 322
298 298 294 301 306 306 305 305 307 308 310 307 308 308 311 313 313 313 314 315 313 313 312 315 314 316 316 320 321 320 321 321 323 325 325 323 322 320 318 317 320 319 321 320 320 320 321 321 319 321 321 322 322 321
300 297 299 304 306 304 304 305 307 308 307 306 308 307 309 311 310 311 313 314 315 314 313 314 316 315 317 318 320 319 322 323 323 324 324 324 323 323 321 321 322 321 321 321 322 321 322 321 322 322 322 322 321 321
300 297 302 304 305 306 307 306 306 307 310 309 308 308 309 310 309 311 313 313 311 311 314 316 315 317 317 317 317 317 318 318 322 323 324 323 323 322 321 321 320 320 320 322 323 320 321 322 322 323 323 323 321 321
302 301 304 305 306 306 307 305 306 306 307 307 309 308 308 309 309 310 312 311 313 312 313 315 315 314 315 316 317 318 317 316 320 322 323 322 321 323 323 324 324 325 322 319 317 317 319 320 322 323 323 322 321 320
302 303 304 305 306 307 306 308 308 307 307 307 311 312 312 313 313 314 312 314 314 314 313 314 316 314 315 317 316 316 317 317 319 322 321 319 316 317 319 321 322 319 320 318 319 318 318 323 323 323 322 322 321 321
303 303 303 305 307 304 306 310 310 310 312 312 312 314 314 314 314 312 313 314 315 315 313 312 313 316 315 316 317 318 317 316 318 319 318 319 319 320 320 319 319 318 317 318 318 318 318 320 320 320 320 320 321 320
303 304 305 305 307 307 309 311 311 311 311 313 313 313 314 315 314 316 318 316 315 315 314 312 312 312 312 313 314 314 315 316 320 319 320 319 316 318 319 319 320 318 318 319 319 319 320 320 320 320 319 319 318 318
302 306 306 310 309 310 312 313 312 313 313 312 314 314 316 315 317 316 318 318 316 316 316 315 313 312 313 314 314 313 317 318 318 318 319 319 319 318 317 317 318 318 318 319 319 318 317 317 319 319 319 318 318 317
302 305 306 308 308 311 311 311 310 312 312 314 314 316 316 319 320 320 318 318 316 316 315 316 317 315 313 313 313 316 319 321 319 317 319 319 318 317 315 316 317 317 317 317 316 316 316 317 317 317 317 319 318 318
304 306 305 305 308 311 311 312 312 313 316 316 316 315 317 318 317 319 317 315 317 317 318 318 319 316 316 317 317 318 320 319 319 319 319 318 318 318 318 318 317 318 318 317 316 317 316 315 316 317 317 317 317 317
302 306 309 308 310 311 313 314 314 315 318 318 316 319 321 323 321 319 317 318 316 318 318 318 318 318 318 318 319 318 318 318 317 317 318 318 317 318 317 317 317 316 317 317 317 316 315 315 315 316 316 316 316 316
305 307 311 310 311 312 314 316 315 315 315 317 320 320 319 317 317 319 319 318 318 318 318 317 318 318 318 318 318 318 317 317 317 318 318 317 315 316 317 315 315 317 317 317 317 316 315 317 317 316 315 314 315 315
308 310 314 312 313 317 317 316 319 319 318 318 317 316 316 316 317 318 318 318 318 318 318 318 318 319 317 318 318 317 317 318 317 316 315 315 315 315 316 316 316 316 316 316 315 315 316 316 317 317 317 316 316 316
314 312 317 316 321 319 319 318 318 318 317 316 316 317 317 317 315 317 318 318 318 318 319 318 318 317 317 316 316 316 315 317 317 317 316 315 312 311 311 313 313 314 314 315 316 316 315 313 315 316 316 315 313 314
318 319 320 320 319 318 317 318 318 318 317 317 317 314 314 316 315 315 316 316 317 318 317 317 317 317 318 316 314 317 316 316 314 310 309 309 309 309 310 310 309 308 308 307 307 307 306 306 306 306 305 306 303 303
318 318 319 319 318 319 318 317 318 319 318 319 319 318 317 318 319 317 317 317 317 317 316 313 315 314 310 310 309 311 313 310 309 308 308 307 307 307 306 306 305 305 305 304 304 303 303 303 302 301 301 300 299 300

GFSWCAN_925_thetae_081.txt.gz
Theta_e
314 315 314 314 313 305 300 299 303 306 307 310 311 313 315 314 312 309 307 305 304 302 303 306 306 305 305 305 308 308 308 314 322 323 324 323 326 328 327 329 327 330 333 332 329 335 337 334 337 340 334 335 334 334
313 314 314 314 313 304 299 299 303 306 309 310 312 313 314 314 311 309 306 305 304 303 304 308 308 308 308 306 304 302 307 309 315 322 322 325 326 325 324 328 327 328 329 330 327 337 331 329 331 331 331 334 334 334
312 314 313 313 312 302 298 299 303 307 310 310 312 314 314 314 311 309 306 305 306 302 304 303 305 309 308 308 308 304 301 306 318 315 318 323 326 323 324 323 328 328 324 330 332 333 332 330 329 331 331 331 332 332
312 313 313 313 310 300 299 301 305 309 309 310 311 313 314 313 310 308 307 305 305 303 306 307 307 309 310 309 307 307 304 309 309 308 311 315 326 321 324 321 327 327 325 326 335 333 330 328 328 328 328 331 333 333
311 313 313 312 307 299 301 303 307 310 309 310 312 312 314 313 310 308 308 307 306 306 306 306 306 306 306 307 306 305 305 301 303 307 313 318 316 323 322 323 325 326 326 329 331 327 326 325 327 328 328 329 332 332
311 312 312 310 302 298 301 304 307 309 311 311 312 314 313 311 309 307 303 308 306 305 304 303 301 300 305 307 305 302 303 300 306 310 312 313 312 315 318 321 323 326 323 324 328 327 326 324 325 325 326 325 325 330
312 312 311 307 299 299 300 303 308 310 311 312 313 313 313 311 309 306 305 306 305 306 301 302 303 304 309 309 307 305 306 306 308 309 312 313 313 313 314 317 319 325 325 324 325 326 327 327 325 324 325 331 330 330
311 311 309 302 299 300 302 305 309 311 312 312 313 313 311 310 309 309 311 310 307 307 302 305 306 305 310 312 309 305 308 308 309 311 309 311 309 311 313 312 316 324 324 324 325 325 324 322 328 328 328 327 328 328
311 310 304 299 299 301 303 306 309 311 312 313 312 311 309 308 305 308 307 307 308 305 306 306 309 312 306 308 311 311 307 311 308 313 311 311 311 313 314 312 324 325 323 321 322 322 324 327 328 326 326 326 326 326
309 306 301 300 300 302 303 306 309 311 312 312 310 307 307 307 308 305 304 302 301 300 299 301 301 308 305 308 312 314 312 311 312 312 309 312 313 309 311 316 321 323 322 322 321 325 326 327 326 324 325 324 324 323
304 301 299 299 300 301 303 306 309 311 310 308 304 306 307 308 306 304 306 305 304 306 302 302 303 304 302 307 311 312 318 317 316 316 313 313 317 321 321 322 322 322 321 321 317 320 323 323 323 324 324 323 324 324
301 298 298 298 298 300 306 308 310 310 311 310 307 306 307 304 304 309 308 308 309 311 308 307 307 303 303 306 312 319 324 320 323 320 323 326 323 321 320 319 319 320 322 323 320 321 322 321 323 323 321 320 321 323
299 298 298 298 298 303 308 310 311 310 308 309 310 311 308 307 307 314 316 313 311 310 311 309 308 305 303 306 319 322 325 324 319 324 325 322 322 324 322 322 322 322 324 324 323 322 323 322 323 322 321 322 322 321
297 297 297 299 304 307 310 310 309 307 309 310 312 310 311 312 311 310 312 310 310 311 311 308 308 307 307 315 319 323 323 322 326 323 325 323 322 323 322 322 322 323 323 323 322 320 319 320 321 322 322 320 321 321
298 298 298 302 305 308 309 308 307 307 308 310 310 311 310 309 308 309 308 309 310 309 309 308 307 305 307 320 320 319 322 324 324 327 323 323 322 325 324 322 320 321 320 319 319 319 320 319 318 318 318 320 317 321
298 296 297 304 305 307 307 307 306 307 308 309 310 312 310 310 311 310 309 309 308 309 307 305 308 309 317 319 321 323 322 321 321 321 322 322 322 322 321 321 320 319 320 320 320 320 319 318 317 317 318 319 319 321
295 295 295 302 305 307 307 307 306 307 309 311 309 306 308 309 310 310 309 310 309 311 313 310 310 311 313 318 321 318 320 320 320 319 323 320 321 317 317 318 317 316 316 316 317 318 318 320 322 320 318 320 321 319
299 295 296 305 307 307 306 306 307 308 310 307 307 305 307 309 310 311 309 310 311 313 313 314 310 315 315 318 318 317 316 316 316 315 319 322 319 316 317 315 316 317 317 317 318 318 319 317 316 317 321 321 321 321
296 295 302 306 306 305 305 306 306 308 306 304 304 304 305 307 308 309 308 310 312 311 310 312 314 314 315 315 316 315 316 317 320 319 319 317 320 319 317 318 319 319 318 318 319 318 319 321 320 320 320 320 320 321
295 302 305 305 305 306 306 304 306 306 307 306 304 305 305 306 308 308 310 310 308 309 312 314 313 313 314 314 313 314 313 315 320 322 321 320 320 319 319 319 318 319 319 320 319 318 319 321 322 321 322 321 320 320
301 304 305 305 305 306 304 302 303 303 304 305 304 306 307 304 307 308 309 308 310 310 311 309 311 310 311 313 315 315 314 315 316 319 320 321 319 318 319 321 322 322 320 318 317 317 318 318 318 321 321 321 321 320
301 303 304 305 305 304 303 304 304 303 304 304 305 308 310 310 310 311 309 312 311 310 309 310 310 310 312 312 312 315 315 316 316 317 319 318 319 316 316 319 322 319 320 318 317 317 317 318 320 321 321 321 320 320
303 303 303 303 305 301 301 306 308 307 310 308 309 312 311 311 310 308 311 309 310 309 310 309 310 314 312 314 315 316 316 315 315 317 317 317 317 318 318 318 318 317 315 317 317 317 318 318 318 318 320 319 319 319
302 303 304 303 305 304 305 308 307 309 308 310 310 312 312 311 310 312 313 312 311 311 311 310 311 309 309 310 311 311 314 314 315 317 317 316 315 316 316 317 318 317 317 318 318 318 317 318 318 319 319 318 318 317
300 301 303 304 307 309 311 310 310 310 311 310 312 312 313 312 314 314 316 315 316 315 313 314 313 310 311 310 309 312 316 316 315 317 318 318 317 315 316 317 316 317 317 317 317 317 316 316 317 317 318 318 317 317
299 304 303 306 308 310 311 311 309 309 310 312 313 313 314 317 317 319 318 316 316 315 315 314 314 314 313 312 312 313 317 319 318 316 316 317 317 315 314 314 314 316 317 317 316 315 315 315 315 316 316 316 316 317
302 306 303 302 307 309 311 309 309 311 314 315 316 315 316 314 315 318 315 314 314 316 317 317 316 315 315 315 316 317 318 318 317 318 317 318 318 318 317 316 315 317 317 317 317 317 316 315 315 315 315 315 315 316
302 302 306 305 307 308 312 313 313 314 313 316 316 316 317 320 320 318 316 318 316 317 317 317 317 317 317 318 318 318 317 317 318 318 318 317 316 317 317 316 316 316 316 317 317 317 316 315 316 316 316 314 315 315
305 305 308 310 311 311 312 315 314 315 314 316 319 321 321 319 318 317 316 317 318 317 316 317 317 317 317 317 316 316 317 317 316 315 315 312 310 314 316 314 314 314 316 316 316 316 315 315 316 316 315 314 315 315
306 306 311 310 310 310 313 313 317 315 314 315 314 315 317 316 317 317 317 317 317 316 317 317 316 316 315 317 317 317 317 316 316 315 312 313 313 311 309 310 312 312 313 314 314 314 315 316 316 316 316 315 314 315
310 310 314 313 314 314 314 313 314 315 313 313 313 316 316 315 313 316 317 317 316 316 316 317 317 317 315 315 315 314 315 316 312 309 309 309 309 308 308 308 307 307 307 307 306 305 306 306 306 307 309 302 302 301
311 311 315 317 316 316 316 316 315 316 315 314 314 313 314 312 315 315 315 314 314 314 313 314 314 310 312 315 315 312 309 308 307 307 307 307 307 306 305 305 305 305 304 303 303 303 302 301 301 300 299 299 299 299
314 314 315 315 316 317 316 318 318 317 316 316 317 316 316 317 316 315 311 308 308 309 310 311 309 309 309 310 310 307 307 306 306 306 306 306 305 304 304 303 303 302 301 301 301 300 299 299 299 299 298 298 298 298

GFSWCAN_925_thetae_084.txt.gz
Theta_e
303 305 311 314 314 314 314 309 301 302 306 306 310 310 311 314 313 311 307 306 304 301 301 304 305 305 304 304 306 304 305 309 315 322 323 322 326 325 325 325 329 326 330 329 328 334 334 331 336 339 334 333 332 333
303 305 308 312 314 314 313 308 300 302 306 305 308 311 312 314 314 310 307 304 304 302 302 305 306 307 307 306 304 302 304 306 304 320 318 321 326 324 322 325 324 328 327 330 327 331 329 328 331 330 330 334 333 333
302 304 308 312 313 313 313 306 299 300 305 308 310 311 313 314 313 310 307 305 304 301 302 302 305 308 307 307 307 306 302 304 308 314 314 319 325 321 324 322 324 326 322 329 330 330 330 329 328 329 329 330 331 332
302 303 307 311 313 313 312 302 299 302 307 310 310 312 313 314 313 310 308 306 304 302 305 307 307 307 309 308 308 307 304 303 306 305 306 310 321 319 323 319 323 323 324 325 329 330 330 329 328 327 326 327 332 332
301 303 307 311 312 312 310 303 300 305 309 309 309 311 314 314 312 310 309 308 307 306 306 305 305 305 304 306 306 306 305 300 301 303 307 313 313 320 320 320 324 324 327 329 329 326 326 325 325 327 327 327 325 329
301 303 308 311 312 312 302 299 303 307 309 308 310 312 312 313 311 309 303 306 306 305 303 305 302 301 304 304 303 302 303 298 301 302 306 310 310 316 315 317 318 323 323 323 327 326 325 324 325 324 324 325 325 328
301 303 308 311 311 310 301 300 304 307 309 310 311 311 313 312 310 307 305 306 306 305 301 302 302 301 305 307 302 299 301 300 302 305 308 310 311 313 313 314 315 321 325 324 325 326 328 326 325 326 324 330 328 329
302 305 309 310 310 303 300 302 306 309 311 311 312 313 312 311 310 310 311 308 305 306 301 305 305 305 306 309 307 302 303 305 307 309 308 310 308 310 312 311 311 320 323 324 326 325 324 323 328 329 328 327 327 328
303 307 309 310 307 300 301 304 308 310 312 311 312 311 310 309 306 308 307 308 307 305 303 304 308 310 305 304 309 309 305 309 306 311 309 310 312 314 313 312 312 323 323 323 323 323 323 324 328 327 325 325 325 326
304 308 309 307 301 300 301 305 307 310 311 311 311 309 309 307 307 305 303 301 301 300 298 300 299 306 303 303 307 311 309 309 313 310 308 311 313 311 310 310 312 322 320 320 324 326 326 327 326 324 324 322 322 323
307 308 309 302 300 302 305 306 309 311 311 310 306 307 307 307 305 303 305 303 302 305 299 299 299 303 301 304 305 309 316 316 316 315 315 313 314 313 318 320 318 320 321 320 320 320 324 325 324 321 324 323 323 323
308 308 305 301 301 302 305 308 310 310 311 311 307 306 306 304 305 308 307 306 306 309 306 306 306 301 302 304 309 313 323 321 322 318 323 324 320 319 319 320 320 320 320 319 318 316 321 323 322 322 323 322 322 322
306 303 301 300 301 303 305 309 310 311 309 307 309 310 306 305 305 311 313 313 310 309 309 308 309 304 301 303 311 318 322 323 318 322 326 322 319 322 322 323 323 322 323 323 322 321 321 322 323 322 320 320 320 320
303 299 298 298 300 306 306 310 310 310 308 310 310 307 309 311 310 309 311 311 309 310 311 308 306 306 304 311 315 323 321 321 324 325 323 320 321 322 323 322 323 323 322 321 321 321 320 321 320 320 320 320 320 320
300 299 299 299 299 303 308 309 308 308 308 309 309 309 310 308 307 308 307 308 308 307 307 307 305 304 306 318 317 318 321 323 324 326 322 320 321 321 324 323 322 321 320 320 319 319 318 318 317 317 317 318 319 316
297 299 302 302 304 306 307 308 308 307 308 309 309 312 309 309 311 309 308 310 306 306 304 303 307 308 314 317 320 323 322 323 321 319 318 322 322 321 321 321 321 320 319 319 319 319 319 318 318 318 318 318 318 320
295 295 302 305 307 307 307 307 307 307 308 310 308 305 307 309 311 311 309 309 306 308 312 308 309 310 311 316 319 317 319 318 317 315 316 321 322 320 318 317 318 318 318 317 317 318 318 319 319 318 317 319 320 320
296 299 304 307 307 307 307 307 306 307 309 306 306 305 304 305 309 310 309 306 308 310 310 313 308 314 314 317 318 316 314 313 314 313 313 316 318 318 318 317 315 315 315 315 316 316 317 317 315 316 317 319 319 320
296 302 305 307 307 305 305 305 305 307 306 304 303 302 304 305 305 306 306 307 308 308 311 312 313 313 313 313 315 313 314 314 316 318 315 314 316 317 319 320 318 316 316 317 318 317 318 318 317 318 318 318 318 319
302 306 305 305 305 305 305 303 305 305 305 305 302 303 303 304 304 305 306 307 306 307 311 312 312 310 312 312 310 312 311 312 315 319 316 317 318 319 320 319 318 317 317 318 318 317 316 318 318 318 319 319 318 318
303 305 305 305 305 305 303 302 302 302 302 304 302 304 306 303 305 306 307 306 309 309 310 308 309 309 308 310 313 313 311 312 315 317 318 319 319 319 319 318 319 318 319 318 318 317 317 317 317 319 320 320 319 319
304 304 304 304 304 303 302 302 302 301 303 303 303 305 308 309 308 308 307 311 310 309 307 308 308 309 310 311 311 312 314 315 315 315 315 317 318 317 316 316 319 317 316 317 316 315 316 317 317 317 317 318 318 318
303 303 303 303 302 300 300 303 307 305 308 307 306 310 309 309 308 306 309 307 308 306 307 307 309 311 311 312 313 314 315 315 315 315 316 317 316 316 316 316 316 315 315 316 317 317 317 318 318 317 318 318 318 317
302 303 302 302 303 302 303 306 305 307 306 308 309 312 310 309 307 309 312 310 308 308 309 309 309 309 308 310 309 310 312 312 314 315 315 315 315 316 316 316 317 317 316 316 316 317 317 316 316 317 318 318 317 317
297 299 302 303 305 308 307 308 308 308 309 308 311 310 311 309 311 312 313 314 313 315 314 314 311 311 312 311 310 311 315 315 313 316 317 316 315 314 315 315 316 316 315 315 315 315 315 315 315 315 315 316 316 316
298 302 304 306 308 309 310 309 309 309 308 311 311 311 314 315 316 316 317 316 315 315 315 313 312 311 310 310 311 315 317 316 315 315 316 316 314 313 313 315 314 315 317 317 316 316 316 315 314 314 315 315 315 314
302 305 302 300 306 309 311 310 308 309 312 314 314 314 314 314 314 316 315 314 314 315 315 316 314 314 315 314 313 314 316 317 317 316 316 316 316 316 316 315 315 316 316 316 316 316 316 315 315 315 315 316 315 314
302 302 305 304 306 307 311 312 313 313 313 314 314 314 314 314 321 319 317 317 316 315 315 315 314 316 316 316 316 317 317 317 317 317 315 314 315 314 311 311 312 312 314 315 315 316 316 316 315 315 315 315 314 314
303 303 306 309 310 310 310 311 312 312 312 310 312 315 318 319 317 316 315 316 316 315 315 315 315 315 316 316 316 315 315 315 314 314 314 312 311 310 308 309 310 310 312 313 314 315 315 315 315 314 314 314 315 315
306 306 311 310 309 309 310 309 311 313 312 312 315 317 316 315 315 315 315 315 315 316 316 315 314 315 315 316 315 315 312 312 313 312 312 309 308 307 306 306 306 306 306 306 306 306 306 307 310 305 303 301 301 301
308 308 312 311 312 314 313 315 314 314 314 314 314 315 313 312 314 310 310 312 313 314 313 312 312 314 314 314 314 314 310 307 307 307 306 306 305 305 304 304 304 303 303 303 303 302 302 300 299 299 299 299 299 298
310 311 314 317 318 316 316 316 316 316 316 315 314 314 314 314 315 313 309 308 310 310 310 308 308 309 311 309 308 306 306 306 306 306 305 304 303 303 303 302 302 301 301 301 299 299 299 299 298 298 298 297 297 297
311 312 314 318 317 317 317 317 317 317 316 316 316 316 315 315 315 314 308 307 307 308 306 306 306 307 306 306 306 306 305 305 305 304 303 303 303 302 302 301 300 300 300 299 298 298 298 297 297 297 297 296 296 296

GFSWCAN_925_thetae_087.txt.gz
Theta_e
302 302 302 304 307 311 314 314 313 309 302 304 306 310 310 311 313 312 308 306 304 307 308 306 308 310 309 309 313 311 312 313 315 329 330 329 332 330 331 328 333 333 336 337 336 339 335 334 337 341 339 338 337 337
302 302 302 303 306 311 313 314 313 307 301 304 306 309 310 311 313 312 308 305 305 305 309 305 307 307 308 309 310 309 310 311 311 327 326 327 333 331 329 329 329 333 331 335 337 339 335 332 335 334 335 337 338 340
301 301 301 303 306 310 313 313 313 305 300 304 305 306 310 312 313 312 308 304 303 306 309 308 311 309 307 307 308 311 311 312 311 318 321 327 331 329 330 327 328 329 328 336 335 335 335 333 332 330 331 336 337 337
301 301 301 302 305 309 312 313 312 303 299 304 309 309 311 313 314 313 309 308 305 306 312 315 307 308 309 307 307 308 309 305 310 311 313 315 320 323 324 325 326 327 330 332 333 333 334 333 332 330 332 335 335 336
301 301 301 301 303 309 312 312 309 300 301 308 310 310 312 312 313 312 310 309 306 309 314 314 309 307 304 306 308 308 308 309 310 310 312 315 318 322 325 325 329 329 329 330 334 332 333 332 330 329 330 329 331 334
301 301 301 301 303 309 311 312 304 300 305 309 309 309 311 313 312 310 309 306 308 306 309 313 308 307 305 304 306 308 308 308 309 310 311 313 316 323 320 322 323 325 328 328 331 331 330 329 329 328 328 328 330 331
301 301 301 302 304 309 311 309 300 304 308 308 309 310 312 313 311 308 310 306 306 306 307 309 310 307 306 307 305 306 306 308 309 310 313 314 317 318 318 319 319 320 321 329 327 329 332 329 330 330 328 333 332 332
300 301 301 302 306 309 310 301 303 306 308 309 310 311 311 311 310 310 311 307 305 305 305 309 310 311 308 315 313 306 308 308 309 312 314 317 315 317 320 320 320 318 320 328 328 329 328 329 332 333 331 328 328 331
301 301 301 303 308 309 305 300 304 308 310 311 310 311 309 310 308 308 306 307 305 306 310 309 313 314 311 310 315 313 310 313 312 316 317 316 318 318 319 322 321 319 328 327 328 328 328 329 332 331 327 327 327 329
301 301 302 307 308 308 300 302 306 310 312 311 311 310 311 308 307 305 303 306 307 307 305 308 305 311 308 310 313 317 316 317 318 317 314 317 317 319 318 319 319 321 326 326 328 329 329 329 331 330 327 325 326 328
301 302 305 308 308 302 300 304 310 312 311 311 310 312 306 306 305 305 308 307 307 308 306 306 305 308 306 311 311 315 321 323 323 322 322 319 320 321 325 325 324 318 325 325 324 324 327 329 331 327 327 326 326 327
303 304 307 308 302 300 301 306 310 310 311 311 308 307 306 306 307 310 310 309 309 312 310 310 311 307 309 308 313 318 326 326 326 323 328 328 327 325 326 326 325 325 326 327 325 324 325 328 328 326 327 326 325 325
304 307 307 302 302 304 306 308 310 311 308 307 310 310 309 307 309 311 313 314 314 314 314 313 315 311 308 308 312 323 325 326 322 326 327 328 325 325 325 327 327 326 325 325 324 324 326 326 326 326 325 324 325 325
307 307 303 301 303 306 307 309 310 310 309 311 312 310 312 312 312 312 314 315 314 313 314 314 314 313 310 314 317 325 324 324 324 325 325 326 321 325 326 326 327 327 326 326 326 325 325 326 324 323 323 322 321 322
305 302 301 301 303 304 308 309 310 308 308 312 313 314 313 312 311 312 311 312 313 312 313 314 312 311 314 320 324 323 323 324 325 323 325 322 323 323 324 323 324 324 325 325 324 324 323 322 322 322 321 321 322 320
300 299 299 302 305 305 308 308 309 308 309 311 312 314 312 313 314 313 313 314 312 312 309 311 313 313 318 323 323 323 322 324 324 324 322 320 324 322 323 322 321 322 324 323 323 323 323 323 324 323 323 323 322 323
300 301 299 300 303 307 307 308 308 308 311 312 311 310 312 312 313 314 313 313 311 314 317 314 313 315 318 320 322 322 323 324 324 323 320 322 324 321 321 320 321 320 320 321 321 322 322 321 321 323 325 324 323 322
300 303 303 304 306 306 306 307 308 309 310 310 311 309 309 309 312 312 312 311 314 316 316 318 315 317 318 319 321 322 323 322 321 322 321 319 320 319 319 320 321 322 319 319 319 320 321 321 322 323 322 318 320 322
303 305 306 305 306 305 306 306 307 309 309 308 308 307 308 309 309 309 310 311 313 313 315 317 317 318 319 321 321 320 321 321 322 322 322 319 317 318 318 320 321 321 320 320 320 321 322 320 320 321 322 322 322 321
304 306 306 305 304 305 306 307 305 308 310 310 308 309 309 309 308 309 311 313 314 315 316 317 316 319 321 321 319 320 320 319 320 323 323 322 319 319 320 321 322 322 321 320 320 317 320 320 317 317 321 322 322 322
305 305 305 304 305 305 306 306 307 306 307 309 307 309 311 309 311 312 312 313 317 316 314 316 319 319 315 315 317 317 319 319 321 321 321 319 319 320 320 320 319 321 323 323 323 322 319 319 319 321 321 321 321 321
304 304 304 304 305 305 307 304 306 305 307 308 309 310 314 315 315 315 313 318 319 319 316 317 317 317 318 317 317 316 317 317 318 317 316 315 317 321 321 320 322 323 321 321 320 319 319 319 319 320 319 320 320 320
304 303 303 303 305 304 305 305 310 309 312 312 312 313 314 315 315 313 318 315 315 314 313 314 314 314 316 315 315 316 316 317 317 316 316 319 319 318 319 319 318 319 320 319 318 317 318 317 318 316 317 318 320 321
302 303 304 305 305 306 307 310 310 311 310 312 314 313 314 316 314 316 317 316 316 314 316 316 314 316 315 315 316 317 315 313 315 315 317 318 320 320 316 317 317 317 317 316 318 317 316 318 315 317 318 318 319 320
302 303 304 304 306 308 309 312 312 312 313 312 313 315 317 316 317 317 317 316 318 318 317 315 314 316 317 317 316 315 317 316 316 318 319 318 317 317 319 318 318 317 317 318 318 318 318 318 317 317 317 317 318 318
301 304 306 307 309 311 311 312 312 313 312 313 314 316 317 317 316 316 316 316 317 317 318 318 318 317 316 315 318 320 319 316 315 318 316 316 316 317 318 318 318 317 317 317 317 317 318 318 317 317 317 317 317 316
304 305 306 304 308 310 313 312 311 312 313 315 316 315 314 313 313 315 317 317 317 316 315 315 316 315 317 315 314 314 315 315 316 316 316 317 315 314 315 315 316 315 314 315 316 317 317 318 317 316 316 316 317 317
304 305 308 307 310 310 312 314 314 314 315 313 313 314 314 311 318 319 319 316 315 315 315 314 316 317 317 317 316 315 316 317 316 314 315 316 315 311 310 310 310 310 312 313 314 315 316 316 316 315 316 317 317 317
305 306 307 310 310 310 310 312 312 312 310 311 312 314 316 318 317 317 316 316 316 316 317 317 316 316 316 315 315 315 315 316 317 317 316 314 311 309 308 307 307 307 307 308 307 308 312 312 311 311 309 309 308 304
307 306 310 308 307 308 308 309 310 311 311 310 311 312 311 311 310 311 312 313 315 315 315 316 315 316 317 314 311 309 308 308 310 311 311 310 309 306 305 305 304 304 305 305 304 304 303 303 303 303 303 302 302 302
308 307 310 309 309 311 310 309 308 312 314 315 314 313 313 313 310 308 308 310 311 311 312 313 312 311 311 310 311 309 308 307 306 306 306 305 305 304 304 303 303 303 302 302 302 301 301 301 301 301 301 300 300 300
310 311 315 318 318 317 317 317 317 316 316 316 316 315 314 314 315 313 308 309 309 309 308 310 308 307 307 307 307 306 305 305 304 304 304 304 303 303 302 302 302 301 301 301 300 300 300 300 300 299 299 299 298 298
314 315 318 318 318 317 317 317 317 316 316 317 317 316 317 314 312 311 306 306 306 307 306 306 306 305 305 305 305 305 305 303 302 302 302 302 301 301 301 301 300 300 300 300 299 299 299 298 298 298 297 296 296 295

GFSWCAN_925_thetae_090.txt.gz
Theta_e
301 302 302 302 302 304 306 311 314 314 313 305 305 306 310 311 312 311 313 310 310 315 316 314 314 315 316 315 318 318 318 317 318 321 324 325 328 330 331 329 331 333 334 338 337 333 336 337 338 342 343 342 340 339
301 301 302 302 301 303 306 310 313 314 313 305 303 306 310 311 311 312 313 308 307 311 316 312 312 312 312 313 315 316 318 317 316 325 326 326 329 331 331 331 331 333 330 334 336 336 335 336 337 337 338 337 336 338
301 301 301 302 301 302 304 308 313 313 312 303 304 306 309 311 311 313 309 307 307 313 316 316 317 314 312 312 312 316 317 317 317 318 325 324 329 329 330 329 328 330 331 335 333 333 333 337 335 334 334 335 333 334
300 300 301 301 301 302 304 308 312 313 311 301 304 305 308 310 312 313 310 309 308 312 317 318 312 313 312 312 311 312 315 311 313 315 318 320 322 324 325 326 328 327 331 327 329 332 332 333 334 334 333 332 331 331
300 300 301 301 301 301 304 307 311 312 308 301 302 308 309 312 313 312 312 311 308 311 318 318 315 313 310 309 311 312 312 315 315 315 315 318 319 321 323 325 325 326 327 323 324 333 334 333 334 332 331 331 331 331
300 300 301 301 301 301 303 308 311 311 300 301 309 310 310 312 312 311 314 311 311 310 315 317 314 313 309 310 312 313 313 314 315 314 316 316 317 320 321 324 324 324 325 322 323 333 330 332 329 325 329 331 331 330
299 300 301 301 301 301 303 309 310 307 301 305 309 309 311 310 312 310 312 309 309 310 313 316 316 312 310 312 312 313 313 314 314 315 316 317 317 319 318 320 321 322 321 321 328 332 331 331 331 331 332 333 330 330
300 300 300 301 301 301 304 309 309 303 306 309 309 310 312 312 311 311 312 310 308 310 311 314 315 314 312 317 315 312 314 314 314 315 317 318 319 319 318 318 319 318 321 323 331 331 332 331 331 332 331 326 326 328
300 300 301 301 301 302 306 309 302 304 308 308 310 311 310 310 312 313 308 307 307 310 315 313 315 318 315 316 318 314 315 317 317 317 319 319 320 321 319 319 320 322 323 330 330 331 331 332 332 332 328 325 326 327
301 301 301 301 302 304 308 304 303 307 309 309 311 310 314 313 310 307 307 310 312 313 312 313 313 315 314 315 318 321 318 319 321 321 319 320 321 323 327 328 326 323 322 328 331 332 331 330 331 332 327 325 326 327
301 300 301 301 303 307 308 302 306 309 311 310 311 314 310 307 308 306 310 313 313 313 312 312 313 314 313 316 318 319 323 323 322 322 322 323 324 331 330 331 329 328 322 325 329 327 326 329 330 330 328 326 327 327
300 301 301 303 307 308 301 303 308 310 311 311 311 310 308 309 310 314 315 313 313 315 314 314 316 312 314 314 316 319 325 325 324 326 327 326 331 328 331 331 330 328 325 327 328 327 328 330 330 329 328 327 327 327
301 301 303 306 307 303 302 307 308 311 309 308 311 312 313 313 316 315 316 315 317 316 317 317 319 316 315 313 315 320 323 322 325 326 326 330 326 326 329 331 330 329 328 327 327 327 328 329 328 328 328 327 327 328
303 303 306 307 303 301 305 308 308 309 311 312 314 315 315 315 315 315 315 316 317 317 318 318 319 317 315 315 316 321 321 323 323 324 326 327 326 328 327 327 330 329 329 329 329 329 329 328 328 327 326 325 325 325
304 306 305 302 301 302 304 307 309 309 309 314 315 320 315 315 314 315 315 315 316 316 317 319 318 318 317 318 322 321 321 321 324 325 325 327 326 327 327 325 326 327 327 327 326 325 324 324 324 324 324 323 323 324
305 304 303 303 305 307 307 308 309 309 310 314 315 316 315 316 316 316 316 317 316 317 317 318 318 316 316 320 321 320 320 324 325 324 324 325 324 322 323 324 324 324 323 324 323 323 322 323 324 324 324 324 323 323
302 301 303 304 306 307 308 308 308 310 313 314 314 315 317 317 318 317 316 316 316 319 319 317 316 316 318 318 319 322 324 325 324 325 322 325 325 325 324 324 322 321 323 324 324 324 324 324 323 324 325 324 324 325
301 300 301 304 306 307 307 307 308 311 313 313 314 315 313 313 315 315 315 317 319 319 319 320 319 318 317 317 319 320 321 321 323 323 324 324 323 322 321 323 321 322 324 323 324 324 324 325 324 323 325 325 324 323
301 302 303 305 306 306 307 306 310 311 312 312 312 312 311 311 312 313 314 316 318 317 319 319 319 318 320 319 319 318 319 319 321 323 323 322 321 320 320 321 322 324 324 325 325 323 323 323 323 322 321 322 320 320
300 302 305 305 305 308 309 310 309 311 312 312 311 312 312 312 312 314 314 317 318 317 318 318 317 317 316 317 317 317 319 321 323 323 324 323 320 320 321 322 323 323 325 325 324 321 323 322 321 320 321 320 320 319
304 304 304 305 308 308 309 309 309 310 310 311 311 312 313 313 314 315 315 315 317 317 316 315 315 317 319 318 319 321 322 322 324 323 323 320 319 319 320 320 322 322 324 324 322 321 319 319 318 318 318 318 317 318
305 304 306 306 308 309 310 309 310 309 311 312 313 315 315 314 314 314 316 316 316 316 317 317 317 318 318 320 321 320 320 321 321 320 318 317 318 322 321 320 322 324 320 319 319 319 318 318 317 317 317 318 317 318
304 306 306 306 308 308 310 311 312 312 313 313 314 314 315 316 316 317 315 315 316 318 318 318 319 319 320 319 319 319 319 320 319 321 319 321 321 320 320 320 321 320 320 318 318 318 319 319 319 318 318 318 318 318
304 306 307 308 309 310 310 312 313 314 314 313 313 313 314 316 317 317 316 316 316 317 318 320 318 318 318 319 318 318 318 317 317 318 319 321 322 321 320 319 320 320 320 320 320 320 320 320 319 318 318 318 318 318
305 306 307 306 308 310 311 312 313 314 313 313 314 314 317 318 317 317 317 318 318 319 319 318 317 319 318 318 318 320 320 321 320 321 321 320 320 319 318 318 319 319 319 319 319 319 319 319 318 318 318 318 318 318
307 307 306 309 311 311 311 311 312 313 313 313 314 316 317 317 317 317 316 316 317 319 319 320 320 320 320 319 323 323 320 319 320 320 319 319 318 318 319 319 319 318 316 316 318 318 318 318 318 318 318 318 318 318
307 308 309 309 311 312 313 312 313 313 314 315 317 316 315 313 313 315 316 316 319 319 317 318 319 319 319 319 318 318 318 320 321 320 318 316 315 314 314 314 314 312 313 314 315 316 317 317 318 318 318 318 318 318
308 309 310 311 312 313 313 313 313 315 316 315 314 312 312 314 319 319 319 319 319 319 318 318 317 318 318 319 319 319 319 320 319 318 318 317 314 311 311 310 309 308 309 308 308 310 311 313 313 314 314 315 312 310
308 310 311 312 312 313 314 315 314 313 311 312 311 313 317 316 313 316 318 319 319 319 318 320 318 317 317 316 314 313 315 316 317 317 316 315 313 310 309 308 308 307 307 307 305 305 304 305 305 306 307 307 307 306
310 309 311 311 311 312 312 313 312 312 310 311 311 312 311 311 309 310 313 315 317 318 318 318 318 316 311 310 310 310 310 311 311 311 312 312 310 308 307 306 306 305 305 305 304 304 303 304 304 304 304 304 303 303
307 308 309 309 310 311 311 308 309 310 313 313 313 313 312 313 310 310 312 313 314 315 314 313 312 311 311 311 311 311 311 309 309 308 307 308 307 306 306 305 304 304 304 304 303 303 303 303 303 303 303 302 302 301
309 310 315 317 318 314 312 316 316 316 316 314 314 313 314 315 314 311 309 311 311 311 310 310 310 310 310 310 309 309 307 307 306 306 306 306 305 305 304 304 304 303 303 303 303 302 302 302 301 301 300 299 298 297
320 318 318 318 318 318 318 317 316 316 316 316 317 316 315 313 312 311 309 309 309 309 310 309 309 309 308 307 307 307 306 302 301 301 301 300 300 301 302 302 302 302 302 302 301 301 300 299 299 297 296 296 295 295

GFSWCAN_925_thetae_093.txt.gz
Theta_e
301 301 301 302 302 302 303 304 306 311 314 314 310 305 306 310 311 312 315 316 316 318 319 318 318 319 319 319 320 322 321 321 320 322 322 323 327 331 334 330 333 331 336 337 337 337 338 335 337 340 343 339 337 337
300 301 301 302 302 302 302 303 305 309 313 313 310 304 305 310 311 312 314 314 314 316 318 316 317 316 317 317 320 319 322 322 321 322 327 326 326 328 329 332 333 336 331 334 335 338 336 335 339 339 337 336 337 337
300 300 301 301 301 302 302 302 305 308 313 313 310 303 304 309 311 312 313 314 313 315 316 317 318 317 316 316 316 318 319 320 321 320 326 326 328 326 328 331 332 330 330 331 333 333 335 335 334 336 333 334 335 334
300 300 300 301 301 302 302 302 304 308 313 313 307 304 305 310 311 311 312 314 313 315 318 319 317 316 316 316 316 316 317 318 317 321 320 322 323 325 323 326 326 328 328 330 327 329 334 335 334 335 335 332 331 330
300 300 300 300 301 301 302 302 304 308 312 312 305 303 306 309 311 312 313 313 314 315 321 321 318 317 316 316 316 315 316 318 319 318 318 319 319 321 322 323 324 327 329 328 327 332 335 335 332 334 333 333 331 331
301 300 300 300 301 301 302 302 303 308 311 310 302 303 306 309 311 311 316 314 314 312 317 320 318 318 314 313 314 316 316 318 318 318 318 318 318 319 321 323 326 327 328 324 324 330 332 330 326 328 330 333 328 326
300 301 300 300 301 301 302 302 304 309 311 303 303 309 309 311 312 314 315 311 314 314 316 319 319 318 314 316 317 317 316 317 317 318 318 318 318 320 321 320 320 321 323 323 324 332 331 335 334 328 330 329 326 328
300 301 300 300 300 301 302 302 305 310 307 301 309 310 310 312 311 313 314 312 312 314 315 318 318 317 315 318 318 317 317 317 317 317 318 319 319 320 321 320 320 320 321 323 326 332 329 327 331 329 329 326 326 327
300 301 300 300 301 301 302 302 308 309 302 308 309 311 310 311 313 314 313 311 311 313 316 317 318 321 318 320 319 316 317 318 318 319 319 320 321 321 321 323 322 323 324 328 329 330 328 328 328 329 327 326 326 327
301 301 301 300 301 302 302 304 307 304 309 309 311 310 314 313 311 310 311 315 313 315 316 318 318 319 318 318 320 319 318 319 321 321 320 322 321 326 329 330 330 327 325 326 329 328 329 328 328 330 328 326 326 327
301 301 301 301 301 302 302 306 304 309 309 310 312 314 311 311 311 311 314 315 316 317 317 317 317 318 317 319 319 320 327 322 323 322 321 322 331 334 332 330 330 329 327 325 329 330 328 327 326 331 328 327 327 327
302 302 301 301 301 302 305 304 305 308 309 312 312 311 310 313 314 315 316 316 316 317 316 316 317 317 318 318 320 320 323 326 325 327 328 327 331 330 332 331 330 327 324 325 328 329 327 327 325 326 326 327 328 329
302 301 301 301 302 304 305 303 307 310 311 311 313 313 315 314 317 316 317 317 318 318 318 318 320 318 318 317 319 320 325 323 325 327 330 333 330 330 331 332 332 330 329 328 327 327 327 326 327 327 329 328 328 327
301 301 301 302 306 307 304 305 308 310 309 312 315 321 317 317 317 317 318 317 319 319 320 320 320 318 317 317 319 320 321 325 328 327 330 330 330 330 330 329 330 332 329 329 328 327 327 328 328 328 327 326 324 323
301 302 303 305 306 303 303 306 309 310 310 315 316 322 317 316 316 316 317 318 319 319 320 320 320 319 318 319 319 321 323 321 326 330 330 331 328 328 329 329 329 329 328 327 326 326 325 324 324 323 322 322 322 323
303 304 305 304 303 304 305 307 309 310 310 315 316 318 316 317 317 317 318 319 319 320 320 320 321 318 318 319 323 320 321 326 328 324 325 328 326 326 326 325 326 326 325 325 325 323 322 323 323 324 323 323 323 323
304 305 304 302 302 305 306 308 308 309 313 315 316 316 318 318 318 317 319 319 319 320 319 319 318 316 319 318 323 324 326 325 324 323 323 327 327 326 326 325 325 324 324 324 324 323 323 323 323 323 326 324 323 322
305 302 303 303 304 307 307 307 309 312 315 315 315 316 317 318 318 318 319 319 321 322 321 322 320 317 319 320 323 321 322 322 320 322 322 325 325 324 324 324 324 323 322 321 323 324 323 324 324 325 323 324 324 322
305 304 307 306 307 306 307 308 309 315 315 315 316 317 317 317 317 317 318 319 319 319 321 320 321 322 322 320 320 319 318 318 319 320 324 325 323 322 322 322 323 323 324 324 325 324 323 324 323 323 321 321 321 319
304 304 306 305 306 310 311 312 311 314 313 315 315 316 316 317 317 317 317 318 319 319 318 319 320 320 318 319 318 318 320 320 320 323 326 323 322 322 322 324 324 322 323 323 322 323 323 324 321 321 320 319 319 319
304 304 304 305 310 310 310 312 312 313 313 314 315 316 316 317 317 317 317 317 318 318 318 318 318 322 321 320 318 320 322 322 325 325 325 323 321 322 322 320 320 322 321 321 321 322 320 319 319 318 318 318 318 318
305 304 306 307 310 310 311 311 312 312 314 314 314 315 316 316 316 316 317 317 316 318 318 319 319 320 317 321 321 321 322 322 322 322 320 320 323 323 322 320 321 324 323 320 319 319 319 318 318 317 318 318 318 318
305 307 308 308 309 312 313 313 313 314 314 314 315 315 315 315 315 316 316 315 316 319 319 318 319 319 319 319 320 320 321 322 321 323 323 322 321 318 320 321 320 320 319 319 318 318 318 319 318 319 318 319 319 319
306 308 310 310 310 311 312 313 313 314 314 314 314 314 315 319 316 316 315 316 317 319 319 320 318 318 319 320 319 319 320 320 319 319 320 321 320 319 322 319 318 319 319 319 319 319 319 319 319 319 318 319 319 318
307 309 310 308 310 311 312 313 313 314 314 314 314 315 317 315 316 316 317 322 319 319 319 321 320 320 321 320 322 321 321 322 319 323 320 320 320 319 319 318 318 318 317 317 317 318 318 318 318 319 318 318 318 318
309 310 310 310 311 312 312 313 314 314 314 314 315 317 317 317 316 315 315 317 318 318 319 321 322 321 324 322 324 322 321 320 320 321 319 317 317 316 317 317 317 315 314 315 315 315 316 316 317 317 317 318 318 318
310 310 310 311 313 313 313 313 313 313 315 318 318 317 315 314 313 314 316 317 319 319 320 321 320 320 321 320 320 320 320 321 321 321 317 316 315 315 314 314 313 310 311 312 311 311 312 312 313 313 313 315 314 313
310 311 311 313 314 313 313 314 315 317 316 316 316 316 315 315 319 319 321 321 320 320 320 319 320 320 320 320 320 319 320 320 320 319 318 316 314 312 312 311 310 309 309 308 307 308 307 307 308 308 309 309 309 309
311 311 312 314 313 314 315 316 315 314 313 313 313 315 317 315 314 318 318 318 319 321 320 318 318 317 314 314 315 315 314 314 315 316 316 315 314 312 310 309 308 308 307 307 305 305 304 305 306 306 306 307 306 305
311 311 312 313 313 314 314 314 314 313 312 312 313 313 314 313 313 315 318 318 319 320 319 316 315 313 312 314 314 313 313 312 312 312 313 313 311 309 308 308 307 307 306 306 306 306 305 306 306 306 306 305 304 303
311 312 313 314 314 312 311 311 312 313 313 314 314 314 313 313 314 313 314 313 313 313 313 314 313 313 313 313 313 313 313 311 310 310 308 309 308 307 307 306 306 306 306 306 306 305 304 305 305 304 304 303 301 300
310 312 315 314 313 312 312 314 316 317 316 315 316 315 314 315 315 313 312 313 313 313 311 312 313 312 311 311 311 310 307 307 305 305 304 305 305 304 304 305 305 305 305 305 305 304 303 303 302 301 300 299 298 297
316 317 316 317 316 317 318 317 317 317 317 318 317 315 314 314 314 313 312 311 311 311 312 312 312 311 310 309 309 309 307 304 302 301 301 301 300 300 301 301 303 304 304 304 303 302 301 300 299 299 298 297 296 296

GFSWCAN_925_thetae_096.txt.gz
Theta_e
301 301 301 301 301 302 302 303 303 304 306 312 315 314 309 305 309 312 313 316 317 320 319 319 320 321 320 321 321 320 322 323 322 322 322 323 323 328 332 333 332 337 339 338 340 342 341 336 336 341 340 338 336 337
301 300 300 301 301 302 302 303 302 303 305 310 314 314 308 305 309 311 313 316 316 317 318 316 316 318 319 319 321 321 323 323 325 324 325 329 330 329 332 330 333 336 335 336 334 335 339 336 338 336 336 338 338 338
301 300 300 300 301 301 302 302 302 302 304 309 313 313 306 305 309 311 313 315 316 317 317 318 318 317 315 315 317 319 320 320 322 323 323 326 331 327 329 330 330 331 329 334 335 333 336 336 335 335 337 337 335 329
301 301 300 300 301 301 301 302 302 302 304 309 312 312 305 304 308 311 313 313 315 315 317 319 319 320 319 318 318 317 318 318 321 321 323 323 325 324 326 325 326 328 333 331 333 330 331 333 336 335 332 332 334 333
301 301 301 300 301 301 301 301 302 302 304 309 312 309 304 305 309 310 313 314 314 316 319 320 318 320 318 318 318 318 318 319 320 321 319 320 320 321 321 322 322 328 331 329 330 331 334 335 334 330 329 330 329 329
301 301 301 300 301 301 301 301 302 302 304 310 312 306 304 306 309 312 314 314 314 315 316 319 318 319 318 316 315 316 317 319 320 321 320 320 320 320 321 322 324 327 328 326 329 326 334 330 330 329 328 326 327 329
302 301 300 301 300 300 301 301 302 302 305 310 307 303 305 307 311 313 314 313 315 314 317 321 320 319 318 316 318 318 318 319 319 320 320 320 320 319 320 321 322 321 325 328 325 329 333 335 331 330 330 330 329 327
302 302 300 301 301 300 301 302 302 302 308 308 302 307 308 309 311 312 314 312 314 316 317 320 320 320 317 318 320 319 319 319 319 319 319 319 319 319 320 321 321 320 321 322 323 326 332 331 330 328 328 329 330 330
302 302 300 301 300 300 301 302 302 305 307 302 309 310 310 310 312 314 314 314 313 314 318 320 319 324 319 319 319 318 317 318 317 318 317 318 320 321 322 326 322 323 326 324 326 326 328 328 326 326 327 327 330 328
302 300 300 301 300 301 301 302 302 307 303 308 310 311 313 311 313 312 313 316 316 316 315 317 318 320 321 320 321 321 318 318 321 321 320 321 321 329 332 333 330 328 326 326 326 328 327 327 331 328 329 328 328 328
300 300 301 301 300 301 302 302 305 303 307 310 312 314 314 312 313 315 317 316 317 317 317 317 317 319 319 320 320 320 323 325 325 323 324 322 331 331 330 333 334 329 328 325 326 323 324 326 328 330 326 327 327 327
301 301 301 301 301 302 302 303 305 308 309 311 313 310 310 313 316 316 317 317 318 320 319 318 318 318 319 319 321 323 326 326 327 327 327 329 331 324 325 331 333 329 326 327 325 323 322 322 323 328 328 330 329 328
301 302 302 301 301 302 302 305 307 309 309 311 312 313 315 315 317 317 319 319 319 318 319 317 319 318 318 319 320 321 323 328 327 330 327 333 332 331 330 331 333 332 330 329 328 324 321 321 330 330 331 329 327 326
302 302 302 301 301 302 304 305 308 308 310 313 315 318 318 318 318 318 318 319 319 319 319 319 321 320 319 319 319 320 321 324 328 329 329 331 331 331 331 330 330 331 330 329 329 328 328 327 327 326 325 324 323 323
302 301 301 301 302 303 305 304 307 310 310 315 317 319 318 318 318 318 318 320 320 320 320 322 322 320 319 319 319 320 323 325 328 331 328 328 329 329 330 328 329 329 329 328 327 326 325 324 324 324 323 323 323 323
301 301 303 303 306 306 304 306 307 309 310 315 317 319 318 319 318 318 319 319 319 320 321 322 323 321 321 319 323 322 325 330 329 322 326 328 328 328 327 326 326 326 327 327 324 325 325 324 324 324 323 325 324 324
302 305 305 306 305 304 306 307 308 309 311 316 318 318 319 320 319 319 319 319 320 321 321 321 321 319 319 320 325 326 327 325 325 326 330 329 328 327 327 326 325 325 325 325 325 325 326 325 324 325 327 325 324 324
306 304 305 304 306 306 307 307 310 310 314 317 319 319 321 321 320 321 320 320 319 321 323 325 323 319 321 324 327 325 325 325 324 322 328 327 327 325 324 325 325 324 322 323 321 321 322 326 326 324 323 324 325 322
305 303 304 304 306 307 308 309 310 316 317 317 317 319 318 321 319 319 319 322 319 317 320 323 322 325 325 322 324 322 320 320 319 324 328 326 324 324 324 324 323 324 324 323 322 320 322 321 326 323 323 322 321 319
303 305 306 306 307 311 312 312 311 316 316 318 317 319 318 319 320 319 318 320 322 319 319 322 323 322 321 320 320 321 322 321 322 324 327 325 322 323 323 325 325 323 323 321 319 318 321 322 321 321 320 320 319 320
306 305 306 305 310 313 313 313 314 315 315 317 316 317 318 317 318 318 318 318 319 320 321 321 322 323 323 322 321 321 323 321 324 326 325 324 322 323 322 321 321 322 323 323 322 321 320 323 321 319 318 320 319 319
305 305 307 309 312 312 313 313 314 315 315 315 316 317 318 318 318 320 319 318 319 320 323 321 323 323 320 323 321 320 322 323 324 324 323 322 325 321 322 319 318 322 319 321 321 320 320 320 319 320 319 319 319 318
305 307 311 310 311 311 313 315 315 315 316 315 316 317 317 318 318 318 317 318 319 321 320 320 320 319 319 318 320 321 321 322 324 325 324 323 321 320 321 321 322 322 321 320 320 320 319 319 318 318 318 317 319 320
307 310 311 312 311 312 313 315 315 315 316 315 316 316 317 318 318 316 317 319 321 321 321 322 319 318 320 322 321 322 321 319 320 320 320 321 320 319 320 320 319 318 318 318 318 318 318 318 318 318 319 319 318 318
308 310 311 307 312 313 313 314 314 314 316 316 316 317 318 318 318 319 321 323 321 320 320 320 321 322 322 321 321 322 323 319 318 318 318 319 319 318 319 318 317 317 316 316 315 315 316 317 317 318 318 318 317 316
309 311 313 313 313 313 314 314 315 315 316 316 318 319 316 317 317 317 315 318 318 318 321 324 324 325 324 323 322 322 319 320 320 321 319 319 318 317 316 316 315 312 312 313 312 312 312 312 312 313 313 313 313 313
312 312 313 314 313 314 315 315 315 317 318 319 319 316 316 315 314 315 316 317 320 320 319 320 320 322 323 321 322 319 319 321 320 319 316 315 314 314 313 313 313 310 310 310 309 309 309 308 309 308 309 309 310 309
313 314 314 315 316 315 315 316 317 318 318 316 316 317 317 318 320 317 318 320 319 319 319 320 317 318 320 318 318 316 314 316 321 319 319 316 314 313 312 311 309 309 309 307 307 307 307 307 307 308 308 308 308 307
313 314 314 315 315 316 318 317 316 315 315 315 316 316 317 316 315 317 319 320 318 321 319 319 318 317 316 316 315 315 315 315 315 315 315 315 314 312 310 309 309 308 308 308 306 306 306 306 307 307 307 307 305 305
314 314 315 316 317 316 316 315 316 315 315 316 315 317 317 316 315 316 317 318 317 317 316 315 315 314 315 315 314 314 313 313 312 312 313 312 311 309 308 308 308 308 308 308 308 307 306 306 306 306 305 303 302 301
313 314 315 315 315 314 313 314 315 315 316 317 316 317 316 316 315 314 314 314 314 314 314 314 314 314 314 314 314 313 313 310 309 308 306 308 307 306 306 306 306 307 307 307 307 305 305 304 303 303 302 300 299 299
313 314 314 314 314 313 315 316 317 317 316 317 316 316 316 315 315 314 313 313 314 314 313 314 314 313 312 312 312 309 308 307 305 304 303 303 303 303 304 304 306 306 306 306 305 304 303 302 301 300 300 299 298 298
317 316 314 315 315 318 319 319 319 319 320 319 316 316 316 315 315 314 313 313 312 313 313 313 313 312 310 309 309 309 308 305 304 303 302 301 300 301 302 302 303 304 305 304 304 303 302 301 300 299 299 298 298 297

GFSWCAN_925_thetae_099.txt.gz
Theta_e
300 301 301 301 301 301 302 302 302 303 303 303 307 312 314 314 306 307 312 313 316 319 319 320 319 320 320 321 322 322 323 324 323 324 321 322 323 327 331 335 334 336 336 338 339 339 339 337 338 338 337 335 337 334
301 301 302 301 301 301 301 302 302 302 302 303 306 311 314 313 306 309 312 312 315 319 319 317 317 316 316 318 320 320 322 323 324 325 326 326 327 331 332 335 335 336 336 336 334 334 334 337 337 337 333 333 335 335
301 301 301 301 300 301 301 301 302 302 302 302 305 311 313 311 306 308 313 313 316 318 317 317 318 318 317 316 316 318 319 321 323 323 325 324 327 331 332 333 334 331 329 331 335 333 336 337 335 333 334 333 333 332
301 301 301 301 301 300 301 301 301 301 302 302 304 311 312 310 305 308 312 312 315 317 318 319 318 319 319 319 317 315 317 317 319 319 322 324 324 322 323 323 326 331 331 331 328 327 332 336 334 331 329 329 333 331
301 301 301 301 301 301 301 301 301 301 302 302 304 311 312 305 304 307 309 307 313 316 319 318 316 315 318 318 318 318 318 321 320 320 322 321 319 319 319 320 321 329 334 331 330 328 334 335 331 329 326 328 328 329
301 301 301 301 301 301 301 301 301 301 302 302 305 311 308 304 307 311 314 313 309 313 318 317 316 317 319 319 319 319 320 322 320 320 321 321 320 320 322 322 322 326 327 326 328 330 331 332 330 331 329 328 328 328
301 301 301 302 301 301 301 301 301 301 302 303 309 310 305 305 310 313 316 313 313 315 317 319 321 318 319 319 317 317 317 318 319 320 320 320 320 320 321 321 320 320 325 327 326 332 332 332 333 328 328 330 330 328
302 302 302 302 301 301 301 301 301 302 302 306 309 304 305 305 309 311 312 312 314 316 317 320 321 321 319 319 319 319 320 320 321 320 320 320 320 319 322 320 320 322 323 323 325 326 331 326 325 325 325 326 327 329
302 302 303 303 301 301 301 301 301 302 303 306 304 308 309 310 312 312 314 313 314 315 318 319 321 324 319 319 320 321 321 321 320 320 319 319 318 322 331 331 325 331 329 328 324 328 328 324 324 326 324 326 328 329
302 302 302 302 301 301 300 301 302 302 304 305 310 310 312 311 312 313 313 316 316 316 317 316 316 319 320 324 322 324 320 319 320 319 318 318 318 329 330 333 335 333 334 329 329 329 329 327 328 327 328 326 326 326
302 302 302 301 300 301 301 302 302 305 305 309 310 313 312 311 313 315 317 317 318 318 317 317 316 317 318 322 325 323 325 326 328 329 326 325 324 330 327 327 328 330 329 327 327 326 327 328 326 324 324 323 324 329
301 301 301 300 301 301 301 302 303 305 308 310 312 312 312 314 317 316 318 318 318 320 320 319 319 318 319 324 323 325 327 327 327 328 327 332 332 327 326 327 320 328 325 324 324 325 325 325 325 325 325 324 327 329
300 300 301 301 301 301 302 302 304 307 310 311 312 313 315 315 317 318 319 319 320 321 322 321 320 319 323 322 323 325 324 329 328 329 330 331 330 330 330 328 320 327 325 322 322 324 322 324 327 325 326 324 325 325
301 301 301 302 301 302 302 303 306 309 310 313 313 312 315 317 317 317 318 320 320 322 321 320 322 322 321 324 322 323 326 328 328 330 330 328 328 329 329 327 328 323 321 320 320 325 325 323 326 324 324 322 322 323
302 302 302 302 301 302 302 304 305 308 310 312 316 319 318 318 318 318 318 321 321 321 321 324 324 324 325 323 322 322 325 326 330 331 330 329 327 327 328 328 328 328 328 328 325 326 327 325 326 324 325 325 324 324
302 302 302 301 301 302 303 305 306 309 309 313 316 319 320 320 320 321 321 323 322 324 321 323 325 324 323 323 324 326 327 327 327 323 321 320 321 327 328 328 327 327 327 326 326 326 327 325 325 327 326 324 323 324
301 305 302 302 303 305 305 306 307 309 311 313 317 318 319 321 320 321 319 322 323 324 325 324 325 323 323 324 326 327 328 326 325 321 322 322 326 327 328 327 327 325 325 324 323 324 322 322 323 325 327 325 326 324
306 304 305 306 304 305 307 307 309 311 312 314 316 320 318 320 322 323 321 320 322 323 326 325 323 326 327 326 326 324 322 324 326 325 327 324 325 327 326 326 326 324 324 321 321 321 318 319 320 323 322 325 325 326
306 306 306 304 306 307 308 308 310 314 315 315 318 318 318 320 321 318 318 319 319 321 321 324 326 325 326 324 326 324 323 324 327 328 327 326 325 325 324 325 324 324 324 323 321 320 319 319 319 319 320 322 322 320
305 307 306 307 308 311 312 312 310 314 318 318 317 319 320 320 323 320 318 320 320 320 322 323 324 322 321 325 324 325 325 326 325 326 327 326 324 323 323 323 323 323 323 321 320 320 317 318 319 321 322 322 320 320
305 305 305 306 308 311 314 315 315 315 316 319 317 317 321 320 322 322 322 317 319 319 320 323 324 324 326 324 322 325 325 326 326 326 325 324 323 321 321 320 320 320 322 322 321 321 320 320 321 320 319 319 320 318
306 306 307 307 310 314 315 315 316 318 319 319 321 321 320 322 321 321 321 323 323 321 321 324 324 325 326 325 324 322 323 323 323 322 320 321 323 321 321 321 320 320 320 321 322 321 320 319 318 318 318 318 319 320
306 307 311 312 313 309 313 316 317 318 317 318 320 319 321 321 322 321 322 322 322 322 323 324 323 320 322 319 321 322 321 323 325 323 322 321 320 319 320 319 319 319 321 321 319 318 318 318 319 319 320 319 319 319
308 311 313 314 313 313 315 317 317 318 318 317 317 318 318 321 321 320 322 324 322 320 322 324 322 322 324 324 322 323 322 320 318 319 320 319 320 319 319 319 319 317 316 315 315 317 317 317 318 319 318 318 317 316
309 309 310 307 314 314 315 315 315 316 317 317 317 320 321 322 322 322 323 323 320 321 321 322 323 324 323 321 320 319 319 319 320 322 319 319 321 321 320 317 313 312 313 313 312 312 310 309 311 311 313 314 314 313
307 313 312 314 315 315 315 316 316 316 316 319 320 319 316 317 318 318 318 317 318 319 322 323 324 324 323 318 317 317 318 318 319 320 320 320 320 318 316 315 312 310 311 309 309 310 308 308 309 309 309 310 309 309
310 314 315 317 316 316 317 318 318 319 319 320 317 317 317 315 315 315 316 316 318 320 319 320 320 320 321 320 318 319 319 319 319 317 317 315 313 312 312 311 311 309 309 308 308 308 308 308 308 309 309 308 308 307
315 315 317 318 317 318 319 319 318 318 318 317 317 317 318 318 318 317 317 319 318 317 319 319 317 317 317 316 316 316 317 319 320 318 317 313 312 310 310 309 309 308 307 307 307 307 307 307 308 308 307 305 304 302
316 316 316 316 317 317 317 318 316 316 315 316 317 316 316 315 314 316 318 318 318 318 319 319 319 317 317 317 316 314 313 312 313 314 314 314 312 310 309 309 308 308 308 306 306 306 306 306 306 305 303 301 300 301
315 316 317 316 316 316 316 316 317 317 316 315 315 315 316 316 316 317 318 318 319 317 316 315 315 315 315 315 314 312 310 309 308 308 309 310 308 307 307 307 307 308 308 308 306 305 305 304 303 302 301 300 299 299
314 315 315 315 315 315 315 316 317 317 318 318 318 318 317 316 315 315 315 314 314 314 315 315 314 314 313 313 312 311 309 307 305 305 304 305 304 304 305 305 307 307 307 306 305 304 303 302 301 300 300 299 298 298
315 315 315 315 315 316 316 317 318 318 317 318 318 318 317 316 316 315 314 314 314 314 314 314 314 312 311 310 309 308 307 306 304 303 302 302 302 303 303 304 305 305 305 305 304 303 302 301 300 300 299 299 298 298
316 315 316 316 317 319 318 320 321 320 320 319 318 317 316 316 315 315 314 313 312 312 313 313 311 310 309 309 310 308 306 304 303 303 303 302 302 302 302 302 302 302 303 303 303 302 301 301 300 299 299 299 299 298

GFSWCAN_925_thetae_102.txt.gz
Theta_e
301 301 301 301 301 301 301 301 301 301 302 303 303 304 308 312 314 307 308 312 311 313 314 316 317 317 315 315 318 316 316 317 318 319 318 317 317 319 327 329 331 332 332 332 331 335 336 334 337 334 330 333 333 332
301 300 300 301 301 302 301 301 301 301 301 302 302 303 306 311 312 308 309 312 312 312 314 317 317 317 316 315 314 313 315 316 317 318 320 320 322 322 327 328 327 333 332 331 328 328 326 329 334 332 332 332 333 332
302 301 301 300 301 301 301 301 301 301 301 302 302 302 306 310 313 308 309 308 313 311 311 312 314 316 316 316 316 313 311 314 317 315 317 319 320 321 325 326 329 331 328 324 328 329 328 331 334 332 331 330 331 330
302 302 301 301 301 301 301 301 301 301 301 301 302 302 306 311 312 308 308 310 313 312 314 313 315 316 317 316 315 314 314 312 312 312 314 317 320 316 319 317 319 322 327 327 324 323 323 329 333 331 328 331 331 329
302 302 302 301 301 301 301 301 301 301 301 301 302 302 306 311 310 306 306 308 310 312 316 313 314 314 315 316 316 315 312 312 313 314 315 317 314 314 312 313 316 326 328 327 323 321 325 331 330 327 326 325 328 330
302 301 301 301 301 301 301 301 301 301 301 301 302 303 308 311 305 307 312 312 307 307 312 314 311 311 314 315 316 313 312 312 312 313 314 313 314 316 317 316 315 317 321 322 321 323 325 330 327 326 323 324 327 328
302 301 301 301 301 301 301 301 301 301 301 301 302 304 310 306 307 312 313 313 311 311 315 313 313 312 315 315 311 310 311 310 312 313 314 315 316 314 315 317 316 315 314 319 320 327 331 329 329 328 326 328 327 326
302 302 301 301 301 302 301 301 301 301 301 302 303 309 307 307 306 309 310 312 312 315 314 314 316 314 315 313 313 310 313 312 312 314 313 314 313 313 316 314 313 314 318 324 325 325 325 324 324 324 324 327 327 326
302 302 302 302 302 302 301 301 301 301 301 303 306 304 306 308 309 309 310 314 313 314 316 313 314 317 312 313 312 313 312 316 312 314 313 313 314 315 318 325 328 330 329 326 325 323 325 325 325 325 325 326 327 327
302 302 302 302 302 303 301 301 301 301 302 306 307 309 311 310 311 313 313 314 313 310 310 312 309 313 312 315 314 316 312 312 312 313 311 315 314 315 322 325 324 324 325 325 327 326 324 323 323 324 325 324 325 326
303 302 302 302 302 302 301 301 301 302 304 306 309 310 311 311 313 313 315 315 315 314 312 310 310 311 310 315 318 318 319 320 323 322 322 320 323 324 321 322 323 321 322 323 323 324 323 320 322 325 324 323 325 324
302 302 303 302 302 301 301 301 302 303 306 308 310 312 311 313 314 316 317 314 315 317 313 313 313 311 311 314 320 320 322 321 322 321 323 327 326 324 320 320 323 322 323 323 323 322 324 324 323 322 324 325 325 324
302 302 302 302 300 301 301 301 302 305 308 310 311 312 314 314 316 316 318 316 315 314 316 314 315 312 312 313 318 318 320 322 324 325 326 324 321 323 320 322 324 325 323 322 321 323 322 325 324 325 324 324 323 325
301 301 301 300 301 301 301 302 303 305 305 311 312 311 313 315 315 314 314 313 313 316 316 312 315 314 313 316 316 323 321 324 326 328 326 323 323 324 325 325 326 323 323 322 321 320 325 323 327 326 322 325 325 324
300 301 301 301 302 302 302 302 305 305 310 311 313 314 313 312 313 314 312 314 315 315 316 316 316 317 318 319 316 316 325 327 326 327 326 323 319 323 324 324 323 320 320 322 324 325 325 325 325 324 324 323 323 323
301 302 302 302 302 302 302 304 305 307 309 311 313 317 317 319 317 317 319 320 319 318 316 317 321 321 320 318 322 325 325 326 323 321 319 317 319 321 323 322 322 322 321 321 322 322 322 322 324 325 324 324 323 323
302 302 302 302 302 302 305 306 306 308 311 312 315 314 316 317 320 319 317 321 318 318 322 321 323 323 319 324 324 323 326 324 320 318 317 318 319 321 320 321 322 321 319 320 320 318 319 322 321 322 324 322 322 324
305 302 301 301 303 305 307 307 307 310 312 311 312 311 313 315 318 320 316 315 316 320 320 322 321 326 325 323 325 321 321 320 318 318 318 320 320 320 321 320 321 320 318 318 319 318 318 319 320 321 320 320 320 321
303 302 302 304 306 306 306 307 309 312 312 310 310 312 314 317 316 316 315 314 316 316 317 319 323 324 323 320 323 321 320 320 321 320 319 320 320 320 320 321 321 321 320 319 318 317 318 319 320 320 321 320 320 318
306 305 305 306 307 310 309 309 309 312 316 316 315 314 315 318 318 316 318 316 316 315 318 321 322 319 318 318 318 318 319 318 318 319 318 317 319 319 319 319 319 321 319 319 319 318 318 319 320 320 320 320 319 318
305 306 307 307 308 309 312 314 313 313 314 315 314 316 318 317 318 318 319 317 315 314 319 320 320 319 317 317 321 321 319 318 318 317 317 317 318 319 319 319 320 320 320 320 320 320 319 319 319 318 317 318 318 319
306 306 306 306 308 313 313 313 314 315 314 317 317 315 317 317 317 319 317 319 318 317 317 318 317 317 318 317 317 321 321 321 319 319 320 319 318 318 318 319 319 319 320 319 320 319 318 319 319 319 318 319 318 318
306 306 308 311 313 309 311 313 315 315 315 315 316 318 317 316 317 314 317 318 320 316 317 318 318 319 316 319 321 322 321 320 317 318 319 318 318 319 319 319 318 316 313 316 318 316 313 317 318 317 316 316 317 315
307 309 313 312 310 309 313 314 314 314 315 314 316 318 320 318 315 317 320 321 317 315 316 316 318 316 319 318 317 317 319 319 319 318 320 317 315 317 316 315 311 312 311 311 308 308 308 309 310 311 314 315 312 308
307 304 307 303 309 313 314 314 314 314 316 317 318 318 315 314 316 317 318 317 313 314 315 317 317 315 315 315 314 317 318 319 318 317 319 319 320 319 314 309 310 309 309 308 307 307 308 308 309 308 308 308 309 305
302 311 311 314 314 315 313 315 315 318 318 319 319 314 312 313 315 316 314 315 314 317 319 317 316 314 313 315 314 316 316 318 318 318 319 319 317 311 308 305 305 308 308 308 307 307 307 308 308 307 307 304 303 301
310 315 314 313 313 315 317 316 316 317 318 318 315 316 315 316 316 315 314 315 317 318 318 318 317 316 316 317 318 316 316 317 319 320 314 311 310 309 309 308 307 308 308 307 307 306 307 307 306 304 304 302 300 298
313 314 315 315 315 314 317 316 317 317 316 316 317 318 317 315 316 316 315 317 317 318 318 317 318 318 318 318 318 316 312 313 315 311 309 308 308 308 308 308 307 307 306 306 306 306 306 305 303 301 300 300 300 298
314 313 314 315 315 314 315 316 316 314 313 314 316 316 317 315 314 315 317 317 318 318 318 318 317 319 317 312 308 308 308 308 308 306 306 304 304 306 306 307 308 306 306 305 305 305 304 302 300 299 299 298 299 298
313 312 314 314 316 316 316 315 316 315 313 313 312 313 314 314 315 316 316 317 318 317 317 313 313 312 309 308 307 306 305 305 304 304 303 303 303 304 305 306 307 307 306 304 303 302 301 300 299 299 298 298 297 297
313 313 313 313 315 314 314 314 315 316 316 316 316 316 314 313 314 314 314 314 314 314 312 311 311 311 310 309 307 305 304 304 303 302 303 303 303 303 304 304 305 305 304 303 302 301 300 300 299 299 299 298 298 298
313 313 315 316 315 314 313 315 315 316 314 315 317 315 313 311 312 312 312 312 311 313 312 310 310 310 309 308 307 306 305 304 303 302 302 302 302 302 302 302 302 303 303 302 301 301 300 299 299 299 298 298 299 298
313 313 314 315 315 317 315 317 318 316 317 317 315 314 314 313 314 314 311 311 310 310 311 309 309 309 309 308 307 306 305 305 304 304 303 303 302 303 303 302 302 301 301 301 300 300 299 299 299 299 299 298 298 299

GFSWCAN_925_thetae_105.txt.gz
Theta_e
303 302 301 301 301 301 301 301 301 301 301 301 302 303 303 306 309 312 311 309 308 311 313 314 316 316 315 313 316 314 315 314 315 317 316 316 315 317 325 325 331 329 329 329 329 332 332 332 335 334 327 328 332 331
303 303 302 301 300 300 301 301 301 301 301 301 301 302 303 305 308 312 309 311 310 309 309 314 314 316 316 315 312 311 313 314 314 315 317 317 321 319 323 326 324 326 326 327 328 330 326 325 330 329 329 331 333 331
303 303 303 302 301 300 301 301 302 301 300 301 301 301 303 304 307 311 309 309 309 313 313 311 314 315 315 316 316 314 310 312 315 312 314 317 319 319 321 324 326 326 326 325 327 327 326 326 330 329 331 330 329 329
303 303 303 302 302 301 301 301 301 301 300 301 301 301 302 303 307 311 310 309 311 311 315 313 314 314 316 314 315 315 314 310 309 309 311 314 319 315 317 317 315 314 324 324 324 323 322 322 324 329 330 329 330 328
303 303 303 302 302 301 301 301 301 301 301 301 301 301 302 303 308 311 309 308 308 311 314 311 312 312 313 313 313 313 312 307 310 312 312 315 312 313 311 310 312 321 324 325 323 318 321 323 326 329 327 326 328 328
303 303 302 302 301 301 301 301 301 301 301 300 301 301 302 304 309 307 307 310 305 310 312 312 310 310 313 313 311 310 311 308 309 311 312 311 310 314 316 315 312 312 316 320 319 320 318 324 328 325 324 324 326 327
303 302 302 302 301 301 301 301 301 301 301 300 301 301 302 305 308 308 309 311 310 308 311 312 311 310 312 311 308 308 309 310 311 311 312 313 313 313 312 317 314 314 313 312 313 322 330 328 328 326 324 327 325 325
302 302 302 302 301 301 301 301 301 301 301 300 301 302 306 309 306 306 306 310 311 312 312 313 313 311 311 311 313 306 309 309 309 310 310 313 311 311 315 312 312 319 324 322 324 323 324 324 323 323 324 325 326 326
302 302 302 302 301 301 302 302 301 301 301 301 302 307 306 307 306 306 308 310 312 313 315 313 313 315 309 309 310 311 310 314 309 314 312 312 312 315 313 321 325 326 327 325 322 323 324 324 323 324 325 325 325 327
302 302 302 302 302 302 302 302 301 301 301 302 306 306 310 308 306 312 312 312 312 312 311 311 307 313 310 313 313 313 309 313 311 311 309 313 313 313 320 321 321 322 324 325 325 326 323 323 323 322 323 322 324 325
302 302 303 303 302 302 303 301 301 301 302 306 308 309 309 309 312 311 314 313 314 313 309 309 309 310 307 316 317 317 316 317 321 318 317 316 318 321 320 321 320 320 322 323 322 321 320 320 321 323 323 322 324 325
302 302 303 302 302 302 302 301 301 301 304 307 308 310 310 311 313 314 316 312 315 316 311 311 310 307 308 310 318 317 320 318 320 317 321 324 321 322 320 320 320 319 320 322 322 324 323 321 322 321 322 323 323 323
302 302 303 303 303 302 301 301 301 301 304 308 309 311 311 312 314 315 319 315 314 312 313 311 313 310 309 312 316 316 319 319 319 322 324 322 318 322 319 319 322 323 324 322 323 321 322 323 323 324 324 324 324 323
302 302 303 303 302 301 301 301 302 303 304 310 311 312 313 314 314 312 313 312 311 313 314 313 312 311 310 315 316 321 317 322 325 326 326 321 323 324 322 323 324 324 322 321 321 322 322 323 326 326 325 325 324 324
301 301 301 301 301 301 301 302 302 304 307 311 311 314 311 309 311 312 310 311 312 313 315 314 313 313 315 316 314 315 324 325 326 326 324 322 319 322 323 323 322 322 320 320 323 323 324 324 325 324 324 322 322 322
300 301 301 301 302 302 302 302 305 306 309 310 312 313 316 317 318 315 315 316 313 316 314 315 318 319 319 318 322 323 324 323 322 318 317 316 319 319 320 320 321 321 319 319 318 319 320 321 322 322 323 322 321 322
302 302 302 302 302 302 303 306 307 308 310 311 313 313 314 316 318 319 316 318 317 317 317 318 321 322 319 322 323 321 323 322 318 315 314 316 319 319 318 319 320 319 316 318 317 316 317 320 320 320 320 320 321 320
304 302 302 302 304 306 307 306 307 308 311 311 311 312 313 315 316 318 317 315 316 317 318 321 321 323 325 324 323 321 321 318 315 316 317 317 317 317 319 317 318 316 316 317 317 317 319 319 319 319 320 320 318 318
302 302 301 304 306 306 306 306 307 311 312 309 308 309 313 315 315 315 314 313 313 314 316 318 322 324 322 321 322 320 318 317 318 317 316 316 317 316 317 319 319 318 317 316 317 318 318 320 320 319 319 319 319 316
301 301 303 306 307 308 307 306 307 308 314 315 311 313 313 316 316 314 315 315 311 314 317 320 321 320 319 319 317 317 317 316 315 316 315 314 316 316 317 317 317 319 319 319 319 318 319 319 319 319 318 319 318 318
303 305 306 306 307 308 311 312 312 313 312 313 313 314 317 317 318 318 316 313 313 314 319 319 319 317 316 315 317 316 314 315 314 314 314 315 317 318 318 318 319 319 318 318 318 318 318 317 317 317 317 317 318 318
305 306 306 307 307 311 313 311 311 312 310 313 316 316 318 319 319 318 316 318 317 318 316 316 316 314 314 314 315 317 317 316 317 316 316 317 317 317 317 317 316 315 316 318 317 316 317 318 317 317 318 317 316 312
306 307 307 308 313 310 315 311 313 314 318 317 316 316 317 317 316 314 317 316 318 317 315 313 314 315 314 317 319 318 318 317 314 315 317 318 318 317 314 313 312 310 308 308 308 308 309 315 315 315 315 315 314 309
306 307 311 313 313 310 312 314 314 313 312 313 316 318 316 315 313 318 320 318 313 311 312 312 314 314 315 315 314 314 316 318 318 318 316 313 311 311 309 310 310 308 307 307 307 307 308 308 310 312 307 305 304 303
306 303 307 305 307 312 314 313 312 313 318 316 316 314 312 311 315 317 318 315 312 312 314 312 312 311 313 313 312 316 317 318 317 317 318 318 313 308 307 307 308 307 307 307 306 307 307 307 308 307 303 301 300 299
306 310 309 312 313 314 314 317 318 317 316 317 314 311 309 311 314 316 315 315 316 316 316 314 311 312 312 314 314 315 316 318 317 316 314 316 311 307 304 303 303 306 306 306 306 307 306 306 305 304 302 300 299 298
313 315 313 312 312 315 314 313 313 314 316 316 315 316 315 316 316 315 314 315 316 317 317 317 316 315 315 316 316 314 316 316 313 310 308 308 308 307 307 306 306 307 306 306 307 307 305 304 303 301 299 298 298 297
312 314 316 316 313 311 315 314 314 315 315 315 317 317 316 316 317 316 315 316 316 317 318 318 318 318 313 308 308 309 311 308 307 307 307 306 306 307 306 306 306 306 306 306 306 305 303 301 300 300 300 298 297 297
313 312 311 312 312 313 314 315 316 314 314 314 316 317 318 315 314 315 317 317 317 318 316 315 313 307 306 305 305 306 309 309 307 306 304 302 302 304 306 307 305 305 304 304 303 302 300 299 299 298 298 298 298 297
311 309 311 313 316 318 317 315 315 312 310 311 311 313 313 313 314 315 315 316 314 311 311 311 309 308 305 305 304 303 303 303 304 304 301 301 302 303 303 305 306 305 303 303 301 300 299 299 298 298 298 298 297 297
309 309 311 313 315 312 312 313 314 314 314 314 313 313 313 310 311 311 312 312 311 311 311 309 308 307 306 305 304 303 301 301 301 302 302 302 302 302 302 303 305 303 302 301 300 299 299 299 298 298 298 298 298 297
309 310 313 313 313 311 310 312 312 313 314 314 313 309 308 310 311 310 310 311 310 309 308 309 308 307 307 306 305 304 304 302 302 302 302 302 302 302 301 301 302 301 301 300 300 299 299 299 298 298 298 298 299 299
311 311 311 311 312 314 313 316 315 313 315 315 313 313 311 310 313 310 309 309 310 309 309 309 309 308 307 306 306 305 305 304 304 303 303 303 303 302 302 301 300 300 300 300 299 299 299 299 299 299 299 299 299 299

GFSWCAN_925_thetae_108.txt.gz
Theta_e
302 303 303 303 302 301 300 301 301 301 301 301 301 301 302 303 304 308 311 310 310 311 311 313 314 315 314 312 316 313 314 311 313 316 314 314 315 315 322 320 329 327 326 326 326 330 329 331 335 335 327 325 329 330
303 303 303 303 303 301 300 300 301 301 302 301 301 301 301 302 303 307 310 310 309 309 307 310 311 312 314 315 312 310 313 313 312 314 315 316 320 317 320 325 323 324 322 324 325 325 322 324 328 327 327 328 329 330
303 303 303 303 303 303 302 301 301 301 301 301 300 301 301 301 302 304 308 310 309 312 310 312 311 312 313 313 316 315 311 312 312 310 313 314 320 316 321 321 324 322 322 323 324 323 324 325 325 327 328 328 328 328
303 303 303 303 303 303 302 302 301 301 301 301 300 300 301 301 302 303 307 309 309 311 316 311 312 313 314 313 313 315 314 309 308 307 309 313 318 314 316 316 315 312 322 322 322 322 320 321 323 324 326 328 328 327
303 303 303 303 303 303 302 302 301 301 301 301 301 301 301 301 302 303 307 309 309 310 314 313 310 312 312 312 312 313 314 307 309 311 311 313 311 313 310 309 312 317 319 323 323 317 317 318 320 325 324 327 325 327
302 303 303 303 302 302 302 302 301 301 302 301 301 300 300 301 302 305 306 309 310 308 308 312 308 308 312 311 310 310 312 306 309 310 310 310 309 312 313 314 311 309 316 317 319 314 314 316 324 325 324 322 324 326
302 302 302 303 302 302 301 301 301 301 301 301 301 300 300 301 302 307 305 309 309 307 311 310 309 308 310 309 306 306 308 308 308 309 311 312 312 311 312 317 313 314 312 312 313 313 317 322 325 324 323 325 325 325
302 301 302 302 302 302 301 301 301 301 301 301 301 300 301 302 305 308 308 309 308 308 309 311 311 310 310 309 310 304 307 306 307 309 309 312 310 310 314 312 311 312 316 319 322 318 319 323 324 324 324 324 325 325
301 303 302 302 302 301 301 301 301 301 301 301 300 301 305 307 306 306 306 306 307 310 312 311 314 315 307 308 308 308 307 312 307 312 310 311 311 314 314 313 319 322 325 325 323 323 323 324 324 323 324 324 324 325
302 302 303 302 302 302 302 302 302 301 301 301 301 307 308 306 305 310 311 312 313 312 311 313 305 313 309 311 313 313 308 312 313 311 308 312 312 309 315 319 319 318 318 321 324 325 324 324 323 323 323 322 322 323
302 303 302 302 302 303 302 302 302 301 301 303 307 308 308 309 309 307 311 310 311 312 308 308 308 312 307 314 315 314 312 313 318 315 315 313 314 317 316 319 319 319 318 320 321 321 321 319 320 322 322 321 322 324
303 302 302 303 303 302 302 302 301 301 302 305 306 308 309 308 311 312 315 310 312 313 309 310 310 306 308 309 316 316 319 316 320 315 319 322 318 317 320 319 318 318 321 322 320 321 323 321 320 321 321 322 322 323
302 302 302 303 302 302 302 301 301 301 301 303 307 307 309 311 314 313 314 313 311 311 311 310 312 307 307 310 316 318 320 319 316 320 321 319 318 321 318 319 320 322 323 322 322 321 322 322 323 322 321 323 324 323
302 302 303 303 303 303 302 301 301 302 302 307 305 307 313 313 314 311 311 311 312 314 315 312 310 310 307 313 316 319 315 319 323 325 325 320 321 320 320 320 322 323 322 320 321 323 324 323 325 324 323 323 323 323
302 302 303 303 302 301 301 301 301 302 305 307 311 313 310 308 308 310 308 309 311 311 314 313 311 310 313 314 313 316 323 323 324 324 322 322 321 321 321 321 322 322 320 320 320 320 322 323 324 323 322 322 322 322
302 302 302 301 301 301 301 302 303 304 307 310 311 312 314 314 317 316 314 313 312 312 313 313 317 318 317 317 320 321 323 324 322 318 317 316 318 318 318 318 319 318 316 316 315 316 318 320 322 322 321 320 320 321
301 301 301 301 302 301 302 305 306 307 309 310 312 313 313 313 317 317 317 315 315 316 317 316 319 322 317 320 322 320 321 320 317 316 314 314 317 317 317 317 319 315 315 315 315 316 318 319 319 319 319 318 318 319
303 301 302 302 302 304 306 306 306 307 309 308 311 311 311 313 314 317 316 315 316 315 315 320 319 322 322 323 322 321 321 317 314 315 315 315 314 315 317 317 315 315 315 316 317 318 318 318 319 319 318 317 316 316
302 302 301 302 306 306 305 305 306 310 310 309 308 309 311 314 315 315 315 314 312 312 315 319 322 324 322 321 322 320 317 316 317 315 314 313 314 315 317 318 317 316 316 317 317 317 319 320 319 319 318 317 318 318
301 301 302 306 306 307 306 305 306 307 310 314 312 312 313 315 315 315 312 311 310 314 317 320 321 320 320 319 318 317 316 314 314 315 315 313 315 317 316 318 318 318 318 318 318 318 318 318 319 318 317 317 317 317
302 302 303 305 306 307 310 310 310 312 312 313 313 313 315 316 318 317 315 312 315 316 320 319 318 318 316 313 314 314 313 313 313 314 315 318 317 316 316 317 318 317 317 316 315 315 316 315 315 317 317 317 313 309
304 306 306 306 307 309 312 310 310 310 311 312 315 316 318 319 319 318 316 318 319 318 315 315 314 312 313 313 314 315 314 314 314 315 316 316 314 314 315 314 312 310 310 310 312 314 315 315 315 316 316 312 307 305
306 307 307 308 311 309 310 309 309 312 316 315 315 318 319 318 317 314 318 318 316 313 311 311 311 313 313 315 316 316 315 316 316 317 317 316 315 314 311 310 308 307 307 306 307 308 310 313 313 315 311 306 302 300
306 306 311 312 309 313 312 314 312 315 315 314 316 317 313 313 313 317 319 314 312 308 312 310 312 314 313 313 312 314 315 317 317 314 314 311 309 308 308 307 306 306 305 306 307 307 308 310 310 310 308 303 301 300
305 303 307 308 308 312 314 313 312 313 316 314 314 313 312 310 314 315 315 313 312 317 315 309 310 311 315 314 313 315 317 317 316 316 315 309 306 305 305 306 306 306 305 306 306 306 307 306 304 302 301 300 299 297
306 308 308 311 311 313 313 315 315 315 314 314 313 310 308 310 313 314 315 315 316 316 316 314 311 313 315 315 315 315 316 317 316 313 312 313 306 306 304 304 304 306 306 306 306 306 305 305 303 301 299 298 297 296
314 314 310 309 310 311 311 311 311 312 315 315 315 314 314 315 317 316 314 315 316 316 317 316 315 314 314 311 308 312 315 313 311 308 307 307 307 306 306 305 305 306 306 306 306 306 305 302 301 300 298 297 297 296
312 312 315 312 311 310 313 313 314 316 316 315 316 317 316 317 318 316 315 316 316 317 317 313 307 307 310 311 308 306 305 305 305 305 306 306 306 306 305 306 306 305 306 306 306 304 303 301 300 299 298 297 297 296
310 308 309 312 312 315 317 317 318 316 314 314 317 318 318 315 314 315 316 316 316 316 311 306 305 304 304 305 306 306 306 307 306 304 303 302 302 304 305 305 304 305 305 304 303 301 299 299 298 297 297 298 297 297
310 307 311 313 316 318 316 313 315 313 311 311 311 313 313 313 312 313 314 313 313 312 310 307 306 306 304 304 302 302 302 303 303 303 302 301 301 302 303 304 304 303 302 301 300 299 298 298 298 297 297 297 297 297
307 310 312 311 312 312 313 311 312 312 312 313 312 311 311 309 309 310 310 310 311 310 308 306 305 305 305 304 303 301 300 301 302 302 302 301 301 301 302 303 302 302 301 300 299 299 298 298 298 298 297 297 298 298
308 309 310 312 313 311 310 313 314 315 315 312 311 309 310 311 309 307 309 309 309 308 308 307 307 306 306 305 304 303 302 301 301 302 302 301 301 300 301 301 300 300 300 299 299 299 299 298 298 298 298 298 298 298
309 310 310 310 311 313 313 314 314 314 314 313 313 312 309 310 312 308 309 309 309 308 308 308 308 307 306 305 304 304 303 303 303 303 302 302 302 301 301 300 300 300 300 299 299 299 298 299 299 299 298 298 298 298

GFSWCAN_925_thetae_111.txt.gz
Theta_e
303 302 302 302 303 303 302 301 300 300 301 301 301 301 301 301 302 304 308 309 310 312 312 313 315 318 318 318 321 320 321 318 320 323 322 322 322 321 322 323 330 330 333 337 337 338 333 331 336 336 334 334 332 332
303 302 302 303 303 303 303 301 301 300 301 301 301 301 301 301 301 303 306 309 310 309 311 309 311 311 313 315 318 318 319 318 320 321 323 323 325 324 328 328 329 333 329 328 334 330 330 330 332 332 332 333 334 333
303 303 303 303 303 303 303 303 302 301 301 301 301 301 300 301 301 302 303 307 309 311 311 310 311 311 312 312 313 319 318 318 319 317 320 321 324 322 329 328 328 328 327 329 327 328 327 327 327 328 329 332 332 333
302 302 302 303 302 302 303 303 302 302 301 301 301 301 300 300 300 301 302 306 309 309 312 311 311 312 313 312 313 314 316 312 314 316 319 320 320 321 322 321 323 321 327 327 328 326 323 325 325 325 327 330 332 332
303 303 302 302 303 303 303 304 303 302 301 301 301 301 301 301 300 301 302 304 306 309 312 312 309 308 309 312 313 314 315 317 317 318 318 319 318 318 318 318 319 320 323 324 322 322 323 325 323 322 324 328 330 331
302 301 302 302 303 303 303 303 302 302 301 302 301 301 301 300 300 302 308 307 305 308 310 311 311 312 312 311 313 314 315 315 316 318 319 318 317 319 319 319 319 317 318 319 321 320 322 321 321 320 322 331 328 329
301 302 302 302 302 303 302 302 301 301 301 301 301 301 300 300 300 302 308 308 307 308 310 313 315 313 312 312 312 313 313 314 316 317 317 318 319 317 319 321 318 318 318 319 319 321 319 319 321 327 327 328 326 328
300 302 302 301 302 302 302 301 301 301 301 301 301 301 300 300 301 303 305 306 307 308 309 313 316 316 312 315 315 312 315 314 315 318 316 319 317 318 320 319 319 318 318 320 325 324 320 320 324 328 328 329 329 330
299 301 301 302 302 302 302 301 301 301 301 301 301 301 301 303 306 306 306 307 307 308 313 315 315 319 313 314 314 313 315 317 313 318 318 318 319 321 320 321 321 321 328 327 326 327 328 328 328 330 329 329 329 329
298 300 301 302 303 302 302 301 301 302 301 301 301 303 307 307 305 308 307 310 308 309 311 316 313 317 314 317 317 318 316 320 321 319 315 319 320 319 317 318 324 325 324 325 329 330 329 329 329 329 329 328 328 328
298 300 302 302 303 302 302 302 302 302 301 301 305 308 307 308 307 310 312 309 308 312 314 314 315 318 314 319 323 320 320 318 321 319 320 321 321 323 324 324 324 324 322 323 324 324 324 327 327 326 327 326 326 326
300 301 303 303 303 302 303 302 302 301 301 304 304 305 308 310 311 312 313 314 314 315 314 315 315 314 316 315 322 323 325 323 324 320 324 328 327 324 325 323 323 324 324 325 323 324 324 326 325 324 325 325 325 325
301 303 302 302 303 303 302 302 302 301 301 302 305 306 310 311 310 312 312 314 315 315 315 314 316 314 313 315 321 323 325 324 323 327 326 326 326 324 323 323 323 323 323 323 323 324 324 324 324 324 325 325 326 325
303 302 302 303 303 302 302 302 301 301 302 306 306 306 311 312 310 313 314 314 314 315 317 316 317 316 314 319 322 323 320 324 325 326 327 328 325 324 323 322 323 324 324 324 324 324 324 324 325 325 326 325 325 325
302 302 303 303 303 303 302 301 301 301 304 307 303 310 312 311 311 311 313 314 314 316 317 319 316 315 319 321 318 321 325 325 324 326 326 327 325 324 323 323 324 324 323 322 320 322 323 325 325 324 323 323 324 323
302 303 303 303 302 301 301 301 302 303 305 307 309 313 314 315 316 316 317 318 316 316 317 318 320 321 322 321 321 322 322 324 325 323 321 322 323 322 322 321 323 320 321 321 320 321 323 324 324 323 321 322 322 321
302 301 302 301 301 301 301 304 304 306 308 310 312 312 313 313 314 316 316 318 317 319 322 321 322 322 322 324 324 325 326 325 322 321 323 322 323 323 323 323 318 320 320 321 322 322 322 322 321 319 318 318 318 318
302 301 301 301 301 302 303 305 306 308 309 310 311 313 312 313 314 314 317 317 318 319 320 322 323 323 325 325 325 325 324 321 322 322 321 320 322 322 321 320 319 320 321 321 320 321 321 320 319 320 319 319 318 317
301 301 302 301 303 306 307 306 307 310 311 311 311 310 312 313 315 316 317 317 316 317 321 322 322 325 325 324 325 324 323 324 324 321 320 318 319 320 319 319 320 319 319 320 320 321 321 320 319 317 318 319 318 317
302 301 302 305 306 307 307 307 306 309 311 313 313 314 314 315 316 317 316 314 317 320 322 323 323 322 323 322 321 322 322 321 321 322 322 321 320 320 320 319 319 319 320 320 320 320 321 321 320 319 318 318 318 317
302 302 302 305 306 306 309 311 311 311 313 313 314 316 318 318 320 320 320 318 320 321 319 318 319 319 319 318 317 319 319 319 321 322 320 320 316 317 318 318 320 320 320 320 320 319 319 319 319 319 319 315 312 309
303 304 305 305 306 308 311 311 312 311 313 313 315 316 319 320 320 319 320 321 320 319 318 319 319 318 320 320 318 317 317 318 318 316 315 316 317 316 314 311 313 311 310 313 318 318 317 318 318 317 311 308 306 304
306 306 307 307 310 307 308 310 311 312 314 314 315 318 318 318 317 317 320 318 318 315 314 315 316 317 319 318 318 318 318 317 318 319 318 315 311 311 308 308 309 309 309 309 309 310 312 314 315 312 306 305 303 302
307 307 309 309 308 309 310 313 311 315 315 316 317 317 315 315 317 320 318 317 317 317 315 317 318 320 319 319 319 318 317 318 316 316 315 312 311 309 308 308 307 307 307 308 309 310 311 311 312 309 306 305 303 303
310 309 311 311 311 314 314 315 315 315 317 316 316 316 315 314 317 318 318 318 318 317 316 317 319 319 320 319 319 318 317 314 316 316 313 311 310 309 308 308 307 307 307 308 309 309 308 308 307 305 304 303 301 300
308 310 313 315 315 316 317 318 318 317 317 316 316 315 314 316 318 318 316 318 319 318 317 319 320 320 318 316 319 320 319 317 318 317 313 311 309 310 310 309 309 308 307 307 308 308 307 306 305 303 301 299 297 299
315 316 315 313 315 315 315 315 315 317 318 318 316 316 317 319 319 317 317 317 318 317 316 314 316 314 313 312 310 310 313 314 312 311 308 306 306 306 308 309 309 307 306 307 307 307 306 305 304 302 300 299 299 298
314 313 316 315 317 316 316 316 316 318 318 317 317 318 317 319 319 316 318 317 317 316 307 306 307 308 308 308 306 307 306 306 306 306 306 306 305 305 305 305 305 305 306 306 306 305 304 303 302 301 300 299 299 298
314 312 315 317 317 317 317 318 318 317 315 317 318 319 319 316 316 316 316 317 316 310 308 307 305 306 306 305 304 304 305 307 308 309 309 309 308 305 304 305 305 305 305 304 302 301 300 300 299 299 299 299 298 298
314 311 315 317 317 318 317 315 316 315 314 316 316 316 315 313 310 311 313 314 315 312 308 308 307 307 307 306 305 303 302 303 304 306 307 306 304 303 303 304 305 303 303 302 301 299 298 299 299 299 299 299 299 299
311 315 317 317 318 316 315 314 315 315 315 314 313 313 313 312 310 309 310 311 311 309 309 308 307 307 307 307 306 305 304 302 302 302 302 302 302 302 302 302 302 302 302 301 300 300 300 300 300 299 299 300 300 300
315 315 317 318 319 315 316 317 317 317 316 314 313 313 313 313 313 312 309 310 310 311 309 309 309 308 306 304 303 302 302 302 302 302 302 302 302 301 301 301 301 301 300 300 300 300 300 300 300 300 300 300 300 300
315 315 315 316 318 318 317 317 317 317 316 315 315 314 314 314 314 312 309 309 309 309 309 308 307 306 305 304 304 303 303 302 302 302 302 302 301 301 301 301 301 301 301 301 301 301 300 300 300 301 300 300 300 300

GFSWCAN_925_thetae_114.txt.gz
Theta_e
303 303 303 302 302 302 303 303 302 301 301 301 301 302 301 301 301 303 307 309 311 312 313 313 316 318 320 322 323 323 322 322 323 323 322 323 323 324 324 323 324 325 328 329 330 331 331 333 334 335 335 334 333 335
302 302 303 302 302 302 303 303 302 301 301 300 301 302 302 300 301 301 306 308 311 311 311 311 311 312 314 316 320 321 322 324 323 323 322 323 323 323 325 324 325 328 327 328 328 331 333 329 329 329 330 333 334 335
302 302 303 302 303 303 302 302 303 303 301 301 301 301 301 300 301 301 304 306 308 311 311 311 312 310 310 313 315 318 321 321 323 322 324 324 325 324 326 325 324 327 329 328 326 326 327 328 326 326 328 331 333 333
301 302 302 302 302 302 302 302 303 303 302 302 301 301 301 301 300 300 303 305 308 310 312 310 310 311 312 312 314 315 316 319 319 321 322 324 324 322 323 323 325 323 329 327 328 327 327 326 324 326 325 326 329 333
301 301 302 302 302 302 302 303 303 303 303 302 301 301 301 301 301 301 301 303 305 310 312 312 309 308 309 310 314 315 315 318 320 321 322 323 322 322 322 322 322 321 323 324 324 323 323 323 322 323 324 324 325 332
300 300 302 301 302 302 302 303 303 304 303 302 301 301 301 301 300 302 307 306 304 307 310 310 309 310 310 310 311 316 318 319 319 321 322 321 321 322 322 322 321 320 320 319 320 320 321 321 322 323 325 329 328 332
298 299 302 302 303 303 303 303 302 302 302 302 301 302 301 301 301 302 308 306 306 307 311 312 312 314 315 312 314 315 316 318 320 321 321 322 322 320 322 322 321 320 320 320 320 321 323 322 323 322 325 327 328 330
297 298 301 303 301 302 303 303 302 301 301 302 301 301 301 301 301 301 302 304 304 307 309 312 312 313 316 318 315 315 317 318 319 320 321 322 322 323 323 322 321 320 320 321 321 328 326 326 327 325 327 330 331 332
297 298 300 301 302 302 303 302 301 301 301 301 301 301 301 302 304 306 304 306 307 308 312 313 313 315 317 319 316 316 318 320 318 319 322 322 323 323 322 322 321 322 325 328 327 325 327 331 332 331 332 332 332 332
298 297 299 300 301 302 302 302 301 301 302 301 302 303 306 307 306 306 308 310 310 310 310 313 315 316 315 321 319 319 318 323 324 322 321 322 322 321 321 321 322 324 325 325 326 325 328 328 330 331 332 332 332 330
297 296 298 301 302 302 302 302 301 302 302 303 305 307 308 307 308 310 312 312 312 312 311 313 313 316 314 318 323 323 323 324 324 323 322 322 322 322 326 326 326 326 326 325 326 327 327 327 329 330 331 331 330 330
298 299 299 302 303 303 303 302 302 302 303 305 304 305 308 310 312 312 313 312 310 315 315 316 315 314 314 318 320 324 323 322 323 322 322 323 331 329 328 327 327 327 327 326 326 326 326 326 327 328 329 329 328 327
300 301 302 303 303 302 302 302 302 302 302 303 305 308 310 312 314 312 312 315 316 315 316 318 318 316 316 316 322 325 323 324 324 326 326 329 329 328 327 325 325 326 326 326 326 326 326 326 327 327 328 327 328 328
301 302 302 302 303 303 302 302 302 301 303 304 306 307 311 312 312 313 312 315 315 317 318 318 319 314 316 319 323 323 321 324 324 325 327 331 327 326 324 323 325 325 325 325 326 326 325 325 326 327 328 327 327 327
302 302 302 303 303 302 302 302 301 302 305 307 306 310 312 312 313 313 314 315 315 317 317 318 320 319 319 322 323 322 324 323 324 328 329 328 326 324 323 323 324 324 324 324 324 326 325 325 325 324 324 326 325 323
302 302 304 303 303 302 301 301 302 304 306 307 305 309 314 316 316 316 317 319 318 320 318 320 322 321 321 321 322 322 321 325 327 327 328 327 326 325 326 326 324 323 324 324 325 326 326 324 323 323 323 325 324 323
302 304 303 303 302 301 301 304 305 306 307 308 310 313 312 313 314 316 315 317 318 320 323 323 322 320 321 321 322 324 326 327 326 326 325 325 325 325 325 323 323 324 325 324 324 325 325 324 324 323 322 320 319 319
304 304 303 301 302 302 303 304 306 308 309 310 313 312 312 313 313 314 315 318 319 321 323 323 323 323 323 323 326 327 326 326 324 324 325 325 325 324 323 324 323 324 323 323 323 323 323 324 322 319 321 320 319 316
304 303 301 301 304 305 307 308 308 311 311 312 312 312 312 314 314 313 316 319 319 320 323 324 324 326 327 326 326 327 326 326 325 325 325 324 321 323 323 322 322 323 323 323 323 322 322 321 322 320 319 319 317 314
302 301 301 302 305 308 309 309 307 310 311 313 313 315 315 315 316 318 320 319 320 323 324 324 325 324 325 325 325 325 325 324 325 325 325 324 323 321 322 322 323 323 322 322 322 322 323 322 321 320 320 318 315 312
303 303 302 304 306 307 309 312 312 313 314 315 314 316 319 319 320 322 323 322 320 319 319 318 320 324 323 323 323 322 324 323 326 325 324 324 321 318 322 321 320 320 320 320 320 319 319 320 321 320 318 317 316 312
304 302 305 306 307 308 311 312 313 313 312 314 316 315 321 321 322 322 320 319 317 318 319 320 321 323 325 324 323 323 322 321 320 320 319 317 318 314 317 314 314 315 315 317 318 319 318 319 319 316 314 311 310 309
306 306 307 308 309 308 309 311 313 313 315 315 316 317 318 319 320 320 322 320 320 318 317 317 319 321 323 321 321 320 319 319 318 316 314 314 311 311 311 310 310 311 311 311 312 313 316 317 315 313 311 310 308 305
307 308 309 309 309 310 310 312 311 312 314 317 317 317 317 318 319 320 321 320 320 319 321 322 322 324 320 321 323 321 321 320 319 317 313 313 313 312 310 309 309 310 310 310 311 312 313 315 312 313 310 306 307 308
307 307 309 309 310 314 317 318 319 318 319 318 319 319 318 318 319 320 321 321 320 319 322 321 322 324 323 322 320 322 320 319 317 317 315 313 313 312 312 310 309 309 310 310 310 310 310 310 310 309 308 306 305 304
308 310 311 318 319 319 319 320 319 319 319 319 319 317 318 318 318 320 319 320 320 320 321 323 323 323 320 320 321 321 321 320 319 317 315 313 313 313 313 312 311 309 309 309 310 309 309 308 307 306 304 302 300 302
317 318 318 317 318 317 318 318 318 318 319 319 318 318 319 320 320 320 319 317 319 318 317 318 318 318 317 315 315 316 316 317 315 316 313 311 310 310 311 311 310 309 309 309 308 308 308 306 305 304 304 303 302 301
317 317 319 318 318 318 319 319 319 319 318 318 318 319 320 318 319 320 320 320 318 312 312 313 312 311 310 308 310 312 311 311 311 311 310 310 309 309 309 309 307 307 307 307 307 306 305 305 304 304 303 303 302 301
316 313 316 318 318 318 318 319 319 319 319 319 320 319 318 318 319 319 319 318 318 312 311 312 311 311 311 310 309 309 309 310 311 313 313 313 312 309 307 308 308 308 307 305 303 303 302 302 302 302 302 302 302 302
316 317 318 317 318 318 319 318 319 318 317 317 318 318 318 316 315 316 317 318 316 313 312 311 311 310 310 310 309 307 306 306 307 308 310 309 307 306 306 307 308 307 306 305 304 302 301 302 302 302 303 303 303 303
317 318 318 318 319 318 317 317 316 316 317 317 316 316 316 315 314 313 314 314 313 313 312 312 311 311 310 309 308 308 307 305 305 305 305 306 305 305 305 305 306 306 305 304 304 304 303 304 303 303 303 303 304 303
318 319 318 318 318 318 316 316 316 316 316 315 315 315 315 315 315 314 312 313 313 313 310 312 312 310 309 307 306 305 305 306 306 305 305 305 305 304 304 304 304 304 304 304 303 303 303 303 303 304 303 303 303 303
317 317 317 317 317 316 316 315 315 315 315 315 315 315 315 315 315 315 313 312 312 312 312 311 310 309 309 308 307 306 306 306 304 304 303 303 303 303 304 304 304 304 304 304 304 304 303 303 303 303 303 303 302 302

GFSWCAN_925_thetae_117.txt.gz
Theta_e
303 303 303 303 303 303 302 302 303 303 301 301 301 301 302 301 301 303 309 310 312 315 315 315 316 318 318 320 321 325 323 323 324 325 322 322 324 324 325 326 327 329 330 330 330 331 330 334 333 334 336 334 332 333
301 301 302 302 302 302 302 302 303 303 302 301 301 301 302 302 301 301 307 311 311 312 314 312 313 313 314 315 320 323 325 325 326 323 322 323 322 323 326 327 327 328 327 327 329 336 335 332 332 329 330 332 332 333
302 302 302 302 303 303 302 303 303 302 303 302 301 301 301 301 300 301 305 306 308 313 313 313 314 312 311 310 313 320 320 320 322 325 326 328 329 324 326 326 326 326 326 329 331 329 327 328 329 327 327 329 329 330
302 301 301 302 302 302 302 302 302 302 303 303 302 301 301 301 301 301 304 305 307 310 313 313 311 312 313 313 312 313 317 318 321 323 325 325 324 324 325 325 326 324 327 329 329 328 326 327 328 327 327 326 326 327
302 301 301 302 302 302 302 302 302 302 303 303 302 302 301 301 301 301 303 304 305 309 316 314 311 309 310 313 314 313 315 318 320 322 322 323 322 323 323 324 323 323 325 326 325 325 326 326 325 324 324 325 325 327
299 300 300 301 302 302 302 302 303 304 303 304 303 302 302 301 301 303 308 307 305 306 310 312 313 313 312 311 312 313 316 317 318 319 319 321 322 322 323 323 324 322 322 322 323 322 323 323 323 323 324 324 326 329
299 297 299 299 302 302 303 303 303 303 304 303 303 302 302 301 302 304 306 304 305 308 311 313 313 314 314 313 313 314 314 317 318 320 322 321 322 323 322 325 323 322 322 322 321 321 322 322 324 323 323 323 325 327
300 298 297 300 303 302 303 303 303 302 302 302 302 302 302 301 301 302 303 304 304 309 311 313 313 313 313 317 315 314 316 315 318 322 322 322 322 322 328 324 322 321 322 322 322 322 322 325 326 327 325 324 326 330
301 299 297 300 302 302 302 303 303 302 301 302 301 301 302 302 303 305 305 305 306 309 312 313 314 314 317 318 318 315 315 318 317 320 320 323 323 326 323 323 322 323 322 323 326 325 325 325 327 328 328 327 328 330
301 300 297 300 301 301 302 303 302 301 301 301 302 304 306 306 306 306 306 311 311 312 310 312 312 316 317 319 322 319 317 321 323 319 319 322 323 323 322 322 323 323 323 324 325 325 325 327 327 328 329 328 329 330
301 301 297 298 300 301 302 303 301 301 302 303 305 307 308 307 308 311 312 312 313 313 311 312 312 314 313 317 321 324 322 320 324 322 321 325 325 323 324 324 325 325 325 326 325 326 326 327 327 328 330 331 331 331
298 297 297 297 300 302 303 302 301 303 305 306 306 306 307 310 311 312 313 314 314 314 313 315 314 314 315 316 321 322 315 321 323 324 323 325 329 329 327 326 327 327 327 327 327 328 327 327 326 327 329 330 331 330
300 300 299 300 302 302 303 302 302 304 304 305 307 309 311 312 315 313 313 315 317 316 316 320 320 317 316 318 320 322 324 326 326 325 323 326 333 330 329 328 327 328 327 327 327 327 327 327 327 327 328 327 329 329
302 300 301 303 304 303 303 302 302 303 304 307 307 311 312 313 313 313 312 316 318 318 319 320 319 319 318 320 319 323 323 324 326 326 327 332 330 329 327 325 327 326 326 326 326 327 327 328 327 327 328 329 329 329
302 302 302 302 303 303 303 302 302 303 305 306 307 311 312 312 313 313 314 315 315 317 319 320 321 320 320 321 322 324 324 326 326 329 329 330 328 325 324 323 323 324 325 326 326 326 325 325 325 326 327 327 326 326
302 302 303 303 303 302 303 302 302 305 306 308 309 310 313 317 317 317 317 319 320 321 322 320 321 322 323 322 325 324 325 327 327 327 327 326 326 326 326 326 324 325 325 326 325 326 326 325 326 325 323 324 324 323
302 305 304 303 303 302 302 304 305 307 309 310 312 312 312 312 314 316 317 319 319 323 324 324 324 321 321 324 324 327 325 326 324 325 326 326 327 326 326 324 324 325 326 325 326 326 326 325 324 324 322 322 321 321
305 304 303 303 302 302 304 303 307 308 310 311 313 314 312 313 313 317 315 317 320 323 324 324 325 325 324 324 326 328 327 324 324 327 328 327 326 326 325 326 324 325 325 325 325 325 325 325 325 324 322 321 319 318
305 304 302 302 304 304 305 306 307 310 312 312 312 311 311 313 315 315 315 316 319 322 325 325 326 325 328 328 328 326 325 327 327 327 327 324 324 324 324 324 324 324 324 324 324 325 323 323 322 320 318 316 315 313
304 302 301 303 304 308 310 311 309 310 311 313 312 314 314 315 317 318 321 322 323 323 324 325 326 326 327 326 324 325 326 327 327 328 327 326 321 323 324 324 326 325 323 322 323 323 323 322 320 320 319 316 315 315
303 303 302 302 305 306 309 311 313 313 314 314 313 313 316 317 320 322 323 321 321 321 323 323 325 325 325 324 324 325 327 328 328 329 326 321 323 322 320 319 320 320 321 320 320 321 321 321 321 320 319 319 316 314
306 302 305 305 307 309 312 312 314 314 313 314 315 316 319 322 321 321 320 319 319 319 320 322 325 326 326 325 325 323 323 323 321 319 316 314 318 319 318 317 317 317 316 317 318 319 319 318 317 315 314 313 312 311
304 307 308 308 309 309 310 311 314 314 316 315 318 319 321 322 322 321 322 321 321 320 320 320 322 323 324 322 322 321 321 319 317 315 315 311 312 313 312 312 312 313 313 313 314 315 316 315 314 314 313 312 311 310
306 308 308 309 309 310 309 312 312 313 314 318 318 319 321 322 321 321 322 322 323 324 324 324 324 325 325 323 324 320 317 315 314 313 314 314 314 313 311 311 312 312 312 313 313 314 314 313 313 313 312 311 311 310
307 308 307 308 309 312 316 320 319 319 320 321 321 322 321 320 321 322 322 322 322 325 326 325 323 324 325 325 323 322 320 319 316 316 315 315 315 314 314 312 311 311 312 312 312 312 312 312 311 311 310 309 308 306
309 313 312 320 321 321 320 321 320 320 319 319 320 319 319 321 320 321 323 323 323 323 325 325 325 321 321 321 321 320 320 319 317 319 315 314 314 315 315 314 313 311 311 311 312 311 311 310 309 308 307 304 302 305
317 320 320 319 319 319 319 319 319 319 319 320 320 320 320 321 321 321 322 322 323 320 320 319 319 318 318 317 317 318 317 316 317 316 315 314 313 313 313 312 312 310 311 310 310 310 309 308 308 307 306 306 305 304
317 318 321 320 320 320 320 320 320 319 319 319 320 322 321 319 320 322 323 321 316 316 316 317 317 316 315 314 314 315 314 314 314 314 313 313 312 312 312 310 309 307 308 306 307 308 307 307 307 306 306 306 306 305
317 318 319 320 320 320 321 321 321 320 320 319 321 321 322 321 321 321 321 318 314 314 315 314 314 313 313 311 311 310 311 311 313 315 315 315 314 311 309 310 310 310 309 306 304 304 303 304 304 304 305 305 305 305
320 319 319 320 321 320 321 321 320 319 319 319 319 318 318 317 317 317 318 317 315 314 313 313 313 313 313 313 312 310 309 309 309 310 312 311 309 309 309 309 310 309 309 308 307 305 303 303 304 303 305 306 306 306
320 319 319 320 319 318 317 316 317 317 317 317 317 317 317 317 315 315 315 315 315 314 314 314 313 312 311 311 310 311 310 309 308 307 308 308 307 307 307 308 308 308 307 307 307 306 306 306 306 306 306 306 306 305
318 319 318 318 319 316 316 318 316 317 315 316 315 316 316 317 316 316 313 314 315 315 312 313 314 312 311 310 309 307 307 308 308 307 307 307 307 307 307 306 306 306 306 306 306 306 306 306 306 306 306 306 305 305
319 317 317 317 318 316 315 315 316 316 316 316 316 316 316 317 317 317 315 314 313 314 314 313 312 312 311 310 309 308 308 307 305 305 305 304 304 304 305 306 306 307 307 307 307 306 306 306 306 306 306 306 305 305

GFSWCAN_925_thetae_120.txt.gz
Theta_e
302 302 303 303 303 303 303 303 302 303 303 302 301 301 302 302 301 302 307 311 313 316 316 316 317 317 319 322 325 324 325 323 323 327 327 326 324 323 325 329 330 332 334 333 333 331 331 336 334 337 340 336 334 332
303 303 302 301 302 302 303 303 302 303 303 302 301 301 301 302 302 301 307 312 312 313 315 313 314 314 315 316 318 320 324 326 327 328 326 324 324 324 329 326 329 331 332 332 334 340 336 335 334 333 332 332 332 331
302 301 301 302 302 302 302 303 303 303 303 303 302 302 301 302 302 301 304 307 309 311 313 314 314 313 313 312 312 316 319 321 323 323 325 328 330 330 328 324 328 329 329 330 334 330 331 332 335 331 329 328 329 328
299 301 302 302 302 302 302 302 303 303 302 303 303 302 302 302 302 301 304 307 308 310 312 314 313 314 314 314 314 312 313 315 318 320 323 326 326 325 327 326 328 326 329 331 332 329 328 328 326 329 327 329 328 327
299 302 302 301 301 302 303 302 302 302 302 303 303 303 302 301 301 302 304 305 307 309 313 315 311 312 314 314 315 315 314 315 317 318 320 322 321 322 323 324 324 324 329 328 330 332 332 334 328 326 326 326 326 326
300 299 301 300 300 302 302 302 302 302 302 303 303 303 302 301 301 303 308 308 307 307 310 312 313 313 313 313 312 313 315 317 316 318 319 319 320 320 322 326 325 323 324 324 327 324 324 325 325 324 324 324 325 325
300 300 298 298 299 301 302 302 302 303 304 304 304 303 302 301 302 304 306 304 305 307 309 313 315 315 312 313 314 314 314 314 316 317 319 318 319 319 320 325 325 324 324 325 324 324 324 323 323 323 323 324 323 323
299 300 299 298 299 302 302 303 303 303 303 303 303 302 302 302 302 302 304 304 304 308 310 314 314 314 315 317 317 316 315 315 316 317 318 318 319 322 323 322 321 323 326 325 324 324 323 323 323 324 326 326 324 326
299 300 300 297 299 303 302 303 303 303 302 302 302 302 303 303 304 306 305 305 307 309 314 312 313 313 317 318 317 317 317 316 316 318 318 320 321 323 321 323 324 324 326 325 322 322 322 322 323 327 326 328 328 327
299 300 301 297 299 302 302 303 303 302 301 302 303 304 306 306 306 305 306 310 311 312 312 313 312 313 314 315 318 322 320 320 320 318 318 320 321 321 319 323 325 324 325 324 325 327 327 324 326 327 327 326 329 328
300 301 301 298 299 300 302 303 303 302 302 303 305 306 308 307 307 310 311 310 312 313 313 312 313 313 311 313 318 321 320 322 322 320 318 319 321 322 322 321 321 321 321 325 324 324 324 325 327 326 326 327 329 323
300 301 301 298 298 300 302 303 302 303 305 305 306 307 308 311 312 313 314 313 313 314 314 315 314 314 313 314 320 322 321 321 324 321 324 324 323 324 320 323 324 322 322 325 324 325 328 328 327 328 327 327 327 323
299 298 298 298 297 300 302 303 302 303 304 306 307 309 310 312 315 313 314 315 314 314 317 320 321 318 317 318 320 321 322 319 318 322 322 326 327 322 319 317 328 328 328 327 329 328 327 330 329 329 330 329 331 328
300 301 301 300 300 301 302 303 302 303 304 308 309 313 311 313 313 313 313 316 316 320 319 319 322 321 318 321 320 320 320 325 326 328 330 331 329 328 326 328 328 328 327 328 327 327 328 328 328 328 329 329 329 329
302 301 301 302 304 303 303 303 302 303 305 308 308 311 311 312 315 316 316 317 316 320 319 322 323 322 323 322 322 319 325 326 328 325 328 328 328 327 327 326 325 326 326 328 327 325 326 326 327 328 326 322 321 327
302 303 304 303 303 303 303 302 303 305 306 308 309 311 312 314 316 317 317 318 319 321 322 322 322 322 322 323 323 324 327 323 325 327 328 328 326 324 325 323 323 327 327 327 326 327 325 326 325 324 324 324 324 324
303 305 303 303 303 302 303 305 305 306 309 310 312 312 312 313 315 315 317 319 319 322 322 322 323 323 320 322 325 321 326 326 328 328 328 329 328 327 325 323 323 327 328 328 328 327 326 325 325 324 325 323 322 321
304 305 303 303 303 303 304 303 307 309 309 311 311 314 315 313 314 314 315 318 320 321 323 323 325 323 326 327 327 328 327 327 329 329 329 328 327 326 325 327 324 324 325 326 326 326 326 325 326 325 323 322 321 319
306 304 303 303 304 305 305 306 307 310 312 314 313 312 311 312 313 315 316 315 317 320 322 326 326 327 328 326 327 328 329 328 328 328 326 326 326 326 326 325 325 326 325 325 326 326 325 323 321 320 319 316 315 314
304 303 302 303 304 305 308 309 307 311 312 313 312 312 313 314 315 318 320 322 323 323 324 326 326 327 327 329 329 328 327 329 329 329 325 327 325 326 325 324 326 325 325 325 324 323 323 321 320 319 318 318 318 316
303 303 302 304 305 306 308 310 312 312 312 313 313 313 315 319 320 320 321 321 322 322 324 325 325 326 327 327 326 326 328 327 328 326 326 324 325 323 322 320 320 319 320 322 322 322 322 322 321 319 319 318 317 314
306 302 305 304 305 308 311 311 313 314 313 314 314 316 318 321 321 320 321 321 320 322 323 324 324 327 328 327 327 324 323 321 319 318 317 317 319 318 317 318 318 319 319 319 320 320 318 318 319 319 315 313 313 312
304 306 307 308 309 310 312 311 314 315 315 316 318 320 321 322 322 323 324 322 321 323 323 324 325 324 325 323 323 323 321 319 318 316 313 314 314 313 313 313 314 314 315 315 318 317 315 316 314 314 313 312 312 311
306 307 309 309 309 309 309 312 313 314 318 321 322 322 323 324 323 323 323 325 324 326 326 326 325 327 326 323 322 319 316 316 316 317 317 315 315 313 313 313 314 314 314 314 316 315 314 314 314 314 313 312 312 311
308 310 308 314 308 310 314 319 321 321 321 322 323 323 323 321 321 322 323 324 324 324 326 326 326 328 326 326 319 320 322 320 319 317 317 317 316 315 314 313 313 313 314 313 313 313 313 313 312 311 310 309 309 308
308 311 315 314 318 319 322 323 322 321 321 320 320 321 321 320 321 323 324 324 326 326 326 325 323 324 323 320 318 318 318 317 317 317 315 315 315 315 316 315 314 313 312 313 313 312 312 311 310 309 308 305 304 306
314 321 322 320 322 322 321 320 319 320 321 321 321 321 321 322 323 323 324 324 324 322 321 318 320 319 320 319 318 317 318 317 317 316 315 314 314 314 313 313 312 311 312 311 311 311 310 310 309 309 308 308 307 307
319 319 322 320 321 320 321 320 320 321 321 320 321 322 322 321 323 323 322 320 318 318 318 319 318 317 317 316 315 314 315 315 316 315 315 314 314 312 312 311 309 307 308 307 308 309 308 308 308 308 308 308 308 307
321 320 321 321 320 321 320 322 322 321 320 320 323 323 323 322 321 321 320 316 316 316 316 315 315 314 313 313 312 312 312 312 314 316 316 316 314 312 311 311 311 311 310 307 305 305 305 306 305 306 307 307 307 307
321 320 321 321 322 321 322 320 321 321 320 320 320 319 319 319 320 318 318 317 315 314 314 315 315 314 314 314 313 311 310 310 311 311 313 313 311 310 310 310 311 310 310 309 308 306 305 305 305 305 306 307 308 307
321 319 320 319 318 318 319 318 317 318 318 318 318 318 318 318 316 316 315 316 316 316 316 316 315 313 312 311 312 313 312 310 309 309 308 309 309 309 309 309 309 309 308 308 308 308 308 307 308 308 308 308 308 307
318 318 319 319 318 317 317 318 317 317 317 318 318 318 318 318 317 316 314 315 316 316 314 315 315 313 312 311 310 309 309 308 307 307 307 308 308 308 308 308 308 308 308 308 308 308 308 308 308 308 308 308 308 307
318 318 318 318 318 317 317 317 317 317 317 317 317 317 317 318 318 318 316 315 314 315 315 314 314 313 312 312 310 309 309 308 307 307 307 304 303 304 305 307 307 308 309 309 309 308 308 308 308 308 308 308 308 307

GFSWCAN_925_thetae_126.txt.gz
Theta_e
302 302 303 303 302 302 303 303 303 303 303 302 303 303 302 301 302 302 302 305 306 307 309 311 312 312 312 312 314 313 317 316 321 321 320 321 322 322 322 320 323 323 323 325 324 328 329 331 334 333 327 332 330 328
303 303 303 303 303 303 301 301 302 302 303 302 302 303 302 302 301 302 302 303 305 306 308 311 309 309 310 311 311 311 315 315 319 318 319 321 325 324 323 326 320 323 320 323 325 325 321 327 326 330 330 330 328 327
300 300 302 303 302 302 302 303 302 302 303 303 303 303 303 302 302 302 301 302 305 303 305 306 307 311 311 311 312 310 309 311 309 311 314 318 324 322 325 325 321 318 318 321 321 322 324 328 328 329 328 327 327 325
299 299 300 300 301 302 302 301 302 302 303 303 303 303 303 303 302 302 302 302 304 304 306 306 309 308 311 312 311 312 310 308 307 307 310 315 320 318 321 320 318 317 317 318 321 321 322 324 326 325 325 327 326 323
299 299 300 300 300 302 301 301 302 303 302 302 302 302 303 303 302 301 301 302 303 304 305 305 306 308 310 311 312 312 310 306 306 307 310 314 312 314 313 313 316 314 316 318 319 319 322 322 322 324 324 323 324 325
299 299 299 300 299 302 300 299 302 302 302 302 302 302 303 303 302 302 301 305 304 303 305 306 305 305 309 310 312 311 309 309 309 308 308 309 310 312 313 314 312 313 313 313 315 317 319 320 322 323 322 323 323 323
299 299 299 300 300 299 299 299 302 302 302 302 302 303 303 303 302 302 302 305 305 303 305 307 307 307 310 308 307 308 309 306 306 307 310 310 311 311 310 314 312 311 312 314 315 319 318 319 320 320 320 322 322 323
300 300 299 299 301 298 298 300 303 303 302 303 304 304 303 302 302 301 302 303 302 303 305 308 309 307 309 308 309 306 308 306 307 308 308 309 309 311 314 313 313 312 313 314 314 315 317 318 318 321 320 320 322 323
301 300 299 300 300 298 300 303 303 303 303 303 303 302 302 302 302 304 306 305 305 307 309 308 308 309 306 307 308 310 308 310 308 310 309 309 310 312 312 311 312 313 313 313 313 319 321 321 320 321 323 322 325 325
301 300 299 300 300 297 302 302 303 303 302 302 302 303 302 305 306 305 307 304 304 305 304 306 304 307 306 306 308 313 312 314 317 314 311 311 314 313 312 312 312 312 313 318 318 322 322 321 321 321 321 323 325 324
300 300 299 300 300 298 302 302 303 303 301 303 304 305 307 307 305 306 306 308 306 309 306 306 305 306 305 308 308 313 314 314 317 315 318 315 313 313 316 315 316 313 312 315 316 318 321 321 321 321 323 324 326 324
300 300 300 302 300 299 301 303 303 302 304 304 305 305 307 305 309 310 311 308 311 311 308 309 309 306 307 306 312 313 316 316 318 314 319 322 315 319 316 316 318 318 319 318 318 320 319 320 318 324 323 326 325 324
301 301 301 302 300 298 300 303 303 303 303 304 306 307 308 308 310 312 313 312 311 311 316 313 315 312 312 313 314 314 318 317 314 317 321 319 316 322 317 316 316 319 321 320 320 320 322 319 319 326 326 325 326 326
299 299 298 298 298 297 300 303 303 302 302 305 308 307 307 311 310 309 312 312 312 312 313 313 313 312 313 315 314 318 317 318 322 321 323 318 321 320 322 322 321 323 318 319 320 322 325 319 323 322 325 324 322 325
299 299 300 300 298 297 300 303 302 302 304 306 307 306 307 307 310 311 312 313 314 313 312 314 316 317 318 319 318 318 319 322 322 326 321 321 321 323 320 321 321 322 317 317 321 325 323 322 321 322 322 324 324 324
301 301 301 300 299 298 301 302 302 303 305 306 307 306 305 307 310 313 314 315 315 315 315 316 318 320 319 320 321 321 323 325 321 322 323 321 321 319 317 319 319 321 321 322 323 322 322 321 321 319 319 320 322 322
302 303 303 303 302 301 302 303 303 303 304 306 306 304 306 306 308 311 311 312 314 316 318 319 321 320 322 322 323 321 324 322 320 323 322 321 321 321 319 320 320 320 322 323 321 322 322 321 318 316 315 318 319 320
304 304 303 303 303 303 304 304 305 306 306 305 307 307 311 310 311 310 310 312 315 317 318 320 320 323 317 320 322 317 314 318 322 322 322 322 322 322 322 322 322 323 324 323 322 323 322 320 317 316 316 314 313 315
303 303 303 303 304 304 304 304 304 308 307 307 307 308 309 309 309 309 311 311 313 314 317 315 317 318 321 318 323 322 321 322 322 321 321 320 321 322 322 323 323 322 322 322 321 320 319 320 318 317 315 314 313 313
303 303 304 304 304 305 305 305 305 306 308 310 309 310 311 309 309 311 312 314 317 319 320 320 323 322 322 321 321 321 319 320 321 320 318 317 319 320 321 321 321 322 321 320 319 318 317 316 317 316 315 315 314 313
303 303 303 304 303 303 304 306 307 306 309 310 311 312 312 313 315 315 318 317 320 320 321 320 320 320 320 320 321 321 321 319 319 317 317 318 318 319 320 322 322 322 321 321 319 318 317 316 317 316 314 314 312 311
305 303 302 302 302 304 305 306 308 310 311 312 312 313 316 318 317 318 317 320 320 319 318 318 319 320 320 320 320 320 320 319 318 313 315 318 318 316 316 318 318 319 319 319 320 319 319 319 318 318 316 312 310 310
303 302 305 304 305 307 308 309 311 312 313 314 315 318 319 319 318 318 318 319 320 319 319 319 318 320 318 320 320 320 320 319 315 312 312 311 314 312 313 315 317 317 318 318 319 319 318 319 317 316 311 310 309 307
305 307 308 308 308 309 308 310 311 313 314 317 320 320 319 318 319 321 322 321 320 319 319 319 318 316 316 317 317 317 319 318 318 318 317 311 309 311 313 313 314 316 316 315 314 315 316 313 311 310 309 311 310 307
305 305 305 305 306 309 312 315 316 317 321 321 323 321 320 320 322 323 323 320 320 320 320 319 318 316 316 315 316 316 316 316 313 312 315 313 313 312 311 311 312 313 313 313 312 311 309 309 308 307 307 307 307 307
304 306 309 310 314 314 320 323 322 321 320 321 321 318 318 319 322 322 321 319 319 319 319 318 315 315 316 318 316 315 318 317 314 313 313 313 314 313 310 308 306 309 311 312 311 310 309 309 307 307 306 305 307 307
311 313 311 309 313 319 321 321 320 319 320 321 320 320 318 321 322 321 318 317 315 318 320 319 318 318 316 317 319 318 318 317 317 315 313 313 312 311 310 309 309 309 309 309 309 309 308 308 308 307 306 306 306 306
314 317 320 318 316 317 320 319 321 320 320 319 318 321 323 322 318 315 316 320 320 319 319 318 318 318 319 314 311 312 311 314 315 314 312 312 312 312 311 310 309 309 309 308 307 307 306 307 307 307 308 307 307 307
319 319 318 319 319 319 319 321 320 318 317 316 318 319 319 317 316 318 320 320 319 319 320 318 315 318 312 311 310 310 310 310 309 309 312 310 308 311 310 309 308 307 307 307 306 306 306 306 306 306 307 307 308 307
318 318 317 317 318 318 317 318 317 316 314 316 316 315 314 314 319 319 319 318 316 315 314 313 312 311 311 310 309 310 309 309 308 308 306 306 307 309 308 309 310 309 308 307 306 306 306 306 306 306 306 306 307 307
316 317 317 317 317 316 316 316 317 316 315 316 314 314 315 315 317 316 315 315 315 315 313 312 312 311 310 310 309 307 306 306 306 307 308 309 309 308 308 308 308 308 308 308 307 307 307 307 307 308 308 308 307 307
317 318 317 317 316 316 317 317 316 316 316 316 315 315 314 314 316 313 315 315 315 314 314 313 313 312 310 309 309 308 308 308 309 308 304 303 304 307 307 308 308 309 309 309 309 309 308 308 308 308 308 308 308 308
319 318 318 318 317 317 315 316 317 319 317 317 316 316 316 317 318 316 315 314 314 314 313 313 313 312 311 310 310 310 310 309 309 309 308 308 308 307 306 305 306 309 309 309 309 308 308 308 308 309 309 308 308 307

GFSWCAN_925_thetae_129.txt.gz
Theta_e
302 302 302 303 303 303 303 303 302 302 303 303 302 302 303 302 302 302 302 303 304 305 306 309 311 311 310 311 313 312 315 314 318 320 318 318 320 319 319 319 320 319 319 320 321 325 327 323 330 328 322 326 329 328
303 302 302 303 303 303 303 302 301 302 302 302 303 302 303 303 302 302 301 301 303 302 306 309 309 309 310 310 310 308 313 312 315 317 316 319 324 321 319 323 320 321 318 320 322 323 320 320 326 325 326 327 328 327
300 300 300 300 301 302 302 302 303 302 302 302 303 303 303 303 303 302 302 302 303 302 304 303 306 309 309 308 309 310 307 309 307 308 312 315 322 319 324 323 322 318 316 318 320 320 322 323 322 321 322 326 326 326
299 299 299 299 300 300 302 302 301 302 302 303 303 303 303 303 303 302 302 301 302 301 305 305 307 307 308 307 309 311 308 306 304 303 307 313 318 316 320 319 318 318 317 317 318 318 318 320 320 320 322 322 326 325
299 299 299 299 300 300 301 302 301 302 303 302 302 302 302 303 303 302 301 302 302 303 305 304 304 306 308 308 308 309 307 304 304 306 308 311 310 313 310 311 313 314 315 315 317 315 317 317 317 320 323 321 321 324
298 298 299 299 300 300 301 301 299 301 302 302 302 302 302 303 303 301 301 303 303 303 303 306 304 304 307 308 309 307 305 305 304 305 306 306 306 309 310 311 309 310 310 311 313 314 315 315 317 319 321 320 321 320
298 299 300 299 300 301 299 300 299 301 302 302 302 302 303 303 303 301 302 305 304 302 304 307 306 304 308 306 305 305 305 304 305 306 308 308 309 309 308 311 310 309 309 309 310 312 314 314 314 314 318 320 320 321
299 300 301 299 299 301 298 298 301 303 302 302 303 303 304 303 302 301 303 302 301 302 302 306 307 305 306 305 307 303 305 304 305 305 305 308 307 308 311 309 310 310 310 309 310 311 312 311 314 316 318 319 319 320
299 301 301 299 300 300 298 302 303 303 303 303 303 303 302 302 301 303 305 304 303 306 307 306 308 309 304 304 305 308 304 308 305 308 306 307 307 310 310 308 308 309 310 311 311 310 310 316 318 319 320 320 320 320
300 301 300 299 301 297 300 302 302 303 302 302 302 302 303 304 307 305 306 302 303 302 302 305 302 306 304 304 306 310 309 312 315 312 309 308 309 310 310 309 311 312 310 309 311 314 319 320 319 319 319 319 319 323
301 300 300 300 300 297 302 302 303 302 301 302 303 305 306 307 305 304 305 305 303 307 303 304 303 304 301 305 304 309 312 311 313 311 317 314 312 309 314 315 314 313 316 315 310 312 315 317 318 320 321 320 321 323
300 300 299 300 300 298 301 303 303 302 303 304 304 304 306 306 308 310 308 307 308 309 307 309 307 303 305 303 309 310 312 313 315 311 317 319 314 314 317 318 315 313 317 318 315 316 318 319 318 320 321 321 323 323
301 300 301 302 299 299 301 303 302 303 303 304 304 306 308 306 310 310 313 311 310 311 315 313 315 311 309 308 311 312 315 314 312 315 317 315 313 315 317 318 320 318 319 319 320 319 320 321 320 319 321 323 324 323
299 299 299 300 299 298 301 303 302 302 302 305 307 306 307 308 308 308 308 311 309 311 313 310 312 310 310 313 312 315 314 315 319 320 318 319 316 321 320 320 320 320 319 320 319 320 323 320 321 322 323 323 323 324
299 299 299 299 298 298 302 303 302 302 304 306 307 306 305 304 307 310 308 310 311 310 309 309 311 312 313 316 314 315 318 319 320 322 321 321 321 320 321 317 317 319 316 316 321 321 320 320 319 320 321 323 323 321
300 301 301 301 298 298 302 302 302 303 304 305 306 305 303 304 309 312 313 314 313 315 313 314 317 317 319 319 319 320 321 323 322 320 320 321 321 319 315 315 318 319 319 321 322 320 321 320 318 318 319 320 321 322
302 303 301 299 298 300 302 302 302 302 303 304 304 302 303 304 305 305 309 309 311 314 317 317 319 319 320 320 322 321 324 320 319 322 321 321 321 321 320 318 318 322 322 321 321 321 318 316 317 318 317 316 318 316
304 304 303 301 300 302 303 304 303 306 305 302 304 304 306 305 308 309 309 310 313 315 317 319 317 320 320 321 321 317 315 316 320 322 321 321 321 321 322 318 321 321 320 322 322 320 317 317 315 314 314 315 315 313
303 303 303 303 303 303 303 303 303 305 306 304 303 304 306 307 307 308 309 309 310 312 316 314 316 317 319 316 317 322 320 321 321 320 319 318 319 321 322 322 322 322 322 320 318 317 318 317 315 313 314 314 312 312
302 303 303 304 304 304 305 303 305 304 305 308 308 309 310 310 308 309 311 312 314 317 318 317 317 321 321 320 320 319 319 318 319 318 318 317 318 320 318 319 318 318 317 317 317 317 316 315 314 314 314 313 314 313
303 303 304 304 303 303 304 305 306 306 307 309 309 311 311 311 313 315 318 316 319 319 320 319 320 319 319 319 320 319 318 317 316 315 315 315 315 318 319 320 320 319 317 315 314 314 315 314 314 313 312 312 312 310
305 303 303 302 302 303 304 304 306 308 310 311 312 312 313 316 317 318 316 320 320 319 317 318 318 320 320 320 319 319 319 316 311 311 314 315 314 312 314 319 320 318 317 317 316 316 315 315 315 314 316 314 312 311
303 302 303 302 304 304 306 308 311 311 314 313 314 317 318 318 316 317 319 319 319 318 317 316 317 318 318 318 317 316 317 316 312 311 309 310 310 311 314 318 319 319 318 318 318 318 318 318 317 315 310 308 310 309
302 305 307 307 307 307 308 310 310 312 313 316 318 319 318 318 318 321 322 320 317 316 314 314 314 314 314 316 314 315 315 315 315 314 310 309 307 309 311 313 315 315 316 314 314 316 316 313 314 311 309 307 306 304
310 305 302 301 302 305 308 312 314 315 319 320 322 321 321 320 322 321 322 319 316 315 314 316 316 315 316 314 312 315 316 312 311 310 310 311 310 309 309 310 311 312 313 314 313 311 309 308 307 306 308 308 305 304
306 307 305 309 311 311 316 321 320 318 318 319 319 317 317 318 320 321 319 316 315 314 315 315 314 313 313 314 314 315 317 316 312 311 311 311 311 309 306 305 305 309 311 311 310 309 308 306 306 305 305 306 307 305
311 315 309 305 308 314 319 317 317 316 319 319 317 317 318 321 321 319 316 314 313 316 318 318 317 314 313 315 315 314 312 313 316 313 312 312 312 311 310 309 307 308 308 309 309 308 308 308 306 305 304 305 306 306
311 314 318 316 313 312 318 318 319 319 318 315 316 320 320 318 316 313 313 318 319 319 320 319 319 318 318 311 310 311 311 314 314 312 311 309 309 309 309 309 309 308 307 307 306 306 307 307 307 307 307 306 306 306
315 314 314 316 316 315 316 317 316 314 312 313 315 316 315 313 312 314 318 319 319 319 317 316 312 312 309 309 309 309 309 311 311 307 307 305 305 309 309 308 308 307 306 307 306 306 306 306 306 306 307 307 307 307
316 312 313 314 316 316 314 313 313 311 311 312 312 311 310 311 316 316 316 313 314 312 311 310 309 309 307 308 308 308 308 308 309 308 304 304 306 308 308 309 309 308 307 307 307 306 306 305 305 305 305 306 307 306
311 312 314 314 315 314 313 313 314 313 312 312 310 311 312 311 313 314 314 313 311 311 310 309 309 309 309 308 307 305 303 305 306 308 308 308 307 307 308 308 308 308 308 308 308 307 306 305 306 308 307 306 307 307
313 315 314 315 313 312 314 315 314 314 315 316 314 311 314 313 314 310 313 312 312 311 312 312 310 309 309 309 309 308 309 309 309 306 304 304 304 306 307 307 308 308 309 309 309 309 308 307 306 307 307 308 307 307
316 314 314 315 315 316 313 314 316 316 314 314 314 314 316 316 316 313 314 314 313 313 312 312 312 312 311 311 310 310 309 309 308 309 309 309 309 308 307 305 305 307 309 309 308 308 308 308 308 308 308 308 308 308

GFSWCAN_925_thetae_132.txt.gz
Theta_e
302 302 302 303 303 303 303 303 303 303 301 302 302 303 302 304 303 302 302 302 303 305 305 308 309 310 308 309 313 311 314 313 316 317 316 316 317 318 317 317 318 317 317 320 319 322 324 322 326 328 322 323 324 326
302 303 302 301 302 303 303 303 303 301 302 302 302 303 302 303 303 302 301 301 302 301 305 307 308 309 310 309 307 306 311 311 312 315 315 317 323 319 317 322 317 321 317 319 320 320 319 321 323 322 322 324 326 325
299 299 300 300 300 300 300 302 302 302 302 302 302 303 303 303 303 303 302 301 302 302 304 303 305 307 307 307 308 307 306 308 305 307 311 315 321 318 323 322 322 318 314 317 318 319 321 321 319 317 319 321 323 325
298 299 299 299 299 300 300 301 302 302 302 302 303 303 303 303 303 303 302 301 301 301 305 305 306 307 306 307 308 308 306 304 303 302 307 312 317 314 319 318 318 317 316 315 316 316 316 318 317 317 320 321 320 319
298 298 298 298 299 299 300 301 302 301 301 302 303 303 303 302 303 303 301 302 302 302 304 304 304 305 306 306 305 308 306 305 305 306 306 309 309 311 307 310 314 312 316 317 318 314 314 315 316 316 319 319 319 320
298 298 298 299 299 300 300 300 301 300 300 302 303 302 302 302 303 301 302 303 302 302 302 306 304 305 307 307 304 305 303 303 303 305 305 304 304 307 309 310 308 307 309 309 313 311 313 314 314 315 317 317 318 319
298 298 299 300 300 300 301 300 301 299 301 302 302 302 302 303 303 300 302 304 303 302 303 307 306 304 306 305 304 304 304 305 305 305 307 307 307 306 306 310 309 309 309 309 308 309 310 311 313 312 312 314 316 318
299 299 300 300 300 300 301 299 298 301 303 302 302 303 303 303 302 301 303 303 301 301 302 307 306 306 304 305 306 302 304 303 303 304 305 308 306 306 310 309 307 308 308 308 308 308 308 309 310 311 312 314 317 318
300 299 300 301 299 300 299 298 302 303 303 304 304 303 302 301 301 304 305 304 302 305 306 306 308 310 304 303 304 307 303 307 304 306 305 305 306 309 309 308 307 308 309 309 309 308 309 310 311 312 315 319 319 318
299 300 301 299 301 299 298 303 302 303 303 302 302 302 303 304 307 305 305 301 301 300 301 304 301 306 303 303 306 309 308 312 313 311 307 306 307 306 306 305 306 312 312 312 313 314 311 311 313 315 317 317 318 319
299 301 300 299 300 297 302 302 303 302 301 302 303 304 306 307 305 303 303 303 302 305 301 302 301 303 300 304 303 307 311 310 312 309 315 312 312 308 312 316 315 314 312 313 314 315 315 311 314 316 317 318 318 319
301 301 300 300 301 298 301 303 303 302 303 303 304 304 305 306 307 309 306 304 306 308 307 310 306 302 303 302 307 308 311 311 313 309 316 318 313 311 313 317 317 316 315 316 317 317 313 312 314 317 318 319 320 320
301 300 301 302 299 300 301 303 302 302 303 304 304 306 307 305 308 310 311 309 308 310 314 314 313 311 307 305 309 310 313 312 310 314 317 313 311 312 313 316 317 318 319 318 318 318 319 320 321 320 318 320 321 321
299 300 300 301 298 299 302 303 302 302 302 304 307 306 307 306 307 307 309 312 309 310 310 310 312 311 308 311 310 314 311 313 318 319 316 312 313 314 317 319 317 317 319 319 317 320 321 319 320 320 320 321 322 322
299 299 298 298 298 299 303 303 302 302 303 305 306 305 304 304 306 308 306 308 312 308 309 307 309 310 310 314 311 312 317 318 317 318 315 315 317 320 318 317 315 317 317 316 320 319 319 319 319 320 320 321 322 321
300 300 301 299 297 299 303 302 302 302 303 304 305 303 301 303 307 307 308 312 310 311 313 312 314 314 315 314 317 317 318 319 319 319 318 318 321 320 318 315 316 318 317 320 319 320 319 319 319 319 318 318 319 322
302 303 301 301 297 302 302 302 302 301 303 303 301 300 301 301 303 303 304 309 309 313 315 316 318 318 316 318 320 319 321 320 318 320 320 321 321 320 317 316 319 322 321 321 320 316 315 316 316 316 316 314 313 312
304 302 299 298 300 303 303 303 302 305 304 301 302 302 303 303 305 307 307 307 310 313 314 315 317 318 320 320 322 319 316 317 317 320 321 320 320 321 319 318 321 320 321 321 318 317 317 316 315 313 313 313 313 314
303 302 300 300 302 303 300 301 302 302 304 303 302 302 304 306 306 306 307 308 309 310 314 314 315 317 318 317 317 317 320 320 321 320 318 318 320 322 322 322 321 321 321 317 316 316 315 314 314 313 313 313 312 311
303 303 303 304 303 304 304 302 304 305 304 305 304 307 308 309 309 308 309 311 313 315 316 313 313 315 318 319 318 319 319 318 318 320 319 317 318 318 318 318 317 317 317 316 315 315 313 313 313 312 312 312 311 311
302 303 303 303 303 302 303 305 306 306 306 308 309 310 311 311 312 315 316 315 316 315 316 315 319 319 318 319 319 318 316 316 316 315 316 317 315 317 317 317 317 316 315 314 314 313 313 312 312 313 314 313 312 311
304 303 303 302 301 303 304 304 305 306 308 310 311 311 313 315 317 317 315 319 320 319 318 318 319 319 319 319 318 317 316 311 310 311 313 314 314 314 316 318 316 314 314 314 313 313 313 313 312 312 313 310 309 310
303 303 303 302 304 303 304 306 309 310 313 313 314 316 317 317 317 316 319 319 318 316 316 317 318 318 317 315 314 314 314 312 308 308 308 308 309 311 315 317 319 318 317 317 315 316 315 315 316 316 312 311 310 309
303 304 307 306 305 306 307 309 309 311 312 315 317 319 319 319 318 320 321 319 316 314 314 315 315 314 314 314 314 313 313 313 310 309 309 309 309 308 310 313 315 316 317 315 317 318 318 317 316 315 309 307 309 307
303 303 302 304 302 305 308 311 313 315 318 319 322 320 320 319 321 320 319 317 316 315 316 315 314 314 314 315 314 314 313 313 310 308 309 309 308 308 308 309 311 311 312 313 314 315 312 309 310 309 308 307 306 305
305 306 305 309 310 309 315 320 319 318 317 319 319 317 315 317 320 320 317 316 315 314 314 313 311 312 312 311 313 315 315 314 311 310 310 310 309 308 306 307 306 308 310 311 311 308 307 306 306 305 305 307 306 304
311 314 309 304 305 310 317 316 314 315 318 318 316 316 317 319 318 315 312 312 312 315 316 316 316 313 312 311 311 310 310 311 312 311 311 311 310 309 308 308 307 308 308 309 309 308 308 307 305 304 304 305 306 306
311 311 316 313 312 310 315 315 317 317 316 313 315 318 317 317 316 312 312 316 317 318 318 316 317 317 312 308 308 309 309 312 313 310 309 309 308 308 309 309 308 307 307 306 306 306 306 306 306 306 305 305 306 306
314 313 312 313 313 313 314 314 313 312 310 311 313 314 314 311 310 312 316 317 317 316 315 311 310 309 308 308 308 308 308 310 309 309 309 307 306 309 309 308 308 308 306 306 305 306 306 305 306 306 306 306 306 306
314 309 312 313 314 315 313 310 312 310 308 310 310 309 309 309 312 312 312 312 312 310 311 310 308 308 307 307 307 308 305 306 308 306 305 305 306 307 307 308 308 308 307 306 306 305 305 305 305 305 305 306 306 306
311 312 314 314 316 314 312 311 312 311 310 310 309 311 312 310 311 312 311 309 309 310 310 309 309 308 308 308 307 305 305 307 306 307 308 308 307 307 307 307 307 307 308 307 307 307 308 307 305 305 306 306 305 305
311 313 313 315 313 311 311 312 312 313 314 315 313 311 314 313 313 311 313 311 311 310 311 310 309 310 309 309 309 308 308 308 309 308 307 307 307 306 305 306 306 308 308 308 308 308 308 307 306 305 306 307 307 307
313 312 312 313 315 316 313 313 314 314 313 315 315 316 316 315 316 314 313 312 312 312 311 312 311 311 311 310 310 310 309 309 308 308 308 308 308 308 308 308 305 305 306 308 308 308 308 308 307 307 307 307 307 307